GFSGBSN_700_spd_000.txt.gz
Wind_Speed
29 27 27 27 27 23 25 31 31 23 20 20 14 13 11 10 11 16 19 21 28 32 26 24 27 29 33 44 48 25 49 43 40 47 45 35 34 33 32 30 22 21 19 16 16 13 20
30 27 26 25 25 23 25 29 28 25 19 18 14 13 12 12 13 16 19 20 20 26 25 25 26 27 34 46 39 26 33 48 45 48 45 38 35 30 27 28 23 23 20 19 18 15 19
29 27 25 24 23 22 22 25 26 24 18 14 16 16 14 14 16 17 19 21 21 21 23 22 24 28 36 42 34 27 32 48 50 49 41 40 31 28 27 22 22 22 22 22 19 18 20
28 28 24 22 21 21 22 22 22 19 14 11 15 16 13 15 19 17 18 20 21 21 24 21 21 29 38 28 36 27 35 48 53 52 42 34 36 34 30 27 21 16 17 18 14 14 14
28 28 24 21 19 20 19 23 18 18 14 10 11 11 10 14 12 13 15 18 18 20 22 21 25 30 35 31 39 34 31 50 54 50 46 40 40 38 31 24 21 16 15 14 12 9 9
27 27 26 20 18 19 18 27 19 21 15 11 9 8 9 12 8 8 13 13 16 19 22 22 23 22 22 36 38 38 32 43 57 52 52 44 45 43 35 30 23 18 15 9 11 9 12
26 26 27 20 18 17 18 23 25 17 18 14 10 4 5 10 8 9 11 18 19 23 27 31 28 24 24 35 40 41 38 36 50 52 53 51 41 41 38 30 27 20 11 8 5 10 12
24 25 25 22 17 15 17 20 21 21 18 14 9 6 2 5 6 8 16 16 13 22 31 23 21 25 17 30 43 42 43 37 52 57 50 44 48 39 35 30 28 25 21 9 7 5 7
24 23 24 23 17 15 16 15 22 23 16 13 10 5 7 3 5 6 9 13 10 18 21 20 18 25 15 30 47 41 41 35 54 54 57 33 38 37 27 31 28 23 19 12 10 7 11
25 21 23 22 19 15 14 14 19 18 14 18 8 6 8 4 5 8 7 13 20 28 14 18 15 21 23 41 45 51 39 34 54 49 41 33 33 38 26 32 28 25 18 14 15 14 9
23 22 20 21 19 15 12 13 10 15 14 13 15 9 7 4 14 18 18 22 17 3 4 18 19 20 38 42 35 37 31 46 52 52 38 23 34 34 33 29 22 22 18 18 16 14 12
21 22 18 20 17 15 11 10 8 14 12 12 12 7 10 12 13 22 8 12 5 5 4 12 15 24 26 25 44 38 24 46 40 48 32 15 31 30 29 22 19 21 18 14 11 9 5
21 21 18 16 17 15 11 7 8 2 10 10 11 10 14 27 22 15 6 4 4 1 13 16 23 25 23 32 38 34 30 43 39 39 34 23 32 30 26 25 24 22 16 3 3 3 6
21 20 19 14 16 13 13 7 5 8 2 5 12 15 22 26 19 11 3 6 3 4 7 21 26 29 21 43 26 35 27 30 34 35 38 24 22 32 28 29 27 26 19 6 6 4 3
21 19 18 15 13 13 12 8 3 7 7 4 8 9 14 19 16 18 10 3 4 13 26 29 31 30 28 35 21 27 25 32 31 43 16 25 18 35 24 31 26 25 24 16 5 4 2
20 18 17 16 11 13 10 8 3 3 6 4 4 5 10 10 9 11 6 5 8 21 35 30 21 23 25 32 31 30 23 33 27 27 17 17 13 30 23 28 26 15 23 11 10 3 4
17 18 15 16 10 10 9 7 4 2 3 3 1 3 3 6 5 6 10 15 18 33 21 10 20 24 38 40 35 24 17 26 29 33 17 25 16 22 20 24 29 22 18 10 7 4 4
15 17 15 14 11 8 7 6 4 2 3 1 1 2 1 4 4 0 7 8 16 12 12 24 35 43 33 31 24 13 31 24 33 33 15 20 15 25 21 17 25 24 20 17 6 5 5
14 16 15 12 12 8 7 6 2 4 6 6 6 2 3 2 4 7 12 12 16 12 21 37 31 22 37 28 17 22 26 24 31 29 17 16 9 14 9 12 20 20 25 23 19 10 8
14 16 14 11 13 9 7 5 4 8 10 5 3 3 4 9 9 10 15 8 14 16 24 39 26 36 23 18 17 22 25 22 25 25 16 13 13 13 18 8 17 25 21 20 20 13 16
17 15 13 11 12 10 9 4 5 8 10 8 7 5 5 12 13 16 13 13 14 22 25 38 18 29 21 18 23 20 23 22 21 20 19 16 11 8 11 8 12 15 21 22 25 24 18
18 15 13 10 11 11 11 6 6 8 13 12 10 14 12 13 16 13 11 13 16 20 22 20 32 20 16 12 11 17 20 21 21 19 17 16 13 13 11 10 11 14 16 19 22 23 26
19 16 14 11 10 11 13 10 7 9 15 15 16 17 12 12 14 13 13 15 18 16 19 22 21 22 20 18 12 12 13 16 13 13 14 14 10 12 6 11 12 12 10 18 24 26 19
19 17 14 13 10 10 14 13 11 11 15 19 21 19 16 13 14 12 14 15 16 13 22 20 19 15 17 23 26 23 18 14 17 18 15 12 12 9 5 5 2 6 9 6 5 5 7
20 18 15 14 10 11 12 15 14 12 15 20 22 18 16 16 14 15 13 16 15 12 19 18 16 13 16 20 19 13 11 10 12 13 13 13 12 6 5 8 9 7 6 7 8 7 12
21 18 16 14 11 11 12 15 16 17 16 18 24 19 13 14 17 15 15 15 14 15 17 17 16 17 18 19 14 8 8 8 8 7 16 15 14 12 8 4 5 6 9 8 8 10 18
23 19 17 14 11 12 12 14 18 19 20 19 21 19 17 15 14 16 17 16 16 16 16 17 16 16 16 16 15 9 8 11 7 8 9 14 15 17 14 6 7 11 13 14 8 6 15
24 21 18 15 12 11 12 14 17 20 22 22 21 19 18 19 15 17 17 15 14 14 14 15 16 16 16 15 11 8 7 11 9 10 9 13 12 13 15 8 9 12 12 14 12 14 20
24 21 18 16 14 12 12 13 15 20 21 22 23 22 21 20 15 20 20 20 19 18 16 15 16 14 14 15 13 11 9 10 15 7 17 11 13 8 10 6 11 13 16 17 20 25 29

GFSGBSN_700_spd_003.txt.gz
Wind_Speed
25 24 25 24 20 17 17 20 22 24 25 24 24 19 15 17 17 14 17 23 24 26 29 30 29 30 34 40 47 18 40 43 39 45 46 41 38 38 35 32 27 28 23 20 18 18 20
24 24 25 24 19 17 17 21 21 21 24 24 22 16 16 16 17 16 15 18 20 22 28 29 24 25 32 42 40 28 18 42 42 46 44 41 36 36 32 31 30 26 23 22 21 18 20
24 25 25 23 20 17 17 20 19 22 22 23 21 17 17 18 17 16 16 18 18 18 22 24 27 27 33 36 30 36 26 30 42 44 42 41 34 31 33 26 28 26 23 24 25 20 22
23 24 24 23 19 16 16 19 19 21 23 19 21 18 15 15 18 17 18 19 20 18 18 21 21 26 34 27 26 37 39 28 43 45 40 36 33 31 29 26 18 21 21 23 20 16 21
22 24 24 22 19 16 15 17 15 18 21 20 19 15 12 13 18 18 18 19 20 20 21 21 25 27 33 27 33 36 36 29 42 45 44 39 34 37 29 27 23 18 16 16 15 11 12
20 22 24 22 19 17 14 16 15 20 19 21 18 17 14 15 14 14 16 15 18 23 23 26 25 20 27 25 29 39 30 33 48 49 45 41 46 42 38 32 24 19 19 19 17 7 8
20 20 23 22 20 17 14 14 19 17 16 18 17 14 12 10 13 16 17 20 24 23 28 30 24 31 12 16 30 41 31 36 50 55 53 38 43 45 43 37 29 19 19 17 12 9 15
20 19 21 22 21 18 15 14 17 16 18 18 15 10 10 8 10 11 18 22 22 25 28 27 28 27 12 22 32 39 34 38 51 60 51 42 46 45 42 37 33 25 23 19 11 8 11
20 19 19 21 20 18 16 15 13 12 16 18 14 9 4 5 7 9 15 15 13 16 24 28 25 24 15 24 31 43 43 36 52 52 52 45 41 41 41 38 35 27 28 23 21 12 13
20 20 17 20 19 19 16 15 10 11 16 15 15 10 4 5 7 5 9 9 18 16 11 13 16 26 21 26 30 43 36 34 45 54 49 27 42 40 36 38 33 28 27 21 17 14 14
20 20 17 18 18 18 16 15 11 11 9 14 17 16 4 9 8 9 7 13 26 22 6 17 20 24 22 32 33 47 47 34 43 59 37 28 34 39 32 36 33 26 19 16 16 17 20
20 19 17 15 18 17 17 15 13 12 10 9 10 16 3 20 4 16 10 19 32 9 4 16 19 24 25 30 29 41 33 31 40 50 39 30 23 27 43 24 29 25 16 14 16 17 8
22 20 17 13 18 15 17 15 16 13 15 11 11 11 15 20 15 5 12 24 10 5 17 16 26 28 30 32 26 34 38 31 37 47 35 26 29 29 30 33 24 24 17 3 3 3 6
24 22 16 14 14 16 16 17 16 13 15 14 16 11 13 17 17 12 4 10 7 14 11 15 24 34 25 33 28 29 30 45 44 38 35 19 17 33 25 31 30 28 26 9 6 4 4
23 24 19 16 11 17 15 17 16 14 14 13 15 12 10 12 17 15 7 10 1 11 20 26 30 34 16 31 25 29 24 35 41 42 22 15 14 37 22 31 28 30 27 24 6 8 3
21 24 22 16 12 16 13 16 15 13 13 12 11 9 8 10 5 5 17 4 5 13 27 30 21 17 25 28 24 19 15 36 36 39 27 15 13 33 20 26 24 21 26 17 12 3 4
20 23 23 17 13 14 12 14 14 11 11 9 8 7 9 7 6 5 3 3 8 18 26 25 13 20 30 35 24 26 11 26 36 36 29 21 18 25 27 27 32 30 20 20 10 9 3
19 21 22 17 14 12 13 11 13 9 9 6 7 5 6 2 6 1 10 2 21 26 12 15 18 12 34 28 23 9 23 15 33 35 17 24 15 25 26 19 29 28 25 23 15 7 8
19 19 21 17 15 11 13 11 12 7 8 5 4 6 6 1 4 3 10 17 26 9 13 20 22 25 26 30 16 13 27 29 35 35 17 20 9 14 13 18 19 29 29 25 23 15 11
21 17 20 18 15 11 13 10 11 8 8 7 5 5 7 8 3 6 3 7 12 17 24 26 27 31 36 22 13 27 25 32 35 32 19 23 13 16 21 19 25 29 33 31 30 22 17
21 18 19 18 14 11 12 11 9 9 13 13 9 6 6 4 6 11 4 6 18 30 24 24 27 36 28 16 21 31 26 29 27 31 22 15 9 10 16 13 17 24 31 32 31 30 20
23 19 19 17 14 12 12 12 10 10 12 15 12 10 8 8 14 12 9 11 12 31 33 25 31 27 26 19 16 30 24 26 29 26 27 18 8 11 14 15 14 15 18 27 28 27 28
23 21 20 18 15 13 12 14 13 11 13 16 12 10 10 12 15 14 11 13 17 21 27 24 21 17 25 26 19 14 16 18 16 23 22 18 15 16 7 12 10 10 20 21 24 26 25
25 22 21 19 16 15 11 15 14 13 13 17 15 14 13 13 14 12 13 15 20 18 18 30 28 16 14 17 22 18 14 14 13 17 16 14 13 12 5 8 2 10 13 14 16 20 24
25 24 23 19 17 17 12 15 16 16 14 19 19 19 14 12 13 12 15 16 16 14 23 25 25 28 21 19 18 15 15 13 13 14 17 16 16 9 6 9 5 7 14 14 14 15 17
26 25 23 20 18 18 13 15 16 18 16 18 21 24 16 11 15 15 15 17 12 24 23 20 20 22 26 28 21 11 10 12 12 11 22 20 19 16 8 4 6 6 15 16 15 15 19
27 25 23 21 19 18 15 16 17 18 19 19 22 25 19 13 14 18 20 17 16 21 20 20 20 22 24 24 19 9 8 15 9 12 15 23 20 20 17 8 6 11 14 13 10 10 12
28 25 24 23 19 18 17 16 18 19 21 20 21 24 20 18 14 18 19 18 17 18 19 18 20 22 22 17 12 8 8 14 11 10 9 13 13 14 14 8 9 13 16 17 13 13 13
29 25 25 23 20 18 18 16 18 20 22 23 23 23 20 19 14 19 20 19 18 17 15 13 15 13 18 16 13 11 8 11 15 8 17 12 13 8 9 8 10 8 16 16 18 18 20

GFSGBSN_700_spd_006.txt.gz
Wind_Speed
22 22 24 25 24 23 18 18 21 24 22 21 22 22 23 21 18 18 18 19 22 23 25 27 29 31 33 37 44 19 14 37 37 40 40 38 42 37 38 35 31 31 27 22 18 17 18
21 22 24 25 24 23 19 17 21 25 22 24 19 21 24 22 18 18 19 18 18 21 25 24 26 29 32 37 35 33 14 23 39 41 41 37 36 35 33 33 30 30 25 22 23 21 21
20 21 23 25 24 21 19 17 20 25 20 19 16 21 24 20 17 18 20 18 18 19 23 23 24 26 34 34 21 30 28 21 39 40 39 37 34 34 31 26 29 25 25 24 25 24 21
20 21 21 24 23 21 20 17 19 24 23 23 20 24 21 19 14 17 20 19 18 20 19 18 19 27 37 37 24 21 36 23 37 41 38 35 32 31 29 24 21 20 25 27 26 19 18
20 21 20 24 23 22 21 17 18 21 24 22 22 25 22 20 15 14 19 18 17 18 18 18 22 27 38 34 26 26 33 31 31 42 39 34 34 33 30 21 21 18 20 18 16 10 14
20 19 20 22 23 22 20 19 19 20 22 21 21 22 20 18 16 14 19 17 18 21 22 23 25 22 29 22 24 26 27 34 26 42 41 41 37 36 37 31 18 23 20 17 20 9 14
20 19 20 21 21 22 21 20 18 16 19 19 20 19 18 16 15 15 18 22 23 25 30 30 26 32 9 24 16 26 28 34 25 43 49 44 42 44 43 38 34 19 20 16 12 10 18
21 20 19 20 22 21 22 21 17 16 17 19 17 18 17 15 14 13 17 22 24 22 24 26 29 21 25 18 18 25 32 32 30 48 44 36 47 43 37 34 28 23 16 21 19 16 17
21 21 19 19 22 20 22 22 17 17 15 17 17 20 16 14 13 14 16 19 21 22 21 25 28 29 20 18 20 28 36 31 31 44 49 33 34 40 41 37 34 32 28 19 19 17 22
22 21 20 19 21 21 22 22 19 17 16 17 16 21 21 12 14 14 14 14 17 22 15 17 31 26 24 21 21 28 37 31 28 46 47 28 27 39 42 39 33 33 25 21 17 18 14
21 22 20 19 20 21 20 21 21 18 20 12 17 18 22 14 5 9 11 15 14 13 2 9 25 18 26 28 17 30 36 26 28 47 44 24 29 28 40 38 31 30 23 21 20 19 20
22 21 20 19 18 21 20 21 21 19 22 20 17 20 20 16 10 10 11 16 23 8 6 17 20 26 24 27 17 31 40 33 16 34 47 25 12 27 30 30 26 28 18 6 11 13 7
23 23 18 19 17 21 21 19 21 21 21 20 18 19 22 22 18 13 10 23 15 6 15 16 26 28 24 30 22 35 48 43 26 34 39 23 20 26 26 31 20 30 18 2 3 4 6
23 23 19 18 17 19 23 19 20 21 20 19 17 19 21 26 13 18 15 24 8 5 24 19 26 24 24 31 20 32 36 30 29 30 38 23 17 31 24 35 31 25 28 8 6 4 4
24 22 21 17 16 16 22 19 19 19 19 18 16 16 15 16 13 22 18 24 9 11 12 21 28 27 26 37 10 27 41 30 35 25 28 21 15 29 25 25 36 21 34 22 2 3 1
24 22 22 16 17 15 20 18 18 17 17 17 14 12 13 16 13 15 19 18 9 12 17 24 16 20 22 30 15 20 31 33 27 34 27 16 11 26 29 21 27 25 30 18 15 3 4
24 22 22 17 16 14 17 17 17 15 16 14 11 10 13 14 7 25 22 17 7 9 19 22 15 21 18 27 13 19 24 26 34 40 31 22 14 26 28 26 31 30 32 22 12 9 4
26 23 23 17 15 13 14 16 15 12 14 11 10 9 11 7 9 12 15 6 12 22 19 17 18 15 25 31 18 9 16 17 41 44 33 23 14 32 26 17 27 30 27 31 17 6 9
27 23 22 19 13 13 12 14 14 11 11 10 6 10 10 10 4 6 2 11 25 25 20 18 15 20 23 28 13 15 17 29 40 45 37 25 11 20 17 21 22 31 32 27 24 22 19
28 25 22 20 14 13 11 13 13 10 10 10 6 8 8 12 12 7 2 18 22 20 10 15 18 15 28 20 16 16 18 34 41 32 27 27 14 20 21 21 29 29 34 31 31 23 19
28 26 22 21 14 14 11 12 13 10 11 15 11 12 9 9 9 10 4 6 12 15 13 16 21 20 34 19 20 23 27 30 39 32 20 23 15 17 19 22 26 34 32 35 36 37 25
30 27 23 22 15 14 11 13 13 11 12 16 17 14 15 13 10 13 6 6 18 22 22 20 28 30 25 23 18 28 33 36 38 36 25 17 8 12 12 18 19 26 29 30 35 37 35
30 29 24 23 16 15 12 14 13 14 12 14 14 12 11 6 12 11 8 3 9 23 15 23 30 25 13 11 20 23 25 34 35 39 30 19 10 10 7 11 10 11 23 23 29 33 33
31 29 25 24 19 16 13 15 14 16 12 13 14 13 11 8 13 12 8 4 6 26 19 27 31 25 14 15 22 20 19 23 17 26 27 24 20 12 5 10 2 12 13 19 21 22 29
31 30 26 24 20 17 15 16 15 18 14 14 16 14 13 11 11 11 9 12 12 16 18 25 24 32 20 19 17 15 13 13 14 21 20 19 20 10 7 14 6 8 13 16 21 22 25
30 30 27 25 22 19 17 17 16 18 17 15 17 16 16 11 8 10 13 14 16 14 15 26 19 14 24 26 20 10 5 7 8 10 19 19 18 16 10 4 7 6 15 18 17 16 19
29 30 27 26 24 21 18 17 18 18 18 18 18 19 20 15 9 9 13 16 14 22 21 23 23 23 20 20 15 10 10 15 8 11 15 21 21 18 15 7 6 9 11 14 14 10 17
31 29 28 27 25 21 19 18 19 18 19 19 18 21 21 19 9 10 14 17 16 23 22 22 23 23 25 20 19 6 7 14 10 10 12 17 15 11 14 7 9 14 16 17 11 10 12
33 30 30 28 25 22 20 18 20 18 20 21 20 21 22 21 12 13 16 17 18 19 18 16 19 18 17 20 14 14 8 10 15 9 16 12 14 8 11 7 10 8 18 17 17 13 13

GFSGBSN_700_spd_009.txt.gz
Wind_Speed
18 19 19 21 22 24 23 21 19 19 22 23 20 22 20 17 13 14 15 16 17 17 19 21 23 26 33 40 45 43 21 19 32 37 42 38 36 40 40 39 34 35 32 24 20 20 19
20 19 18 20 22 22 22 20 19 20 23 19 18 19 21 19 15 14 15 17 18 17 17 19 21 25 31 39 38 31 38 26 25 39 40 38 34 33 37 40 37 34 28 25 23 23 22
21 20 19 20 22 23 22 20 19 20 23 24 25 25 24 17 15 14 15 17 18 18 17 18 19 27 32 35 29 18 32 33 24 39 40 36 31 33 37 33 35 30 27 25 24 22 23
22 20 19 20 22 23 22 20 19 20 21 24 25 28 27 24 19 15 14 17 18 19 19 20 23 26 32 34 29 25 20 33 22 37 38 36 34 30 26 29 19 24 25 26 26 22 18
24 21 19 20 21 22 22 20 20 19 21 24 22 22 24 23 18 14 13 13 19 21 21 23 25 24 32 31 28 21 25 30 25 34 39 42 39 30 31 26 25 22 21 24 20 19 17
25 23 21 19 20 22 21 20 19 19 20 22 22 23 22 20 13 14 13 15 20 22 23 24 26 22 27 14 15 22 24 24 29 26 40 45 41 35 39 35 25 24 25 16 17 8 11
26 24 23 20 20 21 21 21 19 20 20 19 22 21 27 25 16 14 14 19 24 26 31 28 27 29 19 9 14 20 24 26 36 19 44 49 42 38 40 36 29 21 22 20 18 14 17
28 25 23 22 21 21 21 20 19 21 20 19 19 24 23 29 18 13 17 24 25 29 28 25 32 29 24 22 10 15 23 28 37 27 43 43 39 41 32 38 30 19 17 20 15 14 16
26 27 24 22 21 21 22 20 18 21 20 19 17 23 23 28 18 16 21 20 23 27 27 20 25 30 24 21 24 16 26 28 34 26 44 49 26 40 33 37 35 29 24 17 13 11 17
25 26 24 22 21 21 22 21 19 20 21 20 18 18 21 26 18 17 19 22 22 27 13 13 24 28 27 18 24 19 27 30 28 25 41 37 20 40 34 36 36 33 27 22 15 13 7
27 25 24 21 22 21 23 21 21 20 21 20 19 24 20 25 24 13 10 11 15 14 4 6 20 13 24 29 15 24 29 34 21 27 38 23 32 40 38 35 33 27 25 20 16 17 17
28 25 24 21 20 20 22 21 20 21 21 21 20 21 22 25 24 14 13 8 21 9 6 9 13 22 22 25 19 23 35 36 16 25 42 17 28 29 37 32 32 25 18 17 13 11 7
27 26 23 21 19 19 20 21 19 21 19 21 19 19 20 22 22 16 11 19 13 7 5 12 20 21 23 25 20 29 43 40 17 24 42 14 23 30 33 32 29 25 19 1 1 6 5
27 26 24 21 19 18 19 21 18 19 18 20 18 18 19 20 20 13 15 26 11 9 16 7 19 21 21 26 17 30 37 44 20 24 42 14 12 29 26 27 25 27 28 9 5 4 2
27 26 23 20 18 19 18 19 17 18 17 18 16 17 19 17 20 20 21 31 11 9 15 20 21 25 18 28 15 29 35 33 27 24 27 23 10 25 21 29 29 26 23 25 2 1 1
29 25 23 21 18 19 17 19 16 16 16 16 14 16 15 14 17 25 25 26 24 16 15 26 20 25 23 31 16 27 30 31 32 30 24 27 8 23 22 19 24 26 26 17 10 4 3
28 25 25 22 18 18 16 18 15 15 15 14 12 13 11 12 11 22 28 24 25 15 15 28 15 20 23 33 13 25 29 16 23 37 21 21 16 19 21 22 29 30 21 17 14 6 3
27 25 24 22 19 17 15 16 15 14 13 11 9 13 11 13 16 24 28 26 7 14 16 13 12 20 27 32 21 18 21 9 27 39 30 25 21 21 31 20 23 26 34 28 12 4 13
26 26 25 23 20 17 16 16 15 14 12 9 5 9 11 7 14 14 14 8 14 22 21 15 15 16 23 28 14 19 19 22 27 41 30 26 14 18 15 21 20 28 28 26 33 18 16
26 25 26 24 21 18 16 16 15 14 12 10 7 6 7 15 17 11 8 11 22 23 23 18 14 15 18 24 13 18 20 22 33 40 29 22 14 20 18 18 25 32 33 33 30 29 22
29 22 24 24 21 19 17 16 16 16 13 12 13 10 11 11 18 11 10 15 24 21 15 14 20 18 27 21 19 21 20 28 35 36 37 21 11 19 21 29 28 33 35 37 38 38 27
30 24 23 26 22 20 18 17 17 17 15 13 17 16 15 14 17 13 16 7 23 13 12 18 17 18 25 19 25 31 18 33 39 42 43 24 18 15 15 19 22 30 37 36 36 37 38
32 25 22 26 24 20 20 18 18 18 16 14 14 13 14 12 10 7 10 4 9 19 12 17 17 23 22 18 11 21 17 24 39 39 36 23 22 16 10 13 16 16 32 32 35 38 37
34 29 24 28 24 21 21 19 18 18 17 15 12 12 12 12 8 8 6 7 5 14 14 22 23 27 22 18 18 19 21 22 25 39 27 24 19 9 8 12 2 12 14 23 27 26 30
32 36 27 26 25 23 22 20 19 18 17 16 13 14 12 9 7 9 8 8 5 16 21 28 24 16 20 29 28 23 22 19 24 35 29 21 18 9 8 16 6 8 15 18 23 26 27
32 32 27 31 26 24 23 20 20 17 17 18 14 14 13 10 7 8 9 10 9 16 20 27 21 18 20 24 13 9 7 13 13 21 30 29 28 20 12 5 6 6 15 15 12 18 19
35 31 29 25 27 25 24 21 21 17 18 19 16 15 15 13 10 6 9 10 12 13 17 24 26 30 21 16 16 7 6 14 13 16 24 24 21 24 20 7 5 9 7 10 10 8 10
37 34 30 26 29 26 24 21 21 18 19 20 18 16 16 15 10 7 10 11 12 13 15 25 23 19 21 24 15 7 8 11 10 14 18 24 18 17 16 8 10 17 14 14 11 10 9
39 36 33 26 29 26 24 22 21 19 20 21 19 17 18 15 11 11 11 13 13 16 15 13 16 16 15 13 10 9 10 15 14 10 15 15 18 16 14 9 10 9 17 20 15 8 7

GFSGBSN_700_spd_012.txt.gz
Wind_Speed
24 24 23 21 18 19 18 16 17 16 16 16 17 17 22 24 22 21 19 17 17 17 18 19 21 27 30 35 41 32 21 15 22 32 32 33 34 37 41 36 28 38 28 29 29 25 25
27 24 24 23 20 18 19 17 17 17 16 17 16 19 23 23 24 20 17 15 15 17 16 17 21 24 28 34 33 35 39 36 26 18 33 35 35 31 27 33 35 25 35 31 27 26 24
28 26 24 23 22 20 19 19 17 18 16 18 16 19 25 23 23 21 17 16 17 17 16 18 20 22 29 27 24 23 26 29 30 30 27 36 32 29 31 31 30 32 23 21 27 27 26
27 27 26 24 24 22 20 19 18 18 17 18 17 16 18 21 25 22 22 15 16 15 18 19 21 24 31 24 25 28 27 24 25 31 32 35 36 30 33 28 21 31 26 28 24 22 25
28 26 25 24 24 23 22 22 19 19 18 19 16 16 17 18 23 21 18 15 14 15 17 20 24 27 31 27 26 24 27 26 24 31 31 34 43 37 34 31 27 26 27 30 23 18 20
31 28 24 24 24 23 23 23 21 20 18 19 16 16 15 18 23 22 16 16 16 20 22 24 25 22 28 19 14 21 25 27 25 29 28 36 47 42 41 38 38 27 25 18 23 17 20
31 32 26 23 23 23 23 23 22 22 19 19 16 16 17 21 26 27 19 21 23 29 32 30 19 30 23 13 9 18 27 29 28 33 33 39 49 54 48 36 25 29 24 21 16 18 15
31 31 34 24 22 23 22 23 23 22 20 19 17 17 20 20 20 26 21 29 30 30 33 29 34 32 26 26 14 16 23 31 30 38 33 36 51 51 26 41 28 24 22 21 16 19 18
33 30 33 27 24 22 22 23 23 23 19 19 16 18 22 20 21 23 24 25 26 28 32 35 31 32 28 26 25 16 18 27 29 35 35 47 54 43 30 36 34 23 21 18 14 10 13
33 31 30 31 25 23 22 22 23 21 20 20 17 18 22 24 24 21 21 22 26 28 20 20 26 28 27 28 29 26 16 26 28 32 38 31 32 45 34 39 32 26 19 15 13 8 8
33 30 28 30 28 24 22 22 23 20 20 20 18 20 20 22 24 21 20 22 19 19 5 5 18 15 23 32 14 21 21 29 29 22 26 24 46 38 35 36 34 24 21 18 11 10 11
30 29 29 28 29 25 23 22 22 20 19 19 18 21 21 19 20 17 12 11 11 11 7 9 11 22 17 27 29 12 25 31 26 19 25 23 29 33 33 34 33 17 19 13 9 5 9
28 28 27 27 28 26 24 23 21 19 18 19 17 21 21 18 16 14 15 18 12 8 5 8 13 19 19 24 25 26 32 38 30 15 22 33 21 32 27 35 32 25 22 5 6 5 6
28 25 27 27 28 26 24 23 21 19 18 17 17 21 20 16 17 17 20 21 12 9 15 7 11 15 20 20 23 23 25 30 40 13 21 27 11 34 39 35 27 32 24 6 5 6 5
27 26 25 27 28 25 25 22 20 18 17 16 16 21 19 15 19 21 23 26 12 13 9 21 16 19 15 19 15 22 26 33 36 20 14 21 6 24 34 32 29 24 25 9 3 2 3
26 28 25 23 24 24 25 22 19 16 17 16 16 18 16 14 15 19 29 28 25 18 10 16 13 18 20 20 15 19 24 25 36 22 17 25 8 22 28 27 28 25 27 11 6 5 5
28 27 26 22 22 23 25 22 19 15 16 14 17 16 14 10 17 28 36 32 27 28 22 21 13 17 17 22 16 21 22 12 40 26 23 12 4 16 22 20 27 21 25 13 11 4 3
11 26 25 23 22 24 25 21 19 14 16 14 14 13 12 13 16 32 37 31 27 16 11 21 12 12 18 20 25 17 19 10 28 32 24 19 10 14 21 12 21 21 16 19 12 6 4
14 29 26 24 24 24 25 22 19 14 16 13 11 10 12 11 17 27 24 27 23 18 18 16 17 14 20 21 17 18 21 19 30 31 27 20 9 14 8 10 19 25 23 23 18 16 17
33 28 27 23 23 25 25 22 19 15 16 14 13 8 12 17 19 15 13 11 11 20 19 12 11 16 19 23 12 24 17 29 20 31 23 20 10 19 18 12 19 25 29 28 27 23 16
38 16 31 27 23 26 25 22 20 16 17 17 17 15 15 14 17 15 16 14 20 23 23 17 19 19 22 20 21 19 22 24 26 32 28 16 6 17 15 17 18 25 32 34 33 32 22
35 13 31 27 24 27 26 23 20 18 18 20 18 20 14 16 15 18 11 20 26 29 27 25 23 22 20 25 24 25 25 24 33 38 41 17 9 10 14 16 18 22 26 31 36 32 34
30 19 32 28 23 27 27 22 20 19 20 21 17 19 18 16 13 15 12 14 18 25 24 21 16 22 25 20 17 12 15 18 24 43 37 22 10 10 5 7 14 14 28 29 30 32 35
24 20 33 31 24 26 27 23 22 20 19 19 16 15 18 17 14 11 6 5 5 20 13 19 17 22 24 17 15 17 22 16 13 37 30 30 17 12 2 5 5 9 15 24 29 30 35
16 18 34 31 24 22 27 23 22 20 18 19 17 16 16 15 11 7 7 6 6 15 17 21 22 24 22 13 20 20 16 18 23 28 28 28 24 12 5 13 9 10 16 19 26 29 29
18 31 30 33 27 22 28 23 23 20 18 19 19 17 16 14 7 7 9 5 7 16 25 25 22 27 24 25 22 12 8 12 13 19 26 20 19 14 11 4 5 6 12 10 14 19 17
18 27 23 36 27 27 29 25 24 21 19 19 20 16 16 16 10 6 8 9 9 19 27 26 23 30 31 15 20 16 7 16 14 17 31 25 19 20 16 8 9 15 8 7 9 7 9
19 28 24 39 31 22 30 26 25 21 20 19 20 18 17 17 8 10 8 8 8 10 25 29 26 22 25 18 14 10 9 13 11 16 25 25 17 16 18 10 13 15 13 12 11 10 8
19 31 25 39 34 29 30 26 25 22 21 20 21 19 18 18 12 9 8 9 11 12 13 23 21 19 20 18 15 8 9 16 14 13 18 21 23 18 17 13 15 11 15 17 18 14 8

GFSGBSN_700_spd_015.txt.gz
Wind_Speed
28 28 27 23 22 22 21 19 20 18 16 16 16 16 15 19 16 16 18 21 23 25 24 25 26 28 28 30 31 32 21 14 17 25 26 24 28 29 35 27 31 33 31 28 27 25 22
30 30 29 27 23 22 21 20 20 20 19 18 17 18 16 19 15 16 17 20 20 24 26 25 25 25 27 32 26 31 32 29 22 14 15 28 26 27 24 27 31 28 30 31 26 23 25
30 32 31 29 27 23 22 21 21 21 20 19 18 19 17 17 16 15 17 20 20 21 24 24 24 23 29 26 26 24 26 30 29 30 29 20 27 20 24 24 32 32 29 23 33 28 26
31 31 33 31 29 26 23 21 21 20 21 20 20 20 19 16 14 14 16 18 20 19 21 23 24 20 31 22 25 23 25 21 21 22 27 28 23 28 32 27 17 37 33 36 26 25 25
32 32 32 32 30 29 27 22 22 21 20 21 20 21 22 18 17 14 15 18 18 19 20 23 24 23 30 24 25 22 24 24 25 24 24 29 23 31 34 29 33 32 36 37 26 26 24
33 33 32 32 31 30 28 26 23 21 19 20 20 21 23 21 19 18 18 19 20 20 22 23 22 22 25 18 13 21 26 26 27 24 24 27 30 36 39 39 31 33 37 29 30 25 25
36 34 33 31 32 31 28 29 24 21 20 19 21 21 22 24 24 21 16 22 20 26 31 30 17 16 27 23 17 19 21 26 28 26 27 31 34 38 46 45 42 31 28 30 23 23 28
39 38 34 33 31 31 29 29 28 23 20 19 20 21 21 25 25 19 18 23 25 30 34 33 30 33 31 28 25 22 22 26 30 31 27 31 41 41 42 51 35 33 31 29 22 21 21
38 38 37 33 31 29 28 29 30 25 21 20 20 20 21 24 28 22 20 19 21 26 35 40 35 37 35 35 36 23 21 24 28 29 32 37 44 41 39 45 41 34 32 29 27 20 19
40 38 37 35 32 30 28 28 31 28 20 21 21 20 21 23 25 20 22 15 20 19 22 26 31 39 36 39 39 28 21 21 26 31 32 32 42 28 41 49 46 40 30 25 23 13 13
32 33 35 33 32 31 30 27 30 29 22 20 21 21 22 21 24 19 16 13 17 22 7 9 13 17 18 39 13 25 29 26 25 27 26 35 29 37 43 50 41 29 26 23 18 14 8
45 35 31 33 31 31 30 26 26 28 23 20 21 20 21 20 20 15 13 11 18 7 7 8 9 14 17 24 25 11 30 31 22 23 28 29 36 29 45 48 40 22 29 19 12 7 8
39 42 29 31 27 27 30 25 25 27 24 20 19 20 19 20 17 13 14 14 9 10 5 8 12 16 20 21 28 20 24 30 23 20 29 25 42 29 34 31 42 31 36 9 6 5 7
34 36 31 28 28 25 29 23 23 25 24 20 19 19 19 19 18 14 17 25 15 9 21 8 14 14 22 16 22 27 20 26 29 28 14 18 14 31 41 25 38 33 27 13 7 9 12
39 24 32 29 27 24 25 21 23 25 22 18 21 19 21 16 21 19 22 28 14 15 16 13 10 14 18 19 11 23 27 28 28 34 9 16 16 19 29 33 41 28 26 7 5 6 11
27 30 29 30 26 23 23 23 24 23 19 16 24 20 20 22 21 22 26 36 23 23 9 8 18 15 17 19 17 18 20 22 27 39 23 8 10 18 25 36 33 26 21 11 4 7 5
24 36 7 32 26 25 24 25 24 23 17 19 25 20 21 16 14 27 40 38 29 31 22 10 15 11 16 19 20 18 12 10 27 24 33 5 13 13 32 15 32 29 18 9 7 1 3
23 32 19 22 27 27 23 24 23 22 19 21 22 21 18 10 21 30 38 37 29 23 22 16 13 14 16 19 19 20 16 21 18 26 23 15 10 7 14 12 20 21 24 18 12 7 7
15 22 26 14 30 29 25 25 25 22 20 23 22 22 16 16 22 28 31 30 34 27 17 14 13 17 16 17 15 21 14 18 12 29 12 18 3 7 9 13 22 24 16 21 18 9 15
13 17 41 16 31 30 23 24 26 22 21 21 23 10 19 20 23 23 21 24 28 19 13 17 12 15 17 19 16 18 15 13 15 26 15 9 7 7 7 10 19 26 26 22 22 19 17
12 13 32 11 32 32 23 27 28 22 20 22 25 20 20 16 18 13 24 13 7 7 18 19 11 20 21 17 19 10 15 13 20 26 22 6 6 6 6 5 13 18 24 28 27 26 19
13 14 20 29 33 35 24 24 28 22 21 27 29 23 22 22 19 17 19 29 21 19 22 22 17 19 20 13 19 14 18 17 15 23 27 14 3 0 5 9 10 16 22 25 30 30 29
13 14 15 18 36 36 22 23 29 24 24 26 29 25 22 16 13 17 22 21 15 25 26 25 22 19 20 15 13 5 12 14 7 22 30 16 5 4 5 7 7 14 26 26 27 30 28
15 15 13 25 35 33 27 27 29 25 24 24 26 22 24 24 15 19 21 10 12 28 22 28 25 26 20 20 15 13 15 15 9 18 34 23 10 5 2 6 6 8 10 24 28 26 26
18 19 18 30 31 38 25 27 29 24 23 23 25 22 21 21 12 18 17 6 9 12 28 14 23 19 20 19 16 14 14 13 20 21 30 22 16 8 4 8 11 12 13 16 23 24 25
16 22 15 28 39 39 26 24 28 25 22 23 21 24 22 19 11 12 13 8 3 12 19 18 23 22 24 24 17 10 6 8 9 16 24 25 20 15 6 5 4 3 6 8 10 17 14
16 22 16 26 34 36 28 28 25 23 22 22 21 24 21 21 17 10 11 10 6 15 18 25 24 25 23 15 12 10 5 10 11 14 25 26 25 22 17 8 9 15 10 3 8 3 5
18 22 17 28 32 38 29 27 26 24 21 21 21 23 20 21 13 12 12 10 5 15 21 26 28 29 28 19 14 9 6 11 6 13 28 22 18 14 12 6 10 9 9 9 7 6 5
18 22 18 28 33 42 31 29 27 24 21 22 22 21 21 19 13 12 10 12 8 7 18 23 17 30 27 13 12 15 9 14 11 10 19 19 19 18 13 13 10 9 10 12 17 13 10

GFSGBSN_700_spd_018.txt.gz
Wind_Speed
27 28 30 28 26 25 24 23 21 21 19 18 17 18 19 19 17 18 17 17 18 19 18 19 21 24 30 36 35 36 27 17 13 22 27 22 21 21 28 23 28 37 32 30 28 28 27
28 28 29 30 29 26 25 25 24 22 20 18 17 18 19 20 19 18 18 18 17 15 17 19 21 25 29 36 28 31 32 26 17 11 16 23 19 19 19 19 24 25 36 35 29 28 27
30 30 29 31 30 28 26 25 26 25 23 20 18 18 18 20 19 18 16 16 16 15 16 19 21 25 32 30 29 26 30 23 23 25 19 12 19 20 9 19 22 27 26 29 37 28 31
34 32 31 30 31 30 28 26 26 26 25 22 20 17 18 19 20 18 19 16 17 15 15 16 20 26 36 24 29 24 26 20 19 23 27 26 21 25 24 23 21 21 30 34 38 30 33
37 35 35 33 30 31 30 29 27 27 27 24 22 19 18 18 20 20 19 20 22 24 17 17 20 26 33 25 28 20 24 20 19 18 19 19 24 24 23 29 22 29 32 45 39 34 22
39 38 37 37 34 31 31 30 29 28 26 26 23 21 18 19 20 22 21 20 23 23 20 21 23 23 22 20 14 12 22 22 22 21 22 22 21 25 28 30 34 31 30 33 35 36 31
41 37 37 37 37 33 32 31 29 29 28 26 24 22 20 18 20 23 23 23 24 23 26 22 26 18 22 18 19 15 15 19 24 26 24 20 26 37 40 37 39 32 29 29 37 24 32
45 36 39 37 36 35 32 31 30 28 28 27 23 24 21 19 19 23 23 23 23 24 28 29 26 33 31 30 27 21 20 22 24 30 26 23 37 40 32 35 36 35 32 34 27 28 29
47 46 39 41 37 35 33 32 30 29 28 28 23 25 21 21 20 20 20 20 21 21 32 41 34 34 31 33 33 27 26 26 26 27 29 34 43 31 31 32 32 37 41 36 30 30 27
43 47 42 41 43 34 30 32 31 28 26 23 23 24 22 20 19 17 17 16 18 9 20 28 27 25 30 40 40 33 25 28 29 30 25 32 34 32 28 38 35 41 45 42 31 32 22
37 42 47 49 32 37 29 28 27 24 23 20 21 21 21 18 19 16 15 13 12 8 6 8 11 14 14 30 35 27 32 30 27 26 24 34 29 37 38 39 41 42 34 46 39 30 23
27 35 44 43 52 34 30 29 26 24 23 21 20 19 21 18 14 14 13 12 5 9 7 8 9 8 12 15 23 35 20 30 23 24 29 33 24 25 39 38 44 41 33 37 40 27 7
24 25 29 41 37 38 32 30 30 25 24 22 21 17 20 16 14 13 13 10 9 10 8 8 14 15 16 18 20 28 20 31 26 17 27 31 34 39 31 32 42 36 39 12 7 3 4
24 23 27 30 33 45 34 30 30 27 25 23 20 17 17 15 16 16 12 11 14 11 19 14 10 13 18 17 20 27 12 27 31 26 14 17 19 34 32 42 26 47 38 7 5 8 6
25 24 25 21 34 39 30 30 29 27 25 22 20 17 22 21 20 20 12 21 17 18 24 19 16 14 16 18 7 16 23 21 30 35 21 9 16 18 18 41 28 26 45 35 11 20 12
22 20 22 17 13 34 29 27 28 26 24 21 19 21 25 19 23 26 21 32 28 24 23 11 14 13 12 16 17 16 16 23 31 30 31 24 12 18 14 23 35 20 39 18 8 7 7
21 20 22 19 23 4 28 27 27 24 21 21 21 23 26 19 21 24 37 32 37 38 29 18 16 12 14 16 20 16 10 15 13 23 29 28 23 9 17 29 30 25 19 16 6 3 4
22 17 23 17 32 18 30 29 29 23 19 21 22 25 22 20 23 32 37 39 39 28 21 14 20 22 15 18 18 18 20 14 10 22 30 32 9 9 14 14 32 29 15 8 2 3 5
21 21 23 17 24 3 31 30 28 26 23 24 23 23 23 21 26 28 36 38 38 35 21 13 12 16 10 15 9 18 16 10 9 23 12 18 11 2 9 7 24 30 25 16 4 3 3
21 20 21 18 24 13 29 34 29 32 27 23 26 18 24 22 24 26 28 33 33 31 24 26 19 14 15 15 17 4 14 7 15 17 22 13 14 11 6 15 28 23 35 23 12 3 1
20 19 17 18 23 5 28 37 28 25 26 25 29 25 23 14 20 26 24 26 17 7 10 11 18 20 18 15 13 20 11 11 14 14 21 7 9 11 5 14 25 24 30 24 23 21 7
22 19 16 18 23 10 30 40 30 24 26 28 29 27 22 19 18 18 19 35 22 19 10 18 16 16 16 17 14 15 12 15 14 16 20 12 10 11 11 10 10 18 24 24 23 20 20
16 17 17 16 20 15 19 35 29 24 25 28 29 27 27 13 12 16 22 23 24 20 23 23 14 14 19 16 6 12 11 16 8 16 23 16 9 8 5 6 10 6 17 19 20 22 26
19 16 17 19 19 25 34 36 27 23 23 24 26 24 29 26 19 18 21 28 29 16 17 21 23 22 14 13 13 14 19 16 17 12 16 25 14 3 2 5 1 2 3 17 25 23 22
15 14 16 20 15 25 25 33 27 21 21 26 22 23 27 25 22 13 16 27 19 10 25 19 29 24 20 17 13 8 9 11 18 14 18 22 13 3 1 4 7 6 8 10 16 23 23
14 14 15 18 23 28 21 27 30 25 21 23 23 23 25 21 18 12 18 18 8 9 18 25 26 26 25 19 14 8 6 7 7 11 19 21 20 9 4 1 2 1 5 3 7 14 15
15 15 16 20 16 25 29 31 25 23 25 25 21 22 24 25 24 14 15 16 14 6 11 23 23 23 20 20 19 8 7 8 7 10 23 25 18 18 12 2 5 11 8 2 6 1 0
16 17 17 19 16 21 30 33 28 21 24 21 20 21 20 25 22 12 13 13 15 8 13 14 24 22 27 23 20 9 7 13 5 12 22 21 20 11 11 5 9 9 9 6 4 1 1
18 16 18 19 17 25 25 36 27 25 24 22 20 19 18 21 14 12 16 11 13 6 14 14 21 26 17 22 9 8 9 14 10 7 11 18 22 16 12 9 4 5 1 3 9 10 10

GFSGBSN_700_spd_021.txt.gz
Wind_Speed
31 30 28 28 28 27 26 27 26 23 22 21 19 18 17 17 15 15 15 15 14 14 18 20 21 24 26 24 24 28 27 23 18 14 15 25 21 19 24 25 24 35 33 31 34 33 32
31 32 30 30 28 28 28 26 27 26 23 22 22 19 19 19 18 16 15 13 13 12 14 17 21 25 26 22 19 24 25 26 30 29 22 21 23 18 19 21 25 23 34 39 36 35 32
26 32 31 31 30 29 28 28 27 28 26 23 22 21 20 19 20 18 17 14 14 12 11 14 18 24 26 16 20 22 22 18 24 23 19 16 21 20 18 20 26 32 32 32 43 38 36
35 30 28 34 31 31 30 28 29 28 28 26 23 22 21 20 20 20 19 17 17 17 17 17 18 22 21 15 19 22 24 18 18 21 25 16 17 28 27 22 22 29 29 40 35 39 37
40 38 33 33 33 33 31 31 30 30 28 27 26 23 22 21 21 21 21 20 19 19 22 22 19 21 19 13 12 16 21 18 20 20 21 25 28 30 27 30 29 26 29 28 38 33 34
35 39 39 32 36 30 34 31 31 30 29 29 26 25 23 22 21 21 20 22 20 21 22 24 23 21 13 13 14 8 18 20 22 23 22 21 27 33 31 31 27 26 33 34 33 38 32
39 38 39 41 41 31 36 34 32 30 30 29 28 24 23 23 21 23 19 20 20 22 24 22 23 25 22 21 19 12 16 16 22 25 23 23 31 34 31 32 32 26 23 26 30 23 27
40 40 39 39 39 35 37 35 33 30 30 29 26 26 23 22 22 22 19 16 16 20 28 28 23 28 20 26 27 24 19 20 23 28 25 26 38 30 28 29 32 32 35 37 32 25 22
44 43 40 37 40 44 38 34 33 28 27 26 23 22 23 22 21 20 16 14 14 17 24 35 26 28 26 26 33 30 26 21 24 26 27 34 15 19 30 31 29 36 37 39 36 25 31
40 40 39 34 38 47 43 37 33 28 25 25 22 22 21 21 19 18 13 14 11 13 13 19 15 11 14 28 37 29 29 24 29 30 26 29 32 30 19 34 31 35 35 32 32 24 22
38 30 29 24 28 38 37 46 37 31 27 25 23 22 21 18 18 15 13 11 8 7 5 4 8 6 8 13 20 17 23 33 33 33 30 29 17 26 35 40 26 41 28 28 26 30 34
25 26 26 25 24 28 38 37 35 31 29 26 24 22 18 19 15 12 11 9 7 3 8 7 9 7 8 11 18 22 18 35 37 33 32 33 28 18 25 27 31 30 29 28 22 25 18
25 26 27 25 24 23 28 30 33 35 31 30 26 25 20 17 12 12 13 9 7 8 4 8 12 9 8 12 15 17 22 24 35 23 30 27 31 30 29 23 26 29 25 5 8 8 13
23 27 26 24 24 19 23 36 32 28 32 29 29 23 20 18 16 16 18 14 10 7 13 14 10 11 16 17 15 18 19 24 31 20 5 11 13 34 33 39 31 33 37 15 7 8 9
24 29 25 21 21 22 17 27 34 31 38 27 26 25 22 21 21 17 20 19 10 11 17 19 20 16 18 15 12 7 19 18 24 31 17 8 15 22 21 26 38 36 36 49 8 15 10
24 28 23 24 29 19 19 22 27 34 38 31 26 27 26 20 17 20 26 27 18 13 19 20 10 9 10 10 13 11 10 9 27 24 27 23 21 28 29 27 22 29 34 27 13 5 5
26 26 25 28 29 20 17 20 26 37 34 30 25 24 25 23 24 29 36 35 31 31 28 15 17 19 12 10 14 15 8 10 11 13 25 30 28 20 19 18 32 34 23 27 23 23 4
27 27 23 27 27 19 23 15 34 38 38 34 30 28 25 31 27 38 37 36 36 32 27 11 16 17 18 14 15 18 24 21 13 17 28 31 12 15 25 14 23 30 38 36 19 16 9
28 24 23 25 25 20 14 3 35 41 39 36 28 27 26 27 30 34 34 34 29 33 32 18 16 8 6 11 16 19 23 11 19 15 16 29 14 8 5 10 20 31 40 23 42 21 2
31 24 22 23 25 22 17 17 37 42 29 32 26 25 25 25 25 24 29 28 26 30 32 26 24 18 13 14 16 7 9 8 14 19 12 11 17 18 11 1 19 21 35 27 32 5 7
31 21 21 21 24 24 17 13 39 38 28 29 28 27 23 25 26 25 21 21 19 20 17 6 22 25 22 14 14 21 17 11 10 17 22 16 18 16 17 11 21 15 24 25 25 2 12
30 20 18 18 22 22 27 7 28 28 28 30 30 22 26 24 20 14 20 19 19 23 25 12 12 15 23 21 15 9 15 18 14 21 19 21 18 15 13 11 24 14 13 23 22 18 12
31 19 17 15 22 21 18 5 25 34 33 34 31 28 20 15 23 18 17 13 16 13 15 15 12 15 22 20 13 18 10 13 13 13 21 15 9 10 7 9 16 8 22 22 13 17 13
31 20 19 19 19 23 13 15 25 32 32 34 26 26 17 20 18 14 12 11 18 22 19 9 20 18 16 17 17 10 11 14 20 12 14 10 5 9 6 7 1 2 2 11 18 17 18
30 20 14 15 19 20 22 6 21 29 26 29 22 25 21 22 22 21 11 13 16 21 24 18 22 21 14 16 14 8 10 6 11 11 9 12 13 3 2 5 5 1 3 5 17 18 18
30 21 15 15 16 17 18 11 27 30 30 32 24 17 20 20 21 19 13 12 18 10 8 24 19 25 21 13 12 5 4 6 6 7 14 11 13 11 4 2 2 3 7 1 6 9 9
28 21 17 15 14 15 15 12 19 25 24 22 22 21 17 20 20 18 10 14 15 13 9 21 27 23 28 24 20 6 7 7 7 8 12 21 16 16 13 3 6 8 4 4 4 2 1
26 23 17 15 14 15 16 17 24 31 23 20 19 15 17 21 19 16 9 9 15 13 9 6 25 21 23 19 19 9 9 14 10 12 16 22 16 12 14 4 8 2 5 3 3 4 4
24 23 18 14 13 15 16 23 19 28 24 19 20 14 17 17 12 12 13 11 12 14 8 12 18 21 18 16 13 17 9 13 14 8 15 16 24 15 14 10 3 2 2 2 2 4 4

GFSGBSN_700_spd_024.txt.gz
Wind_Speed
22 22 27 29 28 26 27 28 28 28 27 25 23 21 19 18 18 19 19 18 16 14 15 15 18 20 19 21 25 25 24 20 15 10 9 15 24 26 28 27 28 39 40 40 40 39 38
33 28 26 23 30 29 28 28 29 28 28 27 25 23 21 19 18 19 20 19 17 13 13 13 14 15 15 21 19 22 22 24 22 21 24 23 19 24 26 26 29 33 34 37 37 39 40
34 32 36 30 24 28 32 31 29 29 29 28 27 25 23 21 20 20 20 20 18 16 15 15 13 11 10 6 17 23 18 18 21 19 19 17 19 25 24 24 26 35 36 32 38 38 37
32 33 37 36 32 28 28 32 31 29 30 29 29 27 25 22 21 20 20 20 20 19 19 21 20 17 12 13 17 21 18 18 19 15 15 16 21 31 31 24 19 25 33 36 33 32 39
35 36 34 37 39 36 36 34 33 31 30 30 29 29 27 24 21 21 21 20 21 21 22 23 24 20 16 15 13 18 19 18 19 19 21 21 21 26 29 27 26 26 26 27 31 34 29
35 35 35 35 36 39 40 33 32 30 31 30 27 28 27 25 22 21 20 20 20 23 24 25 27 20 11 11 10 13 12 18 20 21 23 27 33 34 31 29 31 27 31 30 30 26 22
40 37 35 36 36 37 41 41 38 35 33 29 28 26 25 25 24 22 20 19 20 24 26 24 22 22 22 21 17 14 13 14 20 26 27 26 27 36 38 36 36 33 25 33 31 22 27
43 42 39 38 37 36 38 43 45 36 34 31 29 27 26 25 24 22 21 19 17 23 24 24 23 25 24 24 23 16 17 17 22 29 27 28 32 31 28 29 33 35 38 37 28 20 25
43 43 42 40 39 39 33 41 46 42 35 34 30 29 25 26 24 24 18 16 17 19 23 28 22 27 23 26 26 22 21 22 26 25 30 35 25 20 31 30 30 33 37 32 27 26 30
44 39 34 30 28 26 24 37 44 43 32 36 31 29 27 27 27 21 17 15 15 16 13 16 10 7 5 18 22 22 26 27 29 27 26 27 28 19 18 31 32 35 32 28 27 18 13
43 38 29 19 24 26 24 22 41 33 24 33 32 28 29 30 25 19 12 15 14 8 4 5 7 5 2 5 8 11 9 30 32 29 26 26 23 32 36 32 24 29 20 21 22 21 22
36 33 23 22 28 27 26 25 26 46 18 32 33 32 31 30 25 18 16 15 11 6 7 7 7 5 6 8 11 13 10 24 28 37 33 38 25 25 27 25 35 25 20 22 23 17 13
36 29 21 25 28 25 22 24 19 35 33 32 32 33 35 30 19 18 19 18 10 8 5 8 8 7 8 10 14 13 17 24 32 24 32 32 36 29 22 18 20 29 23 5 6 9 13
37 34 23 25 25 22 20 23 17 28 42 33 33 33 30 26 24 23 19 22 10 6 11 9 4 8 14 16 20 16 18 23 26 31 12 14 11 36 32 36 27 32 33 9 7 4 7
39 37 30 27 26 25 28 19 16 25 29 44 34 40 39 35 34 28 24 24 10 12 11 9 5 11 14 13 11 11 17 26 26 28 21 11 12 11 28 25 31 24 32 44 10 18 6
37 39 29 24 26 28 23 11 18 21 29 32 32 38 36 29 28 26 31 29 18 17 14 10 10 8 9 12 13 11 12 8 18 21 23 17 12 15 18 22 27 36 25 15 20 6 10
39 36 27 21 23 30 28 11 11 14 29 30 25 24 41 38 32 35 38 32 25 25 19 18 18 13 16 14 17 12 10 8 8 9 25 26 21 10 21 34 37 31 42 23 23 21 5
37 39 28 20 26 31 32 15 7 12 32 36 20 28 26 30 41 41 40 36 26 21 21 23 20 17 17 16 17 16 22 14 7 9 16 28 15 26 39 32 29 30 45 43 19 20 15
36 38 29 20 24 29 29 28 13 19 25 32 26 22 18 26 32 38 35 33 29 28 25 21 23 15 14 19 12 14 20 19 16 20 11 20 15 11 14 15 28 27 34 33 26 18 33
36 37 28 18 20 25 28 27 4 28 38 30 36 25 34 30 31 33 31 28 24 24 23 23 25 21 14 17 19 8 7 4 11 19 22 14 21 21 13 8 13 25 36 30 34 22 32
35 35 27 16 18 22 25 20 6 13 43 27 29 29 31 38 31 30 26 20 15 21 17 15 13 22 20 18 19 20 19 15 18 13 21 22 19 22 28 32 27 29 36 41 42 36 26
34 32 27 18 16 18 24 20 5 31 51 30 21 27 33 11 29 27 24 23 18 14 20 15 16 11 25 29 20 1 9 17 19 15 22 28 26 29 38 14 18 22 32 36 35 44 36
32 31 28 18 19 21 25 17 1 21 37 33 21 25 24 23 20 19 22 19 7 9 13 7 6 9 17 20 18 11 11 15 17 18 21 28 27 13 11 11 16 10 18 26 25 23 27
27 29 27 16 18 21 19 21 2 32 24 10 29 27 20 12 19 19 16 10 9 11 15 19 13 17 17 14 16 16 19 18 16 19 20 12 13 12 7 4 2 6 3 5 7 11 11
24 27 27 17 14 16 16 16 4 21 34 13 29 27 24 20 19 17 15 16 12 12 20 22 18 24 15 15 13 12 19 13 18 20 10 12 10 8 6 6 7 7 7 5 12 14 13
23 25 27 18 13 13 13 12 6 19 26 24 21 27 23 20 18 16 14 12 9 16 17 11 19 25 23 19 17 8 6 5 4 4 13 15 10 8 6 4 2 4 10 2 4 7 10
23 24 25 18 14 12 8 11 6 15 24 25 25 18 16 18 15 14 11 11 11 14 14 6 26 21 23 15 13 7 6 6 6 6 8 13 10 13 12 4 5 4 3 5 4 3 4
23 24 24 18 15 12 8 10 9 23 25 25 27 22 21 18 14 12 11 7 7 15 14 5 19 26 26 19 10 8 6 8 7 8 11 15 11 9 9 4 7 0 2 2 6 8 6
23 23 22 18 14 12 9 11 13 24 20 19 16 17 19 15 11 10 12 16 13 13 10 8 12 20 24 20 18 12 7 6 11 6 14 12 14 8 8 5 5 3 4 6 3 1 4

GFSGBSN_700_spd_027.txt.gz
Wind_Speed
29 30 31 29 28 23 25 27 29 27 28 28 28 25 24 23 20 20 19 18 17 17 17 17 17 17 19 20 20 21 20 15 10 11 13 17 22 23 26 27 30 36 39 39 39 39 40
28 29 29 29 31 27 23 25 27 29 29 28 29 28 26 24 22 21 20 19 18 18 17 15 14 13 15 19 18 18 20 21 21 20 19 16 11 16 25 26 29 29 32 39 39 38 40
30 30 30 31 30 30 30 31 25 28 29 30 29 30 28 26 24 22 20 20 19 19 19 18 14 12 11 9 15 16 18 19 20 20 22 23 23 23 23 26 28 30 35 35 34 36 39
31 32 34 33 32 33 32 38 37 26 30 29 30 29 29 28 25 24 22 21 20 21 22 21 20 17 16 17 16 14 16 20 21 19 16 18 19 24 26 22 20 22 30 33 31 32 30
32 33 34 34 37 35 35 34 44 36 25 32 30 27 27 26 27 24 23 22 22 22 24 24 23 19 17 20 19 16 17 18 20 20 17 17 19 20 25 25 25 22 28 23 19 25 27
36 34 33 35 35 37 39 36 38 46 36 28 33 27 26 27 27 26 24 25 23 23 25 25 26 19 17 17 14 10 9 13 20 22 21 23 24 26 25 25 23 19 26 28 28 22 22
41 38 35 34 35 34 37 40 40 39 42 36 30 30 27 26 24 27 27 24 23 24 26 24 16 11 11 15 17 18 16 16 19 24 24 26 32 37 35 32 32 32 22 17 21 19 27
42 41 41 37 35 35 37 36 39 40 42 48 33 33 29 28 26 27 27 26 22 22 21 21 22 23 24 23 25 22 18 18 20 23 24 27 35 32 30 31 36 39 38 37 36 28 26
47 45 42 40 32 30 27 28 28 34 39 47 45 36 33 33 29 30 29 22 19 21 22 22 22 24 24 28 29 21 20 19 20 21 23 30 25 20 28 30 31 32 33 27 29 27 32
46 42 40 36 26 21 20 26 24 22 28 42 48 34 35 32 34 34 32 21 18 17 11 13 15 16 20 25 21 16 23 20 23 23 21 26 31 31 30 24 25 34 30 27 28 22 15
41 41 40 34 24 22 27 28 29 26 23 38 38 35 40 40 39 32 18 16 19 11 2 6 13 11 10 11 6 4 9 19 27 25 26 23 20 22 34 34 24 23 22 15 19 21 25
41 41 38 39 27 27 28 27 27 28 27 33 26 29 37 38 37 29 20 22 17 8 7 9 11 12 11 9 6 7 8 15 21 24 32 31 32 29 29 23 30 23 18 17 15 18 15
37 40 39 38 25 24 28 26 23 23 29 33 25 38 38 43 39 30 28 24 15 8 6 8 12 12 10 9 10 10 11 19 21 16 24 29 33 37 34 29 27 29 23 4 7 8 8
41 40 42 37 22 23 27 25 22 17 24 26 31 41 21 37 38 37 30 31 8 8 15 6 11 12 13 10 13 13 14 19 24 25 19 15 13 33 34 37 33 34 35 8 6 5 4
40 41 40 33 23 20 24 36 17 11 9 18 33 36 9 34 41 37 33 30 18 13 11 14 10 9 9 12 10 9 16 22 22 26 21 10 16 21 21 28 36 20 33 40 11 12 4
40 40 39 36 24 20 27 36 24 9 11 20 35 43 31 43 30 32 37 27 16 15 11 13 9 7 7 9 11 9 10 5 12 18 24 14 17 21 16 17 31 29 18 10 18 5 6
38 38 37 37 21 19 28 37 30 7 3 26 29 34 35 32 38 43 39 26 27 18 15 12 14 11 12 13 15 14 8 7 7 7 15 21 17 9 15 28 33 34 33 18 15 18 4
37 36 35 36 18 20 22 31 30 14 12 22 31 32 19 39 49 50 40 31 26 26 19 19 20 21 18 13 13 15 19 15 6 9 15 21 15 24 36 29 27 35 38 39 19 13 23
34 35 33 32 17 17 18 27 29 10 11 15 31 25 22 45 42 42 37 33 31 28 24 18 17 13 13 17 10 16 16 17 19 19 9 15 13 10 10 19 33 37 40 40 44 22 23
32 32 31 32 17 14 17 25 22 12 19 19 24 16 41 41 42 40 35 32 30 23 26 27 25 20 15 15 17 9 10 4 6 12 19 26 25 23 14 16 7 22 32 36 41 34 32
31 31 30 30 19 15 18 23 29 13 15 26 10 27 39 33 38 35 33 22 26 24 22 21 18 16 16 15 19 25 18 12 11 15 21 28 29 30 35 38 33 33 22 27 42 37 32
30 27 28 30 22 14 17 22 23 8 16 15 14 18 30 22 27 25 24 27 23 18 17 15 16 16 12 25 23 4 10 13 16 17 18 26 33 32 40 42 46 38 28 27 34 36 44
27 23 26 29 22 15 16 18 16 9 12 20 7 14 28 22 24 29 25 25 19 17 15 12 9 8 13 18 21 16 8 14 19 20 21 24 28 15 19 11 1 9 26 33 37 37 39
26 23 24 27 21 13 14 16 7 7 19 19 27 18 20 20 16 26 22 19 14 15 12 11 11 13 11 6 9 20 21 21 21 23 25 25 18 12 13 6 2 11 8 22 36 42 40
24 22 23 26 21 12 10 8 3 6 26 27 10 14 20 17 18 17 15 14 7 14 15 14 17 15 14 9 10 9 11 18 20 17 21 16 16 9 8 9 3 7 9 1 11 7 14
22 22 23 24 21 11 9 3 4 12 23 23 26 21 26 18 16 14 14 16 14 15 13 14 10 11 23 16 14 8 5 6 3 3 8 12 20 11 11 5 3 9 10 4 5 3 6
22 22 23 23 20 10 8 3 5 15 29 25 23 25 25 21 18 11 13 12 13 15 13 11 8 12 24 20 15 9 7 5 4 3 4 10 7 13 10 5 5 8 7 6 4 4 7
24 22 22 23 19 11 7 6 11 16 23 29 25 19 17 12 13 11 12 13 13 10 9 10 10 16 26 17 13 8 7 6 6 6 4 8 5 5 6 4 3 4 2 5 8 7 4
23 22 22 18 17 12 8 9 14 16 17 22 14 16 19 11 10 14 15 13 15 13 14 9 9 20 13 22 11 8 6 6 8 4 10 8 10 3 6 2 3 3 4 5 2 4 5

GFSGBSN_700_spd_030.txt.gz
Wind_Speed
28 28 29 28 28 27 28 31 26 29 25 25 27 22 25 23 23 21 19 18 18 19 17 15 14 13 14 17 19 22 16 11 7 12 19 20 22 23 26 24 26 30 31 33 37 38 38
29 29 30 31 31 30 28 30 29 34 28 25 26 24 23 25 24 23 21 19 19 19 18 17 14 13 13 14 15 20 19 18 17 16 14 16 17 17 21 22 25 27 25 29 35 38 39
32 33 34 35 34 33 32 32 31 37 32 25 23 26 24 25 25 24 23 21 21 21 20 18 16 14 12 9 11 13 16 18 17 16 16 17 16 18 20 21 24 27 29 30 33 31 32
35 36 36 36 37 38 36 34 34 36 42 40 23 26 25 24 25 25 24 22 23 23 21 21 19 18 17 15 13 12 14 16 16 16 17 19 23 24 26 23 19 17 22 26 24 25 30
39 39 37 37 38 37 38 40 36 36 37 47 39 26 29 23 24 25 25 24 24 23 22 23 21 19 19 19 17 18 17 17 17 18 19 21 23 23 25 21 19 21 21 18 17 16 20
42 40 36 35 35 36 36 37 40 36 36 39 45 34 26 26 25 26 27 26 27 24 24 24 22 18 19 14 13 12 12 16 20 20 21 22 23 24 21 21 16 15 19 19 17 18 21
49 49 46 37 32 32 34 34 37 40 36 36 42 47 25 29 28 28 32 27 26 26 26 23 9 4 10 9 11 12 11 14 16 21 22 24 27 31 28 25 27 25 22 22 20 16 24
50 50 45 38 40 36 29 30 28 28 29 32 37 47 32 35 29 29 29 30 27 23 20 21 22 22 23 22 22 21 19 20 20 22 22 25 32 27 26 28 28 29 30 33 36 34 35
49 46 42 39 39 37 29 23 21 24 24 24 30 41 43 37 30 34 31 21 26 22 21 22 21 20 21 24 26 23 21 20 19 20 20 25 21 8 20 28 30 32 34 34 35 31 33
47 44 40 41 43 37 35 26 27 28 27 26 21 38 44 31 31 35 35 30 23 15 11 12 17 21 25 27 29 23 21 19 21 20 16 21 26 29 29 28 22 31 28 26 27 23 14
45 41 38 43 42 38 30 26 24 29 29 28 28 29 52 36 34 41 34 19 13 12 2 8 16 17 17 20 14 7 10 20 22 20 20 20 16 11 25 33 27 25 23 20 16 20 25
43 39 40 43 41 36 23 22 24 25 29 26 27 25 43 39 40 39 33 22 18 10 7 8 11 13 14 16 12 9 10 11 15 21 25 28 27 28 24 19 19 27 19 18 18 19 15
40 38 41 41 38 32 27 24 23 37 19 24 21 23 46 35 37 35 36 30 19 8 7 8 13 16 16 15 12 11 11 16 13 13 22 24 29 33 31 27 26 20 15 4 7 8 8
38 38 41 40 36 34 27 23 31 38 17 13 12 23 34 46 25 39 37 36 7 11 13 9 13 15 15 11 11 13 13 19 22 25 17 9 10 15 25 29 25 26 32 10 5 4 4
38 38 40 38 35 32 19 24 36 33 13 8 7 25 32 39 28 40 39 33 16 14 27 12 16 16 12 10 9 7 16 22 23 26 18 8 11 15 20 17 21 20 30 35 20 17 5
37 36 37 36 34 29 17 21 29 34 19 7 9 13 29 24 28 43 43 22 22 14 12 19 17 10 9 7 9 9 10 5 12 16 20 12 16 16 21 17 22 31 19 11 21 5 5
36 33 34 34 32 26 15 20 26 33 21 7 12 15 33 29 32 38 37 23 25 22 15 16 13 11 8 6 10 12 8 7 7 7 13 17 16 9 8 17 27 27 34 20 12 10 4
35 31 32 33 32 25 13 19 24 28 18 3 7 16 19 16 38 45 32 27 23 21 19 14 9 11 12 12 11 15 19 18 7 10 13 14 13 19 30 29 27 29 35 39 21 9 15
32 30 31 30 31 22 12 17 23 27 16 15 13 16 20 22 33 41 32 33 29 22 19 15 11 8 8 11 9 14 17 12 20 16 6 8 11 10 8 10 28 32 41 42 44 28 26
32 29 28 27 30 19 10 17 22 28 8 13 17 14 30 37 38 43 34 32 25 21 19 21 19 18 17 15 16 10 12 8 8 9 16 20 23 24 21 27 18 18 32 40 45 30 32
31 27 24 26 28 20 10 14 21 24 11 17 23 16 35 42 25 35 37 26 30 27 22 20 17 18 15 15 16 21 22 12 9 8 15 19 28 33 43 45 44 45 33 29 36 52 29
28 25 24 25 27 22 8 11 18 13 9 11 11 9 37 8 40 33 31 28 20 23 23 21 18 10 14 18 19 5 11 20 17 13 15 24 32 32 44 45 39 42 44 43 41 34 39
25 23 23 24 26 21 10 7 10 9 15 11 12 13 33 12 33 34 29 30 24 17 17 18 14 13 12 11 13 15 12 11 12 13 22 28 27 20 23 29 31 10 16 24 32 28 29
23 22 22 23 24 19 8 4 4 5 9 13 8 17 30 16 21 25 24 23 21 21 15 9 9 10 9 9 11 15 23 20 18 19 23 29 29 18 19 22 4 19 25 7 19 23 22
27 23 23 24 23 18 9 2 1 5 12 12 12 15 21 19 14 17 26 18 8 14 18 17 14 15 10 9 3 4 7 15 23 23 25 20 24 10 7 15 15 20 23 19 12 4 11
27 24 23 24 22 17 8 2 4 10 17 16 15 8 12 9 12 8 10 15 15 11 14 16 16 12 16 14 9 4 5 4 4 5 5 8 12 18 11 5 4 18 17 14 14 16 12
26 24 22 24 22 15 8 4 5 10 13 20 18 16 14 11 8 10 13 12 12 15 15 11 13 13 18 21 16 7 5 5 4 3 5 5 10 17 11 5 7 14 11 11 8 5 3
24 22 21 23 19 14 8 5 7 11 17 21 20 19 13 18 12 12 11 9 12 14 14 8 5 12 22 24 13 10 9 7 7 8 4 5 3 4 4 5 4 11 5 5 6 6 2
23 21 21 23 21 14 8 7 8 15 13 24 22 17 15 15 10 13 10 13 15 15 10 13 5 14 14 18 14 8 8 6 7 4 4 5 8 4 5 2 4 7 5 5 6 8 7

GFSGBSN_700_spd_033.txt.gz
Wind_Speed
30 30 31 31 32 34 33 32 30 31 32 27 27 24 23 23 26 22 21 22 19 17 17 15 14 13 15 17 20 14 6 6 8 16 21 20 19 21 22 23 26 27 27 29 32 34 35
33 35 36 36 35 34 35 36 35 32 32 32 31 23 25 23 25 26 22 23 20 19 19 17 15 13 13 14 14 17 17 17 18 11 12 18 21 21 23 22 26 26 24 26 30 33 36
38 40 40 38 37 36 37 35 36 37 35 35 42 35 27 23 24 26 25 23 22 20 20 18 16 14 12 12 9 13 12 13 15 16 16 16 17 18 18 17 22 22 25 27 29 29 34
41 42 41 38 37 36 34 36 39 37 35 36 38 42 27 28 23 24 27 23 23 22 21 20 17 15 14 14 11 11 10 10 11 13 15 16 18 17 18 19 17 16 19 23 21 23 27
46 47 48 42 37 33 33 34 36 39 35 33 37 41 47 25 25 25 25 24 24 24 22 21 18 16 15 17 16 16 15 13 13 14 17 19 21 22 24 22 22 21 21 19 19 17 20
51 53 51 51 48 42 37 33 31 33 33 33 33 37 39 44 28 24 25 25 24 25 23 23 18 14 17 12 15 18 17 17 18 18 19 20 22 22 20 21 17 16 20 22 20 18 21
51 52 51 50 50 43 40 39 34 29 29 23 26 32 36 33 35 29 29 33 30 28 27 20 6 21 12 10 17 15 12 13 15 17 19 21 24 26 21 20 21 23 20 20 20 18 28
50 50 50 49 48 45 44 42 34 23 21 21 21 19 35 33 43 32 35 39 29 22 18 21 24 19 14 13 11 10 13 14 15 17 19 21 26 22 22 22 23 24 27 30 28 27 29
49 48 48 47 44 39 44 40 32 24 23 24 24 22 21 32 37 34 35 34 27 19 19 20 18 19 22 22 20 20 21 19 18 19 19 23 15 6 12 19 25 28 31 32 34 31 33
49 48 46 41 42 41 42 37 26 23 21 22 25 23 22 26 39 36 37 33 23 20 8 11 21 23 23 23 24 23 23 21 20 18 16 18 22 25 24 24 19 27 26 24 23 19 12
48 47 44 37 41 41 37 33 26 22 24 20 29 18 23 29 37 36 34 39 26 16 1 9 17 18 23 26 17 12 16 22 23 19 17 10 7 7 12 10 14 24 23 20 22 20 23
48 48 39 37 41 39 34 29 27 25 28 36 19 16 18 34 40 32 34 33 27 13 6 9 13 16 16 18 16 14 12 15 16 16 19 21 22 23 19 14 17 15 18 19 20 21 14
48 45 38 36 38 37 33 22 16 28 34 29 13 16 20 30 46 28 39 39 21 8 10 9 13 17 17 19 14 10 13 18 12 10 15 18 21 23 24 24 22 22 10 3 6 8 8
49 44 37 34 36 36 32 18 21 25 34 27 5 7 17 18 46 17 49 46 5 16 16 10 14 19 15 19 16 13 12 15 18 15 12 7 7 11 14 17 16 21 28 11 6 5 5
50 45 33 33 34 34 30 17 17 23 30 23 9 5 12 15 37 34 39 22 8 20 22 14 19 24 14 18 9 14 17 17 17 24 14 7 8 9 9 10 12 13 27 26 25 28 16
52 43 31 32 33 32 31 18 16 24 31 23 8 7 10 32 29 40 34 17 12 16 23 14 12 14 17 15 12 10 9 5 10 18 19 10 10 9 10 17 22 28 14 10 20 5 9
51 36 32 31 31 29 30 17 15 24 30 22 2 5 7 30 36 37 28 20 20 17 10 22 10 13 11 13 10 10 7 4 4 4 14 17 13 9 16 15 21 24 32 25 22 19 6
44 34 30 28 26 29 27 13 14 22 28 19 9 6 12 32 34 43 30 22 22 20 15 15 14 8 7 7 9 13 13 9 4 8 11 12 8 15 30 31 28 28 31 36 21 16 15
39 33 28 26 26 29 23 11 15 20 26 9 12 13 17 24 35 34 28 23 20 20 18 16 11 9 10 8 5 9 10 8 15 14 4 8 10 8 12 10 17 29 36 44 44 35 30
39 31 26 25 26 28 22 12 17 24 6 11 20 12 20 15 19 33 28 30 24 20 17 13 12 11 10 10 11 7 8 4 8 9 17 17 21 24 20 31 26 24 34 40 43 31 34
38 27 24 24 25 26 21 10 15 17 5 15 8 13 22 22 23 35 25 28 25 21 19 15 16 19 16 11 9 15 16 13 9 8 11 17 26 31 39 42 45 49 51 47 43 48 33
35 30 24 24 24 24 18 8 11 16 11 5 9 10 10 7 19 27 30 28 23 18 18 17 18 12 9 16 13 3 7 12 15 16 15 19 26 28 45 37 31 38 32 34 38 45 41
32 29 24 24 25 23 18 5 5 11 10 9 12 4 12 17 25 26 29 31 22 12 14 18 17 17 14 11 10 9 18 13 11 14 17 15 19 21 26 32 41 12 28 26 17 26 31
33 29 24 23 24 20 15 4 3 3 10 8 7 12 16 16 12 28 22 25 17 18 14 12 9 12 11 7 8 10 17 21 19 21 22 23 27 24 24 28 4 25 27 24 12 6 10
36 27 22 21 23 15 10 4 5 6 9 9 6 11 10 11 12 16 24 18 18 16 17 16 15 13 10 10 3 5 6 14 20 22 23 26 26 15 7 15 22 12 30 25 18 19 11
37 27 22 20 23 14 7 4 8 11 10 8 9 6 13 11 9 5 14 16 16 9 10 12 10 16 12 12 8 5 5 4 3 2 3 3 10 20 13 6 4 15 23 15 8 19 16
38 27 22 20 21 15 7 6 6 11 14 11 13 7 9 9 8 10 8 6 9 10 13 14 11 13 16 17 16 10 7 4 2 3 3 3 8 17 17 7 11 14 18 10 12 8 7
39 28 22 20 21 17 8 6 8 11 14 23 15 14 14 8 9 8 7 6 7 9 11 11 8 13 14 18 16 10 7 6 7 7 5 6 6 4 4 5 7 15 9 12 11 9 4
39 31 23 21 21 18 8 7 9 16 12 24 18 16 17 8 11 12 10 12 12 11 14 12 7 6 11 15 12 10 7 6 8 4 5 5 8 3 5 6 8 10 9 11 12 13 8

GFSGBSN_700_spd_036.txt.gz
Wind_Speed
29 32 34 35 36 35 34 32 32 35 35 31 32 31 28 29 24 24 25 23 22 19 18 19 17 16 17 18 22 11 9 21 25 26 23 21 21 21 20 20 23 23 25 28 30 30 30
31 34 36 38 40 40 38 36 32 29 35 35 32 33 33 25 27 24 25 22 23 21 19 20 19 17 17 17 16 21 19 13 13 16 25 26 24 21 20 24 24 23 25 28 30 31 33
36 36 37 38 40 41 39 38 35 29 30 36 32 33 37 40 23 25 27 26 24 23 21 20 20 19 17 16 15 19 18 21 22 17 14 19 22 19 22 22 24 23 24 26 29 29 32
41 44 46 49 46 47 45 38 33 32 29 34 32 32 37 40 41 31 24 26 25 24 21 21 21 19 17 18 15 13 14 16 17 17 14 17 15 18 19 20 14 12 16 13 19 22 25
44 48 51 53 54 49 40 37 33 30 30 32 37 30 33 35 35 34 26 25 24 22 24 23 21 19 18 20 17 15 14 13 14 16 17 17 20 21 20 15 12 13 12 14 16 18 20
45 47 50 52 53 52 39 33 32 35 29 27 27 20 25 32 35 34 27 24 26 22 22 22 22 17 17 20 19 18 17 17 16 17 17 18 20 20 20 19 11 9 15 14 15 9 19
46 47 48 49 50 49 44 38 40 39 30 23 20 19 17 20 34 38 30 33 35 31 31 23 11 23 10 21 12 15 18 18 18 18 19 20 20 21 17 19 17 15 12 15 15 16 26
47 49 50 50 49 46 39 41 35 32 28 22 20 20 19 20 25 33 38 38 40 25 20 20 22 9 21 12 16 18 16 16 16 16 17 18 20 15 18 19 20 19 20 22 21 18 21
49 50 50 48 47 41 40 38 33 27 25 20 20 18 21 19 22 37 46 36 33 30 17 17 20 23 18 15 13 13 17 16 14 16 15 17 11 6 11 18 19 20 22 21 22 22 25
50 50 49 47 36 38 37 36 31 24 22 20 24 17 19 19 28 29 45 25 38 30 13 15 23 22 25 25 21 22 20 18 18 14 14 14 20 22 21 19 19 18 17 18 16 12 11
51 52 50 46 34 34 35 35 28 23 18 27 27 33 14 23 24 24 33 31 37 26 7 12 23 22 24 25 16 22 23 21 19 17 16 9 8 8 17 12 11 13 13 10 11 16 21
52 51 49 43 32 32 33 34 29 20 19 28 35 17 14 22 20 24 28 26 34 15 6 15 22 23 25 29 23 14 18 18 19 19 21 18 18 17 15 11 12 13 12 11 13 12 11
54 54 50 33 30 32 32 33 30 19 20 25 35 17 15 20 13 30 25 33 27 5 13 15 22 23 20 25 22 18 16 18 12 12 16 13 21 21 20 17 17 15 10 3 4 7 8
56 56 41 31 31 32 33 30 27 17 21 28 29 11 9 10 16 34 35 43 9 11 13 14 22 23 18 21 19 16 16 19 19 13 6 6 5 14 12 15 7 15 19 8 6 6 9
58 48 36 34 32 31 29 31 20 15 22 25 22 4 5 14 19 27 40 28 9 23 19 23 26 24 18 23 17 19 18 18 16 20 11 7 6 10 9 7 13 11 21 19 25 31 22
57 45 34 32 30 28 29 28 15 13 20 28 7 2 9 15 19 29 41 14 10 23 20 23 13 16 15 28 14 19 14 6 16 18 22 7 7 11 17 17 20 20 9 7 13 6 10
57 44 32 29 28 27 30 24 10 15 24 23 2 5 12 23 24 21 23 18 22 20 21 12 12 16 13 23 14 15 7 4 9 8 16 16 14 5 13 15 16 20 28 22 16 17 6
56 44 28 28 27 29 29 19 13 20 26 5 7 2 15 25 28 26 14 23 20 22 18 14 11 12 14 13 15 10 9 10 9 11 13 16 9 13 19 18 19 19 23 24 20 17 24
54 42 28 26 27 29 25 14 16 21 10 3 3 15 26 25 20 26 14 22 20 19 17 14 12 10 11 13 5 9 6 11 13 10 6 14 10 6 6 3 6 18 25 34 41 39 37
52 41 30 24 26 28 21 15 20 14 4 8 10 16 25 19 21 19 16 21 22 16 14 13 12 9 9 8 6 4 6 6 10 11 17 9 12 14 15 22 21 28 41 41 37 36 43
50 42 31 22 24 25 20 12 14 6 13 11 12 16 13 13 17 23 22 22 20 16 13 13 10 8 6 5 6 12 13 11 6 9 13 16 18 21 29 34 39 39 42 45 43 50 39
48 42 31 22 22 22 16 9 9 7 9 12 15 12 9 7 14 27 20 23 19 17 13 11 7 6 9 8 10 5 8 11 11 15 14 16 18 21 35 25 20 36 32 22 26 23 31
47 42 32 21 22 15 10 6 5 3 5 14 12 10 6 8 17 25 22 22 19 14 9 11 11 13 16 10 7 11 13 10 9 12 16 19 20 14 15 23 36 9 23 26 21 16 16
46 43 33 23 20 15 6 0 2 4 6 9 5 12 7 11 13 20 20 19 17 12 11 6 7 10 10 7 4 5 12 17 19 19 18 15 14 16 18 20 4 12 25 25 18 15 5
45 42 34 25 19 16 4 3 5 5 8 8 7 10 4 7 10 12 14 14 19 16 14 14 11 9 7 5 6 3 4 8 11 15 20 21 22 11 6 9 21 11 28 25 15 18 11
44 42 36 27 19 15 2 6 9 10 10 6 3 6 9 6 9 9 20 13 17 17 12 11 8 6 12 10 6 4 3 4 2 3 5 9 20 28 10 4 4 11 20 18 12 14 15
42 42 37 29 20 14 7 7 13 13 10 9 9 7 11 8 6 9 16 12 9 13 10 9 12 8 10 12 10 6 5 5 2 3 5 6 6 20 22 9 13 10 21 13 6 13 13
42 41 37 30 22 14 8 9 14 13 15 18 15 14 12 8 13 11 9 6 6 7 8 7 9 10 12 15 11 10 9 8 7 8 6 6 5 8 7 7 6 13 13 13 14 12 2
41 41 36 30 23 15 8 11 15 18 23 23 17 15 15 7 10 11 8 6 9 8 9 10 11 8 6 10 13 10 9 7 10 4 6 6 10 4 7 6 12 11 8 11 14 12 5

GFSGBSN_700_spd_039.txt.gz
Wind_Speed
31 32 33 33 35 37 38 37 38 37 36 31 30 31 31 33 31 28 28 24 26 24 23 20 18 19 18 22 20 11 10 22 23 23 20 17 16 14 16 15 14 21 20 17 24 24 28
34 35 34 34 36 39 40 40 39 39 37 35 30 32 29 34 36 35 30 28 27 24 25 22 20 20 19 21 26 20 9 18 26 26 24 23 20 17 15 16 18 7 18 21 22 26 28
37 39 41 43 43 44 45 44 45 44 40 35 31 30 31 32 36 36 33 26 28 28 26 23 21 21 21 20 21 22 23 15 16 23 29 27 24 23 22 18 20 21 24 23 27 28 27
39 41 43 45 48 50 51 50 44 40 34 29 27 31 33 29 35 38 42 25 27 23 26 24 21 22 22 21 22 21 22 26 24 20 18 24 27 28 21 18 15 10 14 17 11 19 20
40 42 44 46 47 49 49 46 44 37 31 29 25 29 30 27 29 37 38 35 26 30 26 23 24 23 23 22 22 19 19 21 22 22 20 21 19 19 21 15 12 14 13 15 15 14 12
40 43 45 46 48 49 50 44 35 35 33 32 26 25 19 17 18 30 34 38 25 34 28 24 25 19 20 24 22 21 19 19 17 19 21 19 19 16 17 16 13 16 17 17 15 9 13
42 44 45 47 49 48 42 34 33 35 28 26 23 19 19 18 17 16 32 30 17 29 31 27 17 29 13 19 24 24 21 19 18 17 14 19 16 20 18 19 19 12 10 13 14 14 22
43 46 47 49 50 45 34 36 36 31 24 23 22 18 16 16 19 22 24 35 25 30 28 25 22 20 25 18 18 24 24 21 20 19 16 17 23 17 14 15 17 16 17 18 19 18 20
46 48 48 50 49 40 32 36 33 28 24 21 18 19 19 19 16 22 25 41 25 28 14 26 24 21 19 16 20 20 20 20 18 18 20 13 7 14 20 16 16 17 18 17 18 19 24
48 50 52 50 43 31 31 31 29 27 23 21 16 23 21 24 19 18 25 36 32 13 11 20 30 29 24 19 15 17 20 17 18 17 15 16 18 17 13 15 13 13 12 14 15 12 9
50 53 55 50 31 30 31 31 28 28 26 17 16 22 26 17 14 16 13 28 35 11 6 14 28 19 26 24 17 20 20 20 13 13 18 8 11 16 15 13 11 9 7 7 9 13 20
52 55 52 37 35 33 32 31 29 28 23 15 21 24 28 15 21 12 17 27 33 9 4 15 25 26 30 26 21 17 25 23 19 13 16 14 13 11 8 8 12 10 6 10 10 10 10
52 55 47 34 36 32 31 29 29 25 15 15 23 25 21 11 10 16 19 23 21 8 10 16 24 28 28 28 20 19 24 25 16 13 17 14 21 14 16 11 11 12 6 2 5 6 8
52 53 45 33 32 30 29 29 27 17 13 18 26 25 12 6 14 28 28 32 9 9 13 14 25 24 20 28 17 17 16 21 18 12 5 9 6 17 16 18 6 15 14 7 5 7 12
52 53 45 30 29 28 29 29 20 11 15 22 23 4 2 12 17 37 25 25 3 17 17 23 26 25 19 23 17 19 19 18 16 17 9 6 4 9 10 7 15 7 17 13 19 25 17
51 52 43 29 28 28 29 24 14 15 23 22 6 2 8 17 17 25 35 6 7 11 17 27 14 16 17 24 15 20 19 13 12 19 13 6 3 6 10 11 14 14 4 5 10 5 10
51 51 41 28 26 27 23 17 13 17 19 11 2 2 11 15 18 19 26 6 13 18 21 8 9 14 14 25 13 20 14 4 14 12 16 13 7 4 9 14 14 18 23 14 12 12 6
49 50 41 30 24 24 17 13 16 20 16 8 4 13 14 22 20 20 15 17 23 24 12 11 9 10 19 21 13 10 9 4 13 11 16 14 6 9 15 12 10 17 18 21 14 11 16
48 47 41 32 22 20 16 14 19 19 13 10 6 21 20 18 16 11 21 22 20 18 11 9 10 11 15 18 8 9 10 11 9 11 10 15 7 4 1 2 14 19 20 27 33 36 35
46 46 42 34 22 18 16 15 18 13 10 10 22 16 19 14 19 13 21 24 23 17 11 11 12 12 14 14 7 9 6 6 11 13 14 11 10 12 12 11 14 18 24 29 30 24 39
44 45 42 35 23 14 14 15 14 11 16 16 19 20 15 14 17 8 14 22 18 10 8 11 11 9 8 5 4 5 7 6 5 11 11 16 16 17 24 24 24 29 29 32 37 44 38
42 44 41 35 24 11 9 9 6 7 9 15 19 10 10 13 14 10 9 9 15 10 6 7 5 6 4 3 3 4 7 10 9 11 12 16 12 13 27 15 16 26 25 22 21 22 27
39 43 40 35 26 10 4 4 4 5 5 7 9 8 6 9 11 14 16 12 12 10 5 8 5 2 5 6 5 8 11 10 8 11 14 14 12 8 9 14 29 10 14 23 22 13 19
38 41 40 34 26 12 3 3 3 4 4 5 6 3 2 5 10 15 11 12 12 11 7 3 6 6 6 7 5 4 7 10 15 14 13 11 11 9 15 19 3 5 17 25 23 11 13
35 38 40 34 26 12 4 3 4 3 3 4 8 4 5 3 9 16 13 14 14 12 10 8 6 5 4 2 1 2 4 7 9 16 21 18 13 7 5 10 21 4 14 29 18 20 6
33 36 39 35 26 15 8 9 9 9 8 6 4 5 5 3 6 8 11 12 13 11 10 7 8 4 5 7 4 3 4 3 2 1 8 16 18 21 8 6 4 6 20 24 16 8 12
32 35 37 35 27 15 9 13 13 13 13 9 7 5 8 4 4 11 15 10 12 12 12 6 7 9 7 10 10 5 5 5 3 4 7 10 15 21 23 10 12 13 22 16 11 14 18
30 33 36 34 28 17 11 15 19 17 15 13 11 7 9 7 9 9 12 8 7 9 10 4 5 10 9 12 9 9 8 5 5 4 5 8 6 7 9 7 8 10 16 14 19 15 9
30 32 35 32 26 19 12 13 22 22 22 19 15 14 10 12 10 11 10 8 9 9 9 10 9 7 6 8 12 8 7 5 7 4 8 7 10 4 8 7 11 14 12 12 17 12 4

GFSGBSN_700_spd_042.txt.gz
Wind_Speed
31 33 33 33 35 35 35 36 37 37 37 37 38 34 32 29 30 32 35 31 28 27 25 22 21 21 19 22 22 13 11 20 22 21 17 14 16 18 17 15 15 20 19 20 22 27 27
32 36 37 38 40 40 41 43 44 42 42 42 42 40 37 31 31 31 36 33 30 28 26 22 21 21 21 22 27 22 9 15 22 25 21 17 13 16 15 14 15 8 19 22 19 24 36
35 37 39 41 42 42 44 45 47 49 47 38 38 36 28 29 31 30 35 38 36 29 27 21 21 22 25 21 22 23 21 12 24 25 21 20 19 16 19 17 20 24 20 19 25 29 30
37 39 40 43 43 43 44 46 47 46 42 34 33 29 28 28 30 29 34 39 38 26 28 29 24 23 27 26 23 19 22 19 16 25 25 23 23 23 23 21 18 19 18 20 20 17 22
38 40 42 45 46 44 46 45 39 36 35 35 33 25 22 24 19 19 28 38 44 32 25 26 24 24 26 26 24 21 18 23 22 17 22 24 24 25 25 23 16 15 13 15 11 14 14
38 41 44 46 47 48 44 34 34 37 37 34 27 22 21 19 15 16 14 30 35 34 24 24 24 22 28 27 24 21 18 22 25 25 23 19 19 19 18 20 12 12 19 15 16 11 16
40 43 47 49 49 48 40 33 35 36 34 28 23 22 19 16 14 17 16 18 29 31 39 34 20 28 16 24 22 21 21 18 17 18 20 21 18 22 20 17 18 16 12 12 11 10 18
41 46 49 53 53 46 31 31 33 32 28 26 21 21 16 16 16 17 19 17 13 21 27 28 17 22 26 15 20 24 23 21 21 22 12 18 22 17 11 14 17 18 17 18 19 17 21
43 47 52 54 46 37 36 34 32 29 26 25 22 16 16 25 16 21 18 13 17 28 9 20 22 26 25 19 22 23 25 21 21 19 18 13 4 7 19 14 18 17 16 15 18 20 26
45 50 53 52 37 37 37 34 31 27 25 23 21 14 15 22 27 13 12 10 23 23 4 23 28 18 22 21 14 17 24 18 17 17 12 12 12 10 8 18 14 10 11 13 14 11 6
46 50 53 50 35 34 33 32 28 27 24 19 12 12 17 20 25 17 4 9 28 18 2 23 30 21 19 24 21 22 23 19 16 16 19 9 12 15 13 13 12 11 10 13 10 11 17
47 51 53 49 33 31 30 28 28 27 20 12 12 16 21 20 12 6 7 10 30 6 5 13 32 24 30 18 17 24 25 22 19 14 14 12 8 11 13 10 14 11 10 11 9 8 7
47 51 53 47 32 29 29 30 27 21 15 16 18 23 25 9 3 10 12 17 11 7 17 16 30 30 32 24 18 26 28 27 14 13 16 18 18 14 14 13 11 12 5 2 4 4 7
47 50 52 47 30 28 28 24 20 15 16 24 26 19 5 1 11 16 19 20 6 7 6 16 28 29 26 25 17 18 21 21 18 11 5 12 5 21 14 22 8 14 11 5 5 2 4
46 50 51 44 28 25 24 18 14 16 19 20 16 5 1 8 13 20 25 14 8 10 18 23 28 29 21 22 17 18 18 16 18 19 9 9 5 7 11 8 16 8 17 3 6 12 8
45 49 49 43 27 22 20 17 17 22 24 20 11 7 5 9 11 16 25 6 5 9 21 30 16 16 19 28 15 20 18 13 15 19 14 6 3 7 11 10 15 9 5 4 5 2 5
44 48 49 43 26 22 21 18 20 25 19 16 11 8 9 10 9 20 14 8 12 19 20 5 11 14 16 28 10 18 15 5 16 16 18 8 8 6 13 12 15 20 16 8 5 7 3
42 46 47 42 26 21 20 20 23 19 18 13 5 11 12 13 14 20 16 8 23 19 12 12 8 13 19 23 15 13 14 1 14 14 21 13 6 8 15 8 4 13 12 15 8 6 12
40 44 46 41 27 19 20 21 23 20 19 8 16 20 17 10 11 22 13 15 20 17 11 9 11 8 20 20 14 8 14 12 19 19 10 16 7 3 5 4 14 14 15 23 26 29 26
38 42 44 40 27 16 16 16 19 22 14 16 11 10 13 8 11 16 20 18 17 17 14 13 16 19 18 10 8 11 10 10 13 19 14 10 8 8 5 5 5 12 17 20 25 21 29
35 40 42 39 28 13 13 13 16 17 13 10 12 12 10 12 9 18 15 18 16 12 15 17 13 14 15 6 10 8 8 7 8 15 16 14 10 11 18 19 17 20 24 23 28 33 33
32 36 40 39 29 12 9 9 12 13 12 10 15 10 8 7 8 10 21 19 12 13 8 10 15 14 11 9 4 10 11 7 6 9 13 16 7 9 18 8 6 17 20 18 18 22 29
30 33 38 39 32 13 6 6 8 7 8 7 4 9 6 9 11 8 8 6 8 6 7 10 8 6 7 4 2 3 6 5 6 8 11 9 4 7 6 8 16 11 4 13 22 23 24
28 31 34 37 34 18 4 2 4 5 2 4 5 6 6 8 10 9 9 11 6 5 5 5 5 5 2 3 4 3 2 4 10 11 8 7 7 7 10 10 2 1 14 14 23 18 13
26 28 31 34 34 23 7 3 4 2 2 2 4 3 8 9 7 14 13 9 9 9 5 3 2 1 2 1 3 2 3 4 3 13 16 12 10 4 3 8 15 5 6 22 23 14 21
25 27 30 31 33 26 12 8 7 9 7 3 4 3 4 7 6 12 11 11 8 7 5 5 4 3 2 4 5 3 4 1 2 1 8 18 16 12 2 3 3 1 15 25 18 6 24
24 25 29 30 32 28 17 9 13 11 13 10 8 6 6 5 5 10 9 10 11 11 7 7 5 6 5 2 5 2 2 5 3 5 10 18 18 22 20 7 11 11 14 19 9 14 27
23 24 29 30 32 29 19 14 14 16 16 13 9 6 12 3 5 11 13 10 10 8 8 3 5 6 5 3 4 4 5 5 5 6 6 14 11 8 11 7 8 10 17 17 21 21 18
23 25 28 30 31 27 21 17 14 17 20 18 15 10 9 10 10 13 15 11 9 10 11 8 5 2 2 3 6 6 8 7 7 4 12 8 8 5 8 3 9 11 17 17 17 15 9

GFSGBSN_700_spd_045.txt.gz
Wind_Speed
31 32 34 35 37 40 41 41 40 43 45 46 41 41 41 39 35 30 31 32 33 31 28 27 22 22 21 24 22 12 14 16 17 19 14 13 21 22 24 25 26 27 26 21 20 28 31
32 34 36 38 39 42 44 46 46 46 45 47 43 38 35 34 32 30 31 33 34 34 31 26 25 23 23 24 21 23 10 19 22 22 18 17 16 19 17 15 21 16 17 21 27 28 34
35 37 38 39 42 45 48 48 47 45 41 31 32 35 35 30 25 26 29 32 34 36 31 25 28 26 27 19 21 22 19 12 25 25 22 18 17 22 19 19 19 20 18 21 30 30 32
37 39 39 41 44 47 49 48 43 32 35 38 37 37 34 25 23 20 22 26 32 35 34 25 31 27 28 24 23 20 22 20 11 25 24 24 22 19 19 19 17 20 20 24 19 19 22
38 40 42 45 49 50 49 48 34 35 39 37 34 32 25 22 20 17 15 17 25 33 30 25 35 29 26 26 24 22 17 21 15 21 27 26 27 26 22 22 19 19 20 18 12 11 15
39 41 43 48 51 52 48 37 35 33 33 30 27 25 20 20 17 15 15 16 15 34 32 21 26 26 28 29 23 22 20 21 22 16 23 26 22 22 20 21 16 19 15 13 15 10 16
39 42 45 50 52 49 35 37 38 33 30 27 24 23 21 19 17 17 15 12 13 28 38 28 22 33 13 15 22 23 21 22 26 26 21 21 25 27 22 23 22 17 9 13 16 7 16
40 44 49 52 52 43 32 34 33 30 28 24 22 21 17 13 16 16 15 11 10 20 27 28 12 23 11 23 23 24 24 25 24 23 23 22 20 17 13 12 9 13 18 19 19 17 19
41 45 49 52 52 39 31 29 28 27 27 25 18 14 10 12 18 18 7 7 15 12 21 28 18 23 22 18 19 27 26 23 20 22 21 24 15 17 16 16 16 20 21 20 19 22 24
41 45 50 52 50 37 29 27 26 27 26 19 11 11 13 16 17 20 2 6 22 24 5 26 29 26 24 20 21 23 24 21 23 24 18 11 12 9 21 20 18 16 16 13 13 13 9
42 46 50 51 47 33 26 25 25 23 18 15 14 14 14 17 23 9 5 7 22 18 1 29 29 21 26 24 23 29 25 19 21 21 18 11 11 14 11 11 16 10 9 11 14 15 19
42 46 49 50 43 29 23 21 20 17 16 15 19 17 21 19 17 7 8 5 16 9 4 15 24 29 33 15 22 34 28 21 18 17 16 10 11 13 14 9 14 10 13 12 9 9 5
41 46 49 50 42 29 21 21 19 18 20 22 26 20 11 5 7 12 11 11 12 4 2 22 29 34 29 24 22 36 30 28 19 17 19 21 16 11 8 11 15 11 6 2 1 2 7
40 45 48 49 44 28 21 19 19 22 27 23 18 12 8 2 10 15 16 17 4 6 12 22 32 34 27 24 27 29 27 29 18 13 20 15 5 15 12 16 8 17 8 4 4 3 4
39 44 47 49 44 26 23 22 21 24 18 18 11 12 8 9 11 14 18 3 3 2 20 31 35 32 23 20 19 25 24 29 24 16 5 7 3 2 4 14 14 10 13 5 3 7 3
38 42 45 47 41 25 24 23 23 19 16 13 7 10 10 8 10 15 8 4 1 8 24 29 22 19 24 21 17 19 20 17 18 21 10 9 5 4 9 7 18 5 6 6 5 2 5
36 40 44 45 38 23 22 22 20 20 15 11 15 13 13 10 6 10 6 1 8 20 20 8 13 15 26 22 14 17 16 2 16 19 15 8 6 7 12 12 13 20 13 6 5 6 4
34 39 41 44 36 20 19 21 22 23 15 5 11 16 13 13 7 13 1 13 27 16 16 10 9 15 23 22 19 13 14 2 15 14 23 11 6 8 16 4 3 13 20 17 7 4 11
33 37 39 42 34 17 17 22 24 18 20 17 21 20 14 8 4 6 9 20 21 18 10 8 13 13 21 22 14 12 15 9 15 16 20 18 7 5 4 7 13 15 17 18 20 22 23
29 34 36 40 34 15 15 19 19 21 17 15 13 13 11 11 9 6 19 11 20 18 14 15 18 23 24 13 7 14 16 13 18 18 12 11 7 6 8 6 6 13 15 17 20 15 28
27 31 34 37 34 15 11 14 13 14 16 11 15 9 8 12 16 15 11 14 17 22 25 20 18 18 16 11 13 14 9 16 19 23 13 14 8 12 15 16 18 18 20 21 25 33 27
25 28 30 34 34 18 9 7 6 12 14 11 5 9 10 15 12 16 20 18 14 13 16 19 20 15 8 12 5 14 11 12 9 20 19 18 8 9 11 5 7 13 13 18 20 22 30
22 25 28 31 32 24 6 2 3 5 6 4 3 6 7 11 16 14 14 7 10 10 12 14 12 10 8 6 5 4 5 5 5 7 14 11 7 3 4 3 12 11 3 4 12 19 17
20 22 25 28 29 26 10 2 5 7 4 3 5 5 9 11 12 13 10 7 10 7 10 10 7 6 5 3 4 5 5 6 7 6 7 10 8 3 6 8 1 5 8 7 19 19 12
19 20 22 25 28 27 19 6 8 10 7 5 7 5 5 10 13 13 12 9 7 7 9 8 5 4 4 3 5 4 3 3 6 11 10 8 6 3 3 7 11 5 5 14 20 18 7
19 19 21 23 25 28 23 13 12 14 12 8 9 7 8 8 10 15 14 12 10 8 7 4 4 4 4 4 5 4 4 2 4 5 14 12 11 9 1 3 3 7 10 17 15 6 25
19 19 20 23 23 26 27 17 12 17 17 14 11 12 10 10 11 15 14 16 13 11 6 6 4 6 6 1 6 4 3 3 3 7 12 20 19 19 17 7 11 2 8 14 7 14 26
19 19 20 23 24 24 26 22 13 14 19 18 15 14 13 9 10 16 11 13 13 13 10 5 5 5 5 5 4 4 4 4 4 7 8 12 11 10 13 7 9 4 12 12 17 19 19
20 19 21 24 26 26 26 23 16 12 18 19 16 12 12 11 10 15 17 13 14 12 10 7 4 2 3 3 2 3 5 5 5 4 12 9 11 4 9 3 5 8 11 10 12 14 14

GFSGBSN_700_spd_048.txt.gz
Wind_Speed
30 32 34 35 37 39 41 44 47 48 48 43 36 27 32 28 31 31 29 31 35 33 35 33 22 28 29 27 23 11 13 20 21 23 20 24 27 27 30 33 31 38 34 34 31 27 30
31 34 36 36 38 41 44 46 48 48 43 33 33 34 37 38 32 32 25 28 29 32 35 36 27 31 31 31 18 20 10 17 21 25 21 24 22 22 25 25 31 25 33 28 28 31 34
33 35 36 37 41 45 48 49 50 45 37 34 36 35 35 32 30 26 23 22 27 33 33 35 28 28 34 22 22 21 16 16 21 23 23 19 18 23 18 17 19 24 15 21 26 29 33
34 35 37 39 44 47 51 51 40 37 36 32 30 29 27 25 22 19 19 17 15 20 30 38 29 29 34 21 23 23 26 16 23 26 22 20 21 23 18 15 16 17 21 23 22 21 24
34 36 39 41 46 49 50 43 32 35 32 28 27 25 23 19 18 20 17 16 14 14 28 40 35 31 28 25 27 21 24 23 15 25 27 26 26 27 20 23 14 21 16 19 18 16 23
34 37 40 45 48 50 49 37 30 27 24 25 24 23 19 17 18 19 17 13 13 12 24 32 33 26 27 26 24 24 19 25 22 20 27 28 24 31 27 27 18 17 22 22 19 17 17
35 37 42 46 49 50 44 31 23 22 23 24 24 18 16 16 14 17 19 11 11 9 31 32 23 29 18 17 25 27 23 23 24 19 23 31 21 26 31 22 21 12 13 14 17 15 22
35 38 42 47 49 48 38 26 22 23 24 24 18 14 13 11 9 13 23 10 8 9 32 25 15 25 14 26 30 27 28 26 28 24 21 24 26 15 15 15 12 13 19 20 19 20 23
36 39 43 48 50 46 34 25 21 22 21 18 15 14 14 13 14 14 15 6 9 11 17 28 13 22 18 21 28 34 31 27 26 25 24 20 14 19 15 13 14 13 14 18 21 22 25
37 40 44 48 50 44 31 22 21 19 19 17 15 16 17 21 15 14 10 4 7 16 10 13 18 26 25 24 25 29 29 25 27 24 19 15 16 16 16 17 16 14 17 20 22 18 10
37 40 45 48 50 41 27 19 20 19 18 19 22 24 23 19 22 11 5 6 10 16 5 15 21 23 26 26 28 33 29 25 25 26 18 9 20 16 17 22 16 15 15 13 13 15 19
37 41 45 48 49 36 26 22 22 21 21 27 23 22 15 13 15 7 6 4 9 4 3 14 20 36 30 14 34 36 27 21 20 21 16 8 13 16 13 12 17 16 13 11 13 12 5
39 41 45 47 47 32 27 26 24 22 25 21 22 14 9 7 3 8 12 10 7 2 4 22 32 35 28 28 28 33 26 27 18 19 16 13 10 12 11 13 14 16 10 1 2 1 6
35 40 44 46 45 29 28 28 25 23 20 19 15 11 8 6 9 10 17 10 2 5 7 15 37 33 25 23 30 32 27 28 18 14 23 15 7 16 11 17 9 18 10 3 4 3 4
36 38 42 45 43 26 27 26 26 22 17 18 12 11 13 11 11 14 11 7 2 8 11 32 39 30 28 24 27 28 26 26 20 16 9 15 5 6 6 17 14 14 10 8 3 5 2
35 37 41 42 40 25 26 29 27 19 17 11 11 14 13 12 10 12 5 5 5 6 35 40 21 18 20 22 23 21 24 23 21 18 11 10 7 7 9 14 15 8 10 6 5 1 4
35 35 39 40 38 23 26 31 27 20 13 14 13 19 16 13 10 8 8 7 12 16 33 16 9 16 22 21 18 21 20 5 28 19 10 13 5 12 12 11 21 19 10 6 4 4 3
33 34 36 37 36 20 23 25 30 28 22 18 16 21 13 13 10 10 11 5 20 19 18 13 5 21 22 19 17 14 16 2 20 20 19 14 8 8 17 4 7 12 19 14 5 3 6
30 32 34 34 33 17 19 17 21 24 17 17 20 18 13 8 8 15 14 15 17 14 10 12 9 12 21 20 13 10 15 7 15 16 21 16 6 5 3 12 16 15 19 21 19 15 15
25 28 30 30 31 13 13 14 17 16 15 14 18 15 13 9 14 20 19 23 18 14 8 9 12 13 27 15 8 16 18 12 16 15 18 10 9 5 7 4 7 12 14 16 20 11 12
23 26 27 26 27 14 6 10 13 12 12 10 12 10 7 9 13 7 16 20 19 21 22 21 18 25 20 10 12 17 18 17 18 18 16 13 7 12 13 10 10 12 13 15 24 28 26
19 22 25 24 23 18 6 2 3 9 7 6 7 9 9 12 10 17 17 15 14 15 15 19 21 11 8 15 7 19 17 19 14 21 17 16 7 8 9 11 16 22 24 24 26 28 35
17 21 22 22 20 19 9 7 7 7 5 4 4 8 8 15 19 15 13 11 12 14 14 13 11 9 11 7 8 6 9 13 7 12 21 15 9 5 3 4 8 13 10 15 12 17 21
16 20 20 20 20 18 14 12 10 11 10 10 9 10 14 19 15 12 9 7 9 6 13 12 10 8 7 6 7 7 5 5 5 7 9 10 10 5 4 5 1 5 2 3 10 15 14
15 21 20 19 19 20 16 12 14 14 15 10 9 7 15 17 15 14 11 9 9 8 11 9 7 6 6 5 7 5 5 4 7 7 8 6 8 2 2 5 11 3 4 6 14 13 5
15 22 20 20 17 19 20 15 11 17 18 18 13 13 13 13 18 18 12 10 8 7 8 10 7 8 7 7 6 5 4 4 5 5 12 10 9 6 1 2 3 4 4 8 10 3 20
16 21 21 20 18 19 19 20 16 13 21 22 18 16 12 14 14 18 17 14 9 9 6 5 5 6 9 5 6 5 4 4 5 7 12 17 14 15 12 6 9 6 6 8 3 10 17
16 18 21 22 20 21 20 20 21 16 16 26 23 19 16 17 15 18 21 19 16 14 9 6 7 7 7 6 4 4 5 6 5 6 5 16 11 9 11 6 9 5 7 7 10 12 16
16 18 21 23 22 23 24 23 21 16 15 23 27 24 19 20 13 17 19 16 19 14 12 11 7 2 5 6 4 4 5 5 7 5 11 7 10 3 9 3 5 9 6 8 10 9 12

GFSGBSN_700_spd_051.txt.gz
Wind_Speed
31 32 33 32 34 37 40 44 46 47 47 41 35 31 31 36 37 37 35 35 27 32 33 30 36 34 26 33 29 9 14 22 26 27 29 28 32 33 33 36 35 39 37 36 35 31 34
31 33 34 33 36 39 43 46 48 48 37 31 30 27 29 28 29 27 26 28 23 26 30 29 37 41 25 34 17 24 12 20 26 26 26 29 31 28 26 28 34 30 35 33 32 32 32
33 34 34 35 38 41 45 48 48 39 32 28 25 26 27 25 24 23 22 19 18 21 21 30 38 43 28 25 19 25 18 15 24 26 25 24 22 27 23 26 22 31 15 32 33 28 30
36 36 36 37 40 44 47 48 46 32 27 24 23 25 24 21 20 17 17 18 18 15 11 28 40 43 28 27 23 21 21 21 27 27 23 19 21 24 19 16 15 16 23 17 26 30 29
36 38 37 39 43 46 48 48 39 27 23 22 23 24 20 17 15 17 17 15 16 14 12 24 41 41 23 26 26 24 29 20 25 26 27 25 25 24 21 16 15 20 14 27 21 21 20
38 40 41 42 45 48 49 45 32 24 24 23 25 24 18 18 14 13 14 19 13 9 10 20 37 31 21 24 22 24 29 25 22 29 29 27 30 27 29 26 21 17 21 17 20 15 21
39 40 41 43 47 50 52 40 27 24 24 22 22 18 15 15 12 12 16 23 11 7 9 22 28 29 25 23 25 26 28 29 21 24 31 25 25 32 34 26 22 17 14 17 18 19 25
43 42 42 44 48 51 52 35 25 23 23 21 20 21 19 19 13 13 17 22 6 4 13 28 26 30 24 28 32 28 27 28 24 24 28 29 17 17 26 27 26 17 13 14 16 20 23
45 44 44 46 48 52 49 33 26 25 24 22 19 20 20 19 15 15 16 16 4 4 16 24 21 25 26 24 31 33 28 22 26 24 23 20 20 12 16 26 19 20 13 15 18 19 21
45 44 44 47 49 52 44 31 30 27 25 21 21 23 22 21 20 11 14 6 4 9 12 8 22 21 30 26 28 32 27 21 23 22 17 11 13 17 10 8 11 12 11 13 16 15 9
49 43 44 47 50 51 38 32 33 30 25 24 24 22 21 14 17 12 9 3 11 15 4 12 23 23 27 25 30 32 27 23 22 21 19 12 14 13 14 13 14 12 11 11 12 12 15
55 41 43 46 50 50 34 33 33 31 23 20 22 19 15 9 8 2 6 7 14 3 3 10 15 31 30 11 33 36 25 21 18 19 14 10 17 12 13 16 17 13 11 10 12 10 3
51 39 41 45 49 45 33 35 32 29 22 21 20 18 14 11 11 9 10 12 3 3 11 15 29 33 26 31 28 29 27 23 17 20 15 10 13 16 12 10 11 14 11 3 3 1 4
48 37 39 44 48 39 34 36 35 22 25 20 17 17 16 15 14 14 7 5 7 7 5 23 35 32 28 34 24 28 27 24 16 14 22 12 5 12 12 16 9 14 11 4 4 1 3
48 35 36 40 44 33 34 35 28 21 22 17 18 18 16 19 22 18 13 9 6 9 17 28 32 27 28 23 19 25 24 24 17 14 9 13 4 13 8 10 13 10 10 9 1 2 2
45 31 34 38 41 28 28 30 27 22 23 23 14 17 16 18 21 13 11 9 14 21 29 33 17 15 20 24 21 19 22 21 17 13 12 11 8 7 10 12 13 9 7 5 6 2 3
39 31 31 34 37 24 22 24 23 23 23 22 17 18 21 18 14 13 14 18 26 35 23 10 9 20 20 25 17 21 21 8 17 16 9 15 5 11 10 12 18 15 12 7 4 2 3
35 28 28 29 32 19 18 15 16 19 20 16 16 18 19 17 20 25 23 18 30 19 16 14 10 20 21 23 15 21 16 3 24 19 11 11 5 8 13 8 10 18 15 13 4 4 3
34 28 25 24 28 17 13 11 12 12 13 13 13 15 18 20 17 20 17 18 20 13 12 8 8 16 16 15 11 17 14 10 18 24 12 11 4 6 3 12 13 15 20 20 17 7 8
34 27 20 19 24 21 10 9 7 7 12 9 8 8 17 21 17 20 17 16 13 9 6 7 9 10 17 15 6 15 15 10 15 19 17 10 7 5 6 1 5 14 20 20 22 10 9
34 25 17 17 20 23 9 5 1 1 4 6 4 2 4 9 13 15 14 12 11 12 9 10 12 13 19 10 8 13 17 13 15 14 19 13 5 12 14 8 8 9 10 15 25 27 16
32 22 15 17 16 21 15 8 9 7 5 3 4 3 3 10 16 15 14 14 15 14 15 20 19 18 13 7 7 15 17 16 12 16 18 15 7 7 9 12 17 21 19 19 21 22 30
32 25 12 18 15 18 18 13 12 12 10 7 4 1 3 9 14 15 11 7 8 11 11 10 8 7 8 4 5 7 8 11 6 11 19 14 9 4 3 5 6 12 10 20 19 20 18
32 25 14 15 17 16 18 16 12 14 16 15 11 8 6 14 11 10 11 9 11 5 10 9 6 8 4 6 8 7 6 10 8 7 15 11 8 6 4 3 1 1 1 3 5 9 13
31 26 17 14 16 17 17 16 15 12 17 18 15 12 13 16 15 13 11 9 6 6 9 8 7 7 7 6 6 5 5 5 7 6 7 11 11 4 3 4 11 5 6 3 8 8 4
28 26 21 15 16 16 19 18 16 16 14 20 21 17 17 20 18 15 14 11 9 8 10 11 9 8 8 9 6 5 4 4 5 6 11 10 9 6 2 3 3 7 6 4 8 1 15
28 26 22 16 16 18 18 19 20 20 18 18 23 21 20 21 19 20 18 15 12 9 6 9 8 7 9 7 6 5 4 4 5 6 11 13 11 14 10 6 8 8 5 5 1 5 12
30 25 22 18 17 19 19 20 21 22 25 21 22 25 22 21 17 22 22 19 16 10 7 7 7 8 7 6 2 3 4 7 5 6 6 13 11 8 12 6 8 7 3 2 5 8 8
30 23 22 21 18 21 20 21 23 25 28 28 24 26 26 22 19 22 24 24 21 16 14 12 6 3 7 6 7 5 5 5 8 4 11 7 11 3 10 2 3 4 6 6 6 7 7

GFSGBSN_700_spd_054.txt.gz
Wind_Speed
35 35 35 35 37 39 39 42 45 45 46 39 29 24 25 26 25 27 27 27 28 27 26 30 27 39 36 36 31 8 7 24 29 30 30 31 33 34 36 37 37 39 37 35 32 33 36
39 38 37 37 39 40 42 44 47 48 43 31 26 24 24 25 24 23 23 22 19 19 20 24 24 39 27 40 29 26 15 18 28 30 30 32 29 33 30 31 35 30 37 33 32 35 36
40 41 39 40 40 44 46 47 49 47 33 24 23 22 23 22 21 18 15 13 14 13 17 17 19 40 32 34 19 25 23 15 26 26 29 30 27 26 24 27 27 30 19 29 35 32 30
43 42 41 42 44 45 48 49 50 36 25 23 22 24 26 22 18 15 16 15 13 15 15 11 14 40 37 43 21 25 24 18 25 27 26 26 27 23 19 18 19 20 27 19 25 33 32
43 44 42 42 44 49 50 51 44 31 26 23 23 23 21 17 15 15 15 13 17 18 9 14 13 41 23 47 25 24 25 19 26 26 26 26 24 25 22 20 14 20 12 31 27 19 21
43 48 47 45 46 49 52 51 37 35 29 24 22 21 19 17 15 15 13 15 20 8 7 12 13 27 28 39 23 26 25 24 29 28 27 28 28 27 29 23 19 17 17 14 23 23 24
44 49 51 46 47 51 53 49 38 35 29 26 22 18 18 17 16 16 14 17 19 6 8 9 16 19 29 33 26 27 29 24 28 30 30 29 34 34 32 26 12 13 14 17 14 19 20
42 49 48 46 46 52 54 40 36 35 30 27 22 18 18 21 15 14 15 16 16 4 8 16 27 13 24 26 32 27 32 25 24 33 33 27 35 30 28 25 20 11 14 12 11 14 19
43 50 47 44 47 51 48 38 38 35 31 26 22 23 23 22 17 12 13 11 6 1 10 21 35 20 21 25 35 31 30 29 21 19 29 16 11 20 27 28 25 18 16 13 13 14 19
44 49 45 45 48 54 43 41 39 36 30 26 24 24 23 24 11 4 8 6 1 5 11 13 21 19 26 26 31 25 26 21 21 19 11 11 11 13 17 18 22 19 15 15 13 10 5
43 48 44 45 48 49 43 44 40 28 29 27 25 22 19 14 9 5 0 4 7 15 4 13 16 20 16 22 31 26 27 16 19 25 16 8 10 10 10 5 8 7 9 9 8 8 10
42 46 42 43 46 42 41 39 29 28 28 27 26 21 19 17 13 11 9 13 14 3 4 6 10 21 22 12 35 30 23 18 16 13 9 9 11 9 10 11 11 5 7 5 9 8 2
40 44 40 41 43 37 38 34 25 24 24 24 24 22 26 24 22 21 17 12 2 5 10 16 21 30 22 28 28 29 20 19 9 16 14 11 15 9 10 14 14 14 9 2 2 1 3
39 41 36 38 40 34 35 30 24 23 26 27 28 25 28 27 20 14 9 5 8 8 9 18 32 26 24 26 25 23 19 22 11 9 18 10 6 14 10 11 9 14 11 5 4 1 3
36 40 36 33 36 30 28 29 22 21 21 25 27 20 24 17 15 13 12 16 9 10 15 31 27 27 24 21 20 16 20 17 14 12 6 8 4 13 9 11 11 10 9 9 3 1 1
34 39 36 30 32 28 24 23 22 19 19 20 21 19 18 17 15 19 27 29 28 27 34 26 16 15 16 13 20 15 18 18 13 11 14 8 6 10 10 10 11 7 8 5 5 2 2
32 36 33 27 28 27 21 20 16 15 14 13 14 19 17 14 15 24 25 28 32 28 16 10 10 21 16 16 18 18 14 11 14 14 10 10 5 9 10 11 14 13 10 4 5 2 3
31 33 32 24 25 25 18 16 14 11 10 12 16 15 16 17 16 23 25 22 23 15 14 10 9 21 20 20 18 15 15 4 20 15 10 11 5 7 9 7 8 13 12 10 3 4 4
29 31 31 20 23 22 16 13 13 10 8 9 12 13 11 12 17 20 20 19 16 13 10 7 9 10 13 18 8 19 15 15 16 17 10 10 3 6 5 7 10 13 17 17 13 4 7
29 29 30 21 21 20 18 11 11 8 10 10 8 7 13 13 18 15 14 12 10 7 6 5 9 9 15 13 4 19 13 13 10 21 13 7 5 3 5 0 3 9 14 17 18 8 8
29 29 27 25 19 20 17 12 12 9 10 9 5 5 7 6 10 11 9 4 6 5 4 6 9 8 14 9 6 10 11 11 11 18 20 12 3 7 10 8 7 5 7 12 22 24 14
30 29 25 25 20 19 17 14 13 14 11 9 8 7 3 3 7 8 8 9 6 5 4 7 13 13 11 7 7 6 13 11 10 12 13 13 6 5 6 9 13 17 16 15 15 19 25
29 30 25 21 21 20 19 15 14 13 14 12 8 6 4 3 7 6 6 5 11 13 13 12 11 9 6 4 3 9 11 8 4 7 14 9 7 4 2 4 7 12 9 15 21 20 17
29 30 28 20 20 23 20 17 15 14 12 15 12 11 9 7 11 8 6 6 7 1 6 5 7 8 5 9 9 9 7 9 10 5 11 7 7 4 4 3 1 2 3 2 3 4 9
30 32 30 25 19 23 22 19 16 16 15 12 15 13 13 12 13 11 10 8 6 3 6 5 5 5 4 6 7 5 5 4 6 4 7 12 11 3 2 4 11 6 6 3 2 2 2
32 32 31 27 20 22 21 18 18 15 17 15 14 17 16 15 18 16 14 11 8 6 9 8 6 6 6 7 5 3 3 4 6 6 9 10 9 7 3 2 4 4 8 4 6 5 7
34 34 31 27 20 21 20 20 19 18 17 19 17 16 20 23 22 22 21 16 13 11 9 10 10 8 8 8 5 3 3 4 4 7 11 13 11 14 10 6 9 9 6 3 2 2 9
35 33 29 25 19 20 20 19 20 23 22 21 22 21 20 25 23 27 25 20 18 14 10 7 7 10 7 6 3 3 5 8 5 6 5 9 10 8 12 6 9 9 10 4 1 4 6
33 29 26 24 20 20 21 18 22 23 29 28 28 28 25 27 23 28 29 27 22 18 13 10 7 2 5 6 7 4 5 5 8 5 11 8 10 4 10 4 4 11 2 4 5 5 5

GFSGBSN_700_spd_057.txt.gz
Wind_Speed
37 40 42 42 40 39 39 41 46 46 48 40 29 23 19 23 23 21 20 20 20 21 22 22 21 22 34 48 46 15 15 29 31 32 32 34 35 35 35 39 37 38 36 36 31 33 29
38 40 45 46 43 40 41 43 48 50 42 29 26 23 23 23 21 18 16 13 13 14 14 15 16 17 23 44 48 22 13 27 31 31 32 31 34 35 32 31 36 28 35 32 30 32 32
38 42 46 50 44 43 44 46 48 42 32 30 25 24 24 23 22 17 13 10 13 14 13 13 13 16 25 42 33 35 20 22 27 27 29 29 24 31 31 29 26 28 20 30 32 31 32
40 44 48 53 45 45 47 49 42 35 32 29 27 26 24 22 22 14 13 10 10 12 18 14 14 17 27 43 19 38 28 18 23 27 26 26 25 22 22 18 20 23 21 20 27 32 34
40 44 49 51 45 46 49 45 38 34 32 30 27 24 23 20 17 12 12 9 11 15 14 10 15 15 25 41 33 17 31 17 21 25 28 31 25 25 22 21 16 21 18 30 21 19 20
40 44 48 49 45 48 48 41 38 34 30 30 29 23 19 14 13 13 12 9 11 15 7 10 8 11 26 34 36 22 29 20 23 29 28 31 27 27 25 26 22 22 21 13 24 27 24
41 45 50 48 45 50 45 44 39 32 33 30 29 24 20 17 18 17 13 9 12 11 8 9 3 11 25 25 37 23 26 23 25 31 35 35 35 39 33 26 14 19 17 21 17 23 16
40 45 49 47 46 49 46 43 38 31 30 30 26 23 21 23 19 16 13 9 10 5 6 8 13 17 17 17 32 27 24 27 31 33 32 36 38 29 27 23 16 14 14 13 13 12 15
40 44 48 46 45 46 45 41 37 34 32 32 28 25 21 19 16 13 6 5 5 2 6 11 26 17 14 19 22 32 27 21 32 30 24 32 27 25 24 28 21 15 14 13 9 9 11
39 44 47 44 44 42 42 37 35 33 29 30 29 25 22 16 10 8 6 5 6 11 10 12 13 10 13 20 30 32 21 18 23 26 26 18 21 30 20 32 26 19 16 13 9 5 4
37 41 47 42 42 40 38 33 30 32 31 28 29 29 28 22 14 14 11 13 16 8 5 10 11 18 16 18 26 23 20 12 13 15 11 8 15 34 23 28 30 15 12 11 8 5 6
36 39 44 42 39 38 35 30 26 29 32 30 30 33 30 26 23 20 20 17 7 5 5 8 8 15 20 24 25 27 16 14 10 11 15 15 22 12 11 10 12 13 12 7 4 3 2
35 37 41 42 35 36 31 27 20 24 25 28 25 25 25 26 26 21 11 8 5 9 5 8 20 18 27 32 27 23 21 17 11 12 20 17 14 13 13 17 14 12 9 2 1 1 3
33 36 39 39 32 33 27 25 19 19 19 20 21 19 17 17 15 14 14 13 13 10 14 24 22 20 25 23 25 16 23 13 10 6 13 7 7 13 12 13 10 15 10 3 4 3 2
32 35 37 37 28 30 25 22 17 16 17 17 21 22 19 18 13 20 25 25 10 9 25 25 24 23 23 16 17 17 14 15 10 13 4 6 6 12 15 11 8 12 8 8 3 1 1
31 32 35 36 25 26 23 18 15 15 17 22 21 22 14 13 14 25 29 24 17 25 27 22 12 13 15 16 14 13 10 11 10 9 7 9 8 8 9 9 11 7 9 6 6 2 3
31 30 33 34 26 24 22 16 14 13 16 21 18 20 19 12 14 22 29 26 21 22 18 7 6 18 12 20 13 13 11 9 12 9 7 5 4 9 11 9 12 12 11 5 6 3 3
30 29 32 32 28 21 21 15 13 13 15 19 15 16 15 7 12 21 23 18 16 14 8 4 5 20 15 16 17 10 12 3 14 11 6 8 5 7 8 6 10 12 11 12 4 5 3
30 30 31 30 28 18 19 16 12 11 12 14 12 16 17 7 14 19 17 15 11 8 2 2 6 9 13 14 11 12 12 8 11 12 8 8 4 7 4 7 12 13 18 16 13 5 6
28 29 30 29 28 19 17 17 12 10 11 13 10 7 12 10 10 8 8 6 8 5 2 4 8 6 12 13 6 15 13 13 7 12 12 9 6 3 5 1 4 10 14 17 18 8 6
27 30 29 30 29 24 13 16 15 9 11 11 12 8 7 4 5 8 4 2 2 3 3 5 7 7 10 9 6 7 14 13 13 14 18 10 5 5 8 8 5 3 5 15 23 23 12
27 28 29 30 29 26 19 14 16 13 9 10 8 12 6 3 5 5 6 5 3 1 3 6 6 8 10 6 5 5 14 12 8 14 21 17 5 5 6 9 10 14 15 16 14 18 22
27 26 29 31 30 26 23 19 15 14 10 11 11 9 9 4 2 4 4 5 9 8 8 8 9 7 6 6 5 5 9 6 3 7 13 13 10 6 3 4 7 12 12 20 19 18 12
28 27 29 32 30 28 24 22 19 15 12 8 11 12 11 8 8 8 6 7 6 2 5 6 5 5 5 6 8 11 9 6 4 4 10 12 6 4 3 3 2 5 3 2 2 5 8
30 28 30 31 32 28 26 22 22 17 13 11 8 11 15 13 10 12 10 9 9 4 7 5 6 3 6 7 9 7 6 5 5 5 11 13 9 4 2 4 7 5 6 6 4 2 4
30 29 31 33 31 28 24 21 22 23 17 14 11 9 11 17 16 17 15 13 11 7 10 8 7 5 5 7 4 4 4 5 6 6 7 11 11 9 5 2 3 4 9 6 2 7 2
34 31 33 34 30 27 23 19 19 22 22 17 14 14 13 15 20 19 22 20 16 14 10 10 9 8 7 8 6 3 3 4 5 8 9 11 11 13 11 5 8 9 9 8 3 4 3
34 33 35 34 28 26 23 19 20 21 24 23 25 19 20 22 15 24 26 25 23 19 15 10 9 11 10 10 6 5 6 8 6 7 4 7 9 8 9 7 8 8 13 7 5 3 1
38 34 35 32 28 25 23 20 21 19 20 21 21 28 29 30 24 20 31 32 29 22 18 14 9 6 8 9 10 6 6 5 9 5 11 7 9 3 9 2 4 11 9 9 5 3 5

GFSGBSN_700_spd_060.txt.gz
Wind_Speed
35 38 42 46 49 44 41 42 41 41 33 31 30 27 22 26 25 23 17 13 13 13 14 16 19 20 24 28 43 25 37 34 33 34 36 35 35 37 36 34 38 40 28 36 28 29 27
35 39 43 47 49 43 43 44 36 33 33 29 29 26 24 26 25 20 19 11 8 9 8 11 13 19 24 27 42 26 20 31 37 36 36 34 36 34 30 28 35 34 28 26 31 25 31
36 40 44 48 49 43 46 43 39 36 30 28 28 30 26 23 21 19 14 10 9 9 6 10 15 17 21 24 30 38 23 29 35 36 35 33 32 34 28 29 28 20 23 30 25 30 30
36 40 44 49 47 44 46 42 38 34 31 30 29 29 25 23 20 19 12 7 9 9 11 16 18 16 22 17 26 51 29 26 28 32 29 27 26 30 20 25 17 23 15 17 31 31 30
36 41 45 48 45 46 43 41 39 36 29 29 28 27 22 17 13 9 7 8 9 8 12 14 14 15 12 19 32 41 32 21 23 30 28 28 24 29 30 19 15 21 17 25 15 24 28
36 40 44 48 43 46 43 38 40 39 32 33 32 27 23 19 13 12 9 8 12 9 11 8 11 10 9 32 28 24 28 22 25 31 31 32 31 28 24 26 27 25 24 20 21 19 22
35 40 42 48 41 44 40 36 37 36 33 33 31 26 22 21 16 16 12 7 8 10 8 5 2 5 14 32 19 23 36 26 26 33 36 36 26 37 29 25 12 15 21 13 15 24 24
34 39 42 46 40 41 36 32 34 38 35 32 30 27 21 17 15 1 3 3 4 4 3 6 8 13 25 27 24 23 40 26 44 38 30 34 36 27 21 21 13 13 16 14 16 17 19
34 37 41 45 38 38 33 27 33 38 36 33 29 24 17 12 19 9 6 5 4 5 9 7 15 21 22 21 23 25 22 19 32 33 30 29 26 22 24 20 16 13 15 16 10 15 13
34 36 40 42 36 35 31 23 27 31 35 38 41 32 25 16 14 15 15 15 14 12 8 11 11 17 15 13 26 28 21 21 27 27 27 25 21 27 24 24 18 15 17 14 11 8 6
33 34 38 40 34 33 28 20 20 23 24 29 31 35 30 30 33 26 24 16 12 5 3 7 11 11 12 14 27 16 11 23 24 25 31 11 27 31 28 26 22 13 17 13 10 8 5
32 33 36 39 34 30 25 22 19 19 23 28 28 26 25 20 18 19 17 15 12 7 9 10 12 21 15 22 16 13 11 19 23 20 9 12 23 29 26 31 29 19 15 10 8 5 4
31 32 34 37 34 27 24 22 18 19 24 28 27 21 22 19 12 16 17 16 13 10 6 11 22 20 16 18 17 12 16 9 10 14 16 17 16 19 17 20 23 24 16 5 3 3 2
31 31 32 36 34 25 23 21 18 21 26 27 28 21 19 13 13 18 20 22 15 16 20 18 16 22 19 19 17 12 13 16 10 18 13 6 7 16 28 21 12 18 9 2 3 4 3
31 31 30 34 33 22 22 19 17 19 23 25 26 22 18 11 17 19 16 16 7 14 15 16 13 15 16 14 12 14 12 14 16 11 5 6 6 9 12 10 19 16 8 8 4 2 1
28 30 31 32 31 22 20 17 17 17 21 23 20 19 17 12 6 15 19 16 11 21 18 9 4 9 9 13 11 9 7 8 11 9 7 9 9 11 13 11 12 12 12 5 5 4 4
27 30 30 30 31 26 18 16 15 16 18 20 19 19 15 9 5 12 24 21 18 14 8 3 2 10 10 12 12 10 7 10 8 10 5 10 5 9 11 10 11 11 11 6 6 2 2
26 27 29 29 30 28 16 16 13 13 14 15 15 20 15 6 5 17 17 16 13 7 3 3 5 9 12 13 11 9 7 4 11 9 7 7 7 9 9 11 12 14 12 10 3 3 3
25 25 28 29 29 30 18 16 14 11 11 12 12 14 14 6 4 10 13 11 8 3 6 3 5 8 6 16 6 10 12 6 11 10 7 7 4 7 4 7 13 16 19 17 15 5 5
23 25 26 27 29 29 26 14 14 12 11 11 10 9 8 7 5 5 7 7 4 1 3 4 5 4 10 11 4 12 10 8 9 12 8 8 6 4 2 2 5 11 16 21 18 8 7
22 24 26 27 30 29 27 21 14 13 11 9 9 7 6 4 4 3 5 6 4 3 4 2 3 3 8 9 7 6 13 10 9 9 11 10 6 6 6 5 3 4 8 17 24 25 9
23 26 24 27 28 32 28 25 19 12 12 10 8 6 5 4 2 5 4 3 2 4 7 8 6 7 8 5 5 4 9 11 10 14 15 15 4 5 7 9 10 14 14 13 14 20 25
26 26 26 27 29 29 31 26 23 15 11 11 11 11 9 4 2 3 3 4 7 3 3 5 7 7 7 7 6 5 6 7 3 5 13 16 10 7 3 5 7 13 17 22 20 19 13
28 28 25 27 30 31 31 29 24 21 12 11 10 11 14 12 10 10 8 8 7 2 5 5 6 5 5 5 6 9 8 6 3 4 8 8 7 8 3 2 4 4 3 2 8 13 15
27 27 30 27 30 32 31 28 25 21 17 12 11 10 12 17 14 14 14 11 11 7 10 7 8 6 8 8 10 6 5 4 6 6 9 10 8 3 2 5 8 6 6 6 6 5 7
26 28 32 29 30 33 31 29 24 22 19 16 15 12 12 12 17 18 18 16 13 12 12 11 11 9 9 10 6 4 4 4 6 4 9 13 13 8 3 3 3 3 10 9 6 6 6
28 26 32 33 31 33 33 31 25 21 18 18 17 18 15 15 12 17 22 21 19 18 14 15 12 12 12 11 7 5 5 5 5 6 9 12 13 12 10 6 7 9 11 10 6 6 6
28 27 33 35 37 35 34 30 26 23 21 19 21 19 20 24 17 17 21 25 24 22 19 14 15 17 14 13 9 7 7 9 6 7 5 10 9 7 9 7 8 11 14 11 9 8 7
28 36 35 35 42 37 33 30 26 23 24 21 18 21 24 26 20 20 19 24 31 26 23 20 16 8 14 12 11 8 9 8 10 5 13 8 11 5 9 4 5 11 14 16 13 10 8

GFSGBSN_700_spd_063.txt.gz
Wind_Speed
35 38 41 45 48 43 43 42 39 34 33 29 26 28 27 26 27 25 21 17 16 11 9 10 12 15 20 26 25 14 29 41 37 27 33 36 31 34 30 26 23 33 15 23 17 29 31
35 38 41 45 48 42 43 38 34 35 32 29 31 31 29 27 23 20 17 15 11 10 7 8 9 13 17 23 20 25 21 44 37 32 34 37 31 30 25 18 26 22 18 17 19 21 26
36 39 42 45 47 43 40 34 37 38 35 28 29 29 27 24 21 17 15 14 10 9 7 7 9 11 17 20 17 32 26 37 38 37 37 35 28 32 20 22 27 10 25 12 21 18 21
36 38 42 44 44 41 35 33 36 36 33 33 34 31 26 22 17 13 12 8 11 9 8 11 12 17 24 15 23 32 31 34 38 38 35 30 32 31 16 20 19 20 16 25 22 22 26
35 37 40 43 40 39 32 32 34 37 35 33 34 31 25 19 15 11 6 7 10 10 8 11 15 16 17 15 24 37 34 31 32 28 31 27 30 32 21 22 17 24 21 23 16 26 23
34 37 39 43 38 37 29 29 32 36 38 36 36 32 29 19 12 13 11 9 8 11 10 12 8 9 8 9 22 39 26 24 35 35 32 33 29 32 28 25 22 26 28 22 27 17 29
33 37 37 41 36 35 27 25 26 36 39 38 37 37 27 22 14 10 8 5 3 5 9 7 7 9 8 13 23 37 36 26 34 24 36 36 31 37 37 29 23 21 23 17 20 18 16
33 36 36 39 37 34 27 22 21 30 34 36 38 40 26 21 15 8 5 2 1 3 1 4 5 5 17 12 23 35 32 23 27 34 26 34 31 34 24 24 20 12 21 20 17 21 20
32 35 35 37 37 31 27 23 24 26 32 35 33 35 33 26 22 16 12 9 6 7 5 2 4 12 14 5 17 25 25 26 29 32 29 32 21 31 26 26 19 17 18 21 9 20 14
31 33 34 36 38 30 28 26 25 28 31 35 30 29 25 27 27 27 23 16 12 8 8 12 13 8 8 4 5 15 34 24 33 31 21 19 8 31 22 26 20 17 15 16 12 12 11
31 32 33 34 36 30 28 26 25 27 31 32 27 24 20 19 19 19 13 8 7 8 4 8 7 9 6 5 12 24 15 19 32 36 24 13 19 21 19 19 18 11 17 13 11 10 4
28 31 33 33 35 28 28 24 23 25 30 31 26 19 17 16 12 16 15 15 15 9 9 8 11 9 6 17 11 8 19 33 31 28 23 10 22 21 22 25 20 15 16 10 6 4 5
27 29 32 33 33 28 25 23 21 22 28 29 27 18 14 11 11 14 16 14 12 10 7 9 12 11 19 9 23 20 19 18 11 14 18 10 19 26 23 26 24 20 18 5 4 5 4
25 28 31 31 31 31 23 23 20 22 25 25 26 19 15 10 11 15 18 24 15 15 16 11 11 6 12 6 10 18 16 17 12 14 12 4 7 19 25 33 20 19 15 4 5 7 7
24 26 29 30 31 33 23 23 18 20 22 23 23 17 11 10 5 7 13 17 5 7 14 9 7 7 5 5 9 11 11 8 11 3 4 4 5 11 17 14 19 23 8 7 1 2 3
23 24 26 29 30 32 27 21 18 16 18 20 21 16 11 8 6 6 11 16 11 15 11 5 4 4 3 5 4 5 5 7 11 8 7 5 8 6 11 14 11 9 9 4 3 3 5
22 22 25 27 28 30 29 18 18 14 15 14 18 20 14 11 8 2 10 15 11 9 7 4 2 2 3 4 5 4 3 7 8 6 6 8 4 9 9 7 8 10 5 6 4 3 3
22 20 24 24 27 30 30 23 18 14 12 15 15 14 13 8 7 7 12 11 9 5 8 5 4 4 6 4 5 2 3 5 10 8 3 4 6 7 6 11 14 12 10 10 5 5 3
19 19 22 23 26 29 30 27 19 16 12 11 13 11 9 6 2 5 6 7 4 3 7 3 2 4 4 5 2 4 3 2 11 10 3 5 3 6 2 6 13 17 17 11 11 5 4
19 20 21 22 25 28 30 29 24 17 14 10 10 8 7 6 3 3 3 5 5 4 4 5 2 2 2 3 5 4 4 7 6 10 7 7 5 3 2 1 4 11 15 18 17 7 6
20 22 22 23 23 27 29 30 27 19 14 12 8 7 6 5 4 4 6 6 7 6 6 4 3 3 5 4 3 3 7 7 7 6 10 7 5 8 7 6 5 6 10 17 26 24 10
20 22 24 21 21 25 27 29 29 24 15 13 11 11 8 6 4 2 2 6 8 9 10 8 7 6 6 4 6 4 5 6 6 8 8 10 5 6 7 9 11 14 13 13 17 22 25
18 20 23 22 23 23 26 28 28 27 21 13 13 13 14 11 8 6 7 6 5 3 4 7 9 7 7 9 8 7 6 8 6 7 8 7 8 5 3 7 7 12 18 22 20 17 19
18 20 23 25 26 25 26 29 28 28 24 17 14 15 14 16 14 13 12 11 11 6 5 5 6 6 9 8 8 7 6 7 7 7 7 6 7 8 3 3 3 5 4 4 18 17 18
16 19 23 28 28 26 27 28 29 28 27 20 15 17 17 17 18 19 18 17 15 12 9 8 7 7 6 7 7 6 4 3 8 6 7 9 6 2 3 6 12 8 8 6 6 4 11
20 22 24 26 26 29 29 30 31 28 27 24 18 16 21 19 17 19 21 20 17 11 13 15 12 8 9 10 6 5 5 5 5 4 10 11 11 6 2 3 3 2 6 7 6 4 8
24 28 29 25 29 31 34 34 33 30 28 25 21 18 20 23 22 18 18 23 22 19 13 16 16 15 13 10 8 7 5 6 6 7 6 9 10 12 10 6 8 9 9 10 4 6 11
30 31 34 33 31 33 36 30 32 33 28 26 24 23 22 26 21 25 18 23 24 23 22 17 18 20 17 14 8 8 7 8 7 7 9 11 9 8 11 6 8 7 14 10 10 9 11
31 33 34 38 34 33 29 30 32 34 32 28 23 23 23 27 23 20 32 26 27 26 29 26 21 13 15 11 12 7 7 9 8 5 13 9 11 7 11 5 11 7 17 21 17 14 13

GFSGBSN_700_spd_066.txt.gz
Wind_Speed
36 38 39 41 45 41 37 32 33 35 35 33 31 31 31 29 26 22 18 15 13 13 9 12 10 13 15 22 17 8 11 30 36 33 27 29 29 32 31 29 23 32 13 22 16 27 29
36 37 39 40 42 39 34 32 32 34 34 37 34 35 33 27 23 19 15 14 11 8 8 5 6 7 9 15 11 18 21 28 38 35 31 30 30 27 28 14 22 21 16 14 17 24 29
35 36 38 40 41 38 31 29 30 34 43 44 40 34 30 25 19 17 13 11 12 8 6 5 5 6 9 8 10 21 23 30 39 35 33 28 26 28 20 22 22 7 25 13 24 24 24
34 35 37 39 40 37 30 27 26 38 45 44 43 36 27 23 16 13 10 8 5 8 7 8 7 12 14 8 14 17 28 28 46 37 30 23 27 29 23 24 19 23 19 15 21 20 20
33 34 36 37 38 36 30 26 26 38 42 43 42 39 30 24 19 11 7 4 3 6 7 5 9 13 14 8 15 18 29 27 38 34 26 25 32 31 32 19 23 26 16 27 19 23 19
33 34 36 36 38 35 31 27 28 33 40 42 39 39 34 26 22 11 9 4 6 6 7 8 10 8 7 3 5 17 30 31 29 33 30 30 35 28 37 27 26 26 30 23 27 26 27
32 34 35 35 37 36 33 31 30 32 37 39 35 36 38 30 23 15 6 4 2 3 4 5 8 9 7 7 10 19 35 31 34 30 39 34 36 42 46 32 21 17 21 21 22 20 23
30 34 35 34 37 34 32 30 30 32 35 35 31 32 33 33 27 18 12 8 6 3 4 5 4 5 5 9 12 22 25 27 23 39 32 36 37 34 29 26 21 16 15 25 12 22 17
30 33 34 35 35 32 30 28 28 31 34 35 28 25 23 25 25 22 19 19 17 14 12 14 11 3 17 7 18 13 24 23 20 32 34 29 26 25 28 26 24 22 18 26 20 14 15
29 31 34 34 33 31 27 26 25 30 32 32 25 22 16 17 19 14 13 12 15 14 9 16 10 5 5 8 12 16 26 14 22 23 22 20 8 26 27 29 23 22 14 18 19 16 11
27 30 33 31 31 31 26 26 24 27 30 29 24 20 20 22 19 17 15 10 11 9 3 6 8 13 13 9 13 12 17 16 24 29 18 11 20 22 34 31 23 15 19 12 18 13 4
25 28 30 29 30 32 27 26 23 26 28 27 24 21 18 16 17 17 14 14 14 8 6 10 16 13 18 12 9 12 12 13 26 24 12 11 17 14 30 20 25 22 18 14 9 8 4
23 26 27 28 29 31 29 24 22 24 26 26 24 21 14 14 20 18 14 10 10 9 7 17 16 19 29 26 20 15 22 25 17 17 13 10 10 14 14 14 18 23 24 7 4 4 4
22 25 25 27 28 30 29 22 21 21 22 26 23 17 15 12 14 15 11 13 13 10 12 12 13 12 17 12 24 19 17 14 11 11 12 7 4 16 24 20 16 24 23 4 5 5 5
21 23 24 25 26 29 29 22 20 17 17 19 24 19 9 11 11 10 11 14 4 7 8 9 10 8 8 10 12 13 9 10 15 13 7 7 3 15 18 26 25 26 20 13 3 2 6
20 21 23 24 25 27 28 26 19 16 15 17 19 19 13 11 8 9 5 11 8 8 7 8 7 7 7 7 6 5 3 9 4 9 7 4 6 10 13 22 26 23 22 7 4 2 3
19 19 21 23 23 25 27 25 23 18 15 14 17 16 16 11 9 3 3 10 10 9 9 5 4 5 2 4 7 5 2 8 9 6 7 6 3 6 8 4 8 13 16 9 4 3 1
16 18 20 21 24 25 25 26 24 20 16 14 14 14 14 9 7 5 4 5 5 8 9 7 5 6 3 3 3 4 6 6 9 11 4 5 7 7 8 10 12 13 8 13 5 4 3
13 17 20 21 23 23 25 26 26 23 19 15 11 9 9 9 5 4 2 1 1 5 8 5 2 5 5 3 3 2 5 4 10 11 7 4 3 6 2 6 13 17 16 16 13 6 5
14 16 18 21 19 22 25 27 27 25 21 17 15 9 7 6 7 5 6 8 6 4 5 4 2 0 3 2 4 3 4 5 6 8 5 6 6 2 2 3 4 9 17 19 18 9 5
16 18 18 20 20 21 22 24 25 26 24 19 14 10 9 9 8 9 8 8 7 6 7 6 4 2 3 3 2 3 8 5 7 6 10 7 2 7 6 5 5 5 10 18 24 22 11
13 16 17 21 24 25 24 24 26 27 26 21 18 17 12 11 11 10 6 6 11 9 10 6 7 6 7 4 7 4 6 4 5 7 6 9 5 6 9 11 10 13 13 14 20 22 27
13 16 19 21 25 27 26 27 27 27 28 27 23 18 17 12 11 10 8 8 8 7 7 6 9 8 6 10 10 9 9 9 9 9 10 7 8 6 3 5 9 14 16 22 20 18 20
16 18 21 23 27 29 26 28 27 27 27 27 25 23 19 17 15 12 17 18 17 11 11 8 5 10 10 12 9 8 8 9 10 10 9 11 9 8 3 3 2 4 6 6 17 19 18
13 17 21 26 28 29 26 30 30 29 28 28 27 25 23 21 21 16 21 23 20 18 15 12 11 9 7 6 7 5 4 3 7 7 10 12 10 4 4 7 10 14 8 7 5 6 17
14 19 25 27 29 30 30 32 32 28 27 30 29 29 28 24 20 20 18 18 21 18 15 17 14 11 7 11 8 5 6 5 4 4 11 12 13 8 6 2 3 4 5 4 6 3 4
17 22 26 29 33 35 34 31 29 27 28 30 31 27 29 29 21 21 22 21 16 17 20 14 15 15 13 13 9 8 6 7 6 6 6 12 14 15 9 6 7 10 8 7 5 7 9
21 24 29 34 34 37 38 31 30 30 29 30 31 31 28 31 27 25 24 24 18 22 20 20 13 20 18 16 11 9 10 9 8 8 8 13 9 8 12 7 9 8 6 11 9 8 11
24 29 33 36 38 43 41 36 30 27 29 32 31 31 28 29 30 24 22 21 26 25 29 27 20 15 17 12 13 8 10 10 9 6 14 11 12 8 10 6 7 6 10 14 15 10 10

GFSGBSN_700_spd_069.txt.gz
Wind_Speed
33 35 38 39 39 39 34 28 29 35 42 44 42 44 34 27 23 16 15 11 10 10 7 5 4 6 12 15 19 6 15 25 33 31 31 25 31 34 34 33 30 32 20 25 18 29 17
32 35 37 38 37 38 33 30 32 36 41 44 43 43 35 25 21 15 12 9 7 6 1 1 2 1 4 5 15 16 19 31 38 31 29 28 27 31 30 27 29 26 20 17 26 21 22
32 34 36 37 36 37 33 32 33 35 38 40 41 43 33 24 20 13 11 10 7 1 3 3 2 1 2 1 7 22 18 29 42 37 32 28 23 30 25 21 25 7 21 13 28 26 22
32 34 36 36 35 37 32 32 31 33 35 36 37 39 36 27 22 12 8 10 6 3 2 3 3 6 5 5 8 14 22 19 41 40 34 26 24 30 16 20 21 18 19 19 23 24 27
32 33 35 36 35 35 30 29 30 32 34 33 33 36 38 36 25 14 9 9 5 1 2 3 6 10 6 4 6 13 22 23 33 35 31 29 30 34 23 26 14 24 20 28 22 25 24
31 33 35 34 34 33 29 26 29 32 33 30 30 30 35 37 30 20 13 7 8 4 3 7 7 8 5 3 6 16 21 25 36 31 34 34 32 34 30 28 32 27 26 32 31 27 22
30 31 33 33 33 32 27 24 27 32 32 31 27 26 30 36 36 28 18 11 7 6 4 4 6 4 5 0 6 14 22 25 37 32 35 33 34 44 41 34 16 22 22 23 25 27 22
29 30 33 31 32 33 27 23 24 30 31 31 27 25 25 29 27 28 27 22 15 13 11 9 5 5 2 4 8 14 24 25 33 36 27 34 39 36 34 35 20 17 19 25 17 21 23
28 30 31 30 30 33 28 24 24 27 29 30 27 27 25 22 22 20 19 17 15 14 13 14 16 10 10 9 9 16 30 14 31 25 20 29 28 31 25 34 27 18 17 18 20 15 24
26 28 29 28 29 31 30 24 23 26 26 27 26 24 22 21 21 17 12 11 11 9 7 15 10 12 14 14 13 20 27 18 25 22 22 15 19 27 27 32 25 19 15 8 16 21 15
24 28 27 27 28 30 30 23 21 23 25 24 23 19 18 24 21 18 15 14 9 11 4 12 22 19 15 4 8 7 24 17 22 33 16 14 26 28 31 30 25 19 15 11 17 18 13
23 26 26 26 26 29 30 23 18 19 23 24 20 18 17 18 20 18 15 17 11 8 8 18 29 16 15 12 9 11 10 26 24 20 16 15 18 22 24 28 28 16 11 13 19 12 5
22 24 25 25 24 27 29 25 18 16 17 22 22 17 17 18 20 19 15 13 8 10 6 14 19 25 24 18 16 13 21 31 17 16 19 15 13 15 26 25 25 27 24 5 2 3 5
20 22 24 24 23 24 26 27 21 15 16 18 20 20 18 17 14 16 18 8 13 7 13 13 13 15 14 23 18 20 19 16 22 11 18 9 7 13 12 16 31 29 22 9 6 4 4
18 19 21 23 22 23 24 24 24 18 14 16 18 18 18 16 13 14 17 14 6 3 8 11 12 12 9 13 11 12 9 10 12 15 10 10 5 12 13 18 17 22 16 13 2 4 3
16 17 20 21 22 22 23 24 24 25 18 14 16 16 17 14 14 11 13 14 9 9 7 9 6 7 7 8 6 5 2 6 6 12 12 8 6 6 13 15 20 21 20 10 7 2 4
15 15 18 21 22 23 24 24 25 24 23 18 14 15 16 14 11 12 10 9 11 11 7 4 8 5 3 8 8 5 3 8 6 8 8 4 3 6 13 17 26 21 26 13 8 6 4
14 16 18 21 21 21 22 24 25 23 23 22 18 13 13 12 11 8 8 5 6 8 9 5 4 9 7 6 5 4 8 5 12 14 11 10 5 7 4 5 12 27 24 27 8 6 5
13 15 16 19 22 23 24 25 26 27 26 24 21 13 12 12 10 10 8 6 4 3 6 5 2 4 6 8 4 6 6 7 13 11 9 7 6 8 4 7 11 15 13 19 26 10 7
9 13 16 18 21 23 25 26 27 27 28 25 23 16 14 10 10 9 10 7 10 7 5 2 2 2 7 5 7 4 9 7 12 11 8 7 7 4 8 2 8 20 23 20 19 13 12
8 11 14 18 21 24 29 31 30 29 25 25 24 22 18 15 13 13 9 7 9 7 9 5 3 2 4 4 4 6 7 9 10 11 11 11 9 11 9 7 6 8 12 27 31 29 17
11 12 16 18 22 25 28 31 34 32 27 22 22 22 21 18 16 15 9 5 8 9 12 5 6 5 8 10 9 9 9 9 10 12 11 15 8 10 11 13 12 14 14 17 24 28 31
7 11 15 17 20 24 27 30 31 34 32 27 24 24 24 20 18 14 11 11 10 10 6 6 8 10 9 13 10 9 9 9 9 10 12 12 11 9 5 7 8 14 21 24 24 24 25
5 8 11 15 20 25 27 29 32 32 33 30 22 22 23 24 20 17 18 21 21 17 16 13 9 8 10 12 13 13 13 14 15 15 11 12 10 9 4 5 2 4 6 7 12 23 22
1 5 12 17 22 26 28 33 31 30 36 31 26 23 24 28 27 18 18 20 21 24 23 19 14 10 11 9 9 7 8 8 10 12 15 15 13 6 5 8 12 13 11 11 8 9 17
3 7 12 18 24 27 30 34 35 28 32 33 29 27 25 27 26 24 19 18 22 20 20 20 17 14 11 11 13 9 8 7 7 6 15 19 14 13 9 4 5 3 3 5 8 8 8
7 9 14 21 26 28 29 30 32 32 37 34 30 31 27 25 23 23 23 22 19 18 16 15 20 18 17 16 16 11 10 10 7 8 10 18 19 19 14 8 9 12 7 6 6 4 6
9 14 19 26 30 32 32 32 33 35 33 34 33 34 34 30 27 14 18 20 21 21 22 17 19 26 20 23 16 10 10 13 12 10 10 16 13 14 16 7 9 10 9 11 8 5 6
12 16 21 25 31 34 34 35 34 30 31 35 35 35 35 32 30 29 28 30 27 18 24 28 26 12 19 15 21 12 13 11 18 7 16 12 15 9 11 7 5 5 4 7 10 6 7

GFSGBSN_700_spd_072.txt.gz
Wind_Speed
30 32 35 36 34 34 31 30 29 30 33 33 36 44 44 31 25 17 11 9 6 6 5 2 2 2 8 8 12 19 26 21 32 34 29 27 32 33 33 36 33 32 30 20 25 18 24
30 32 35 35 33 32 28 29 29 30 32 32 34 42 45 35 24 14 11 10 6 5 6 7 7 7 5 2 17 11 15 29 30 37 32 28 33 33 31 30 32 28 17 29 28 29 15
30 32 34 33 32 31 26 27 28 31 32 31 32 40 41 35 26 15 13 11 9 8 7 8 8 8 5 5 9 14 14 33 36 38 31 25 24 34 28 29 28 11 19 18 30 26 28
29 32 33 31 32 30 24 25 28 31 31 28 32 33 36 33 25 16 13 12 8 7 6 4 4 4 3 3 7 9 17 28 38 39 33 29 24 29 23 17 26 17 27 23 25 30 28
29 31 32 29 31 30 24 23 27 31 30 27 28 30 31 31 26 18 12 11 6 3 3 2 4 6 4 3 8 13 15 24 42 37 34 33 28 31 26 20 25 23 19 32 23 32 33
28 31 31 28 29 31 24 22 25 29 28 27 26 27 25 25 25 20 17 14 10 7 3 5 3 2 3 3 9 12 15 17 43 38 30 37 31 34 30 30 25 31 22 35 25 29 34
26 29 31 28 28 30 25 20 24 25 26 25 24 24 22 22 20 21 20 17 14 12 9 7 3 4 2 2 6 13 16 18 39 32 24 35 30 45 36 33 22 22 26 30 29 22 27
25 27 29 27 27 29 25 19 22 24 24 23 21 21 21 22 19 15 15 15 19 17 13 14 6 7 5 6 7 14 17 21 35 35 21 30 31 37 32 28 21 20 21 23 24 24 22
23 26 26 26 25 27 26 19 20 22 22 21 19 20 24 23 20 16 11 13 12 11 14 14 12 11 10 7 8 14 22 23 31 30 19 34 27 34 33 29 21 17 18 21 20 18 21
21 23 25 25 24 25 25 20 17 19 22 21 20 18 21 25 20 17 15 12 14 6 9 20 10 10 18 13 9 15 22 16 27 20 19 20 20 32 30 29 29 18 16 14 13 15 14
19 21 23 22 22 23 25 23 17 16 19 22 22 18 18 19 22 19 15 17 13 8 4 8 16 9 6 12 15 19 15 10 16 17 14 16 21 28 27 26 29 20 17 14 11 15 18
18 20 21 21 21 22 23 25 20 17 18 20 22 22 18 18 19 20 18 13 11 6 7 17 9 9 11 13 12 19 14 13 17 18 14 23 22 25 28 22 28 20 16 10 8 16 8
17 17 18 20 21 21 22 23 24 20 17 19 21 22 22 20 18 16 18 13 4 9 3 11 12 13 14 15 11 5 23 20 15 21 15 22 23 20 26 24 24 22 17 4 4 6 5
17 16 17 19 20 20 20 22 23 24 19 17 20 21 23 19 15 14 15 8 10 9 11 9 12 14 10 15 17 24 21 20 17 11 21 9 8 22 22 27 27 27 25 7 5 4 4
16 14 16 17 19 20 21 21 23 22 22 18 16 18 19 18 14 12 11 10 5 3 6 7 11 12 7 7 11 15 20 15 19 15 8 12 8 20 16 29 25 28 28 21 5 3 1
14 13 14 16 18 19 20 20 21 21 21 20 18 17 17 17 14 12 12 10 7 8 6 5 4 4 7 4 3 5 5 13 18 18 18 10 7 16 17 19 25 23 30 14 11 3 3
12 11 12 14 17 19 21 22 22 21 22 19 20 16 15 16 13 12 11 10 8 6 3 2 3 3 3 5 4 4 6 9 7 19 15 10 9 9 15 23 23 25 24 13 10 5 4
9 8 10 13 18 22 23 25 23 19 17 18 18 16 15 15 12 10 8 7 4 5 4 2 5 6 6 5 5 5 8 4 12 11 14 10 5 8 13 14 21 26 26 22 11 7 9
4 5 8 14 19 25 29 33 36 32 28 19 18 18 18 15 11 13 9 4 3 3 6 4 3 9 8 9 4 7 8 8 12 12 10 10 7 8 3 7 10 23 29 31 25 17 17
2 5 11 14 16 21 25 29 34 34 38 28 22 17 18 16 17 14 11 5 4 4 4 3 3 6 7 10 11 5 10 9 17 15 12 10 9 9 12 3 9 20 24 31 34 23 19
7 9 11 11 12 15 21 24 26 30 33 34 35 20 16 16 15 14 13 10 4 6 6 5 4 5 7 5 6 12 9 11 14 17 14 12 10 15 11 8 8 9 21 26 30 34 24
12 8 8 5 7 13 18 21 21 27 29 28 32 25 23 18 17 16 14 11 11 10 9 9 10 10 9 12 10 11 10 9 11 15 17 17 11 13 15 14 14 16 16 21 32 33 32
13 9 6 3 8 14 16 20 22 25 29 29 28 26 26 21 17 16 16 16 12 13 12 9 10 12 13 14 15 11 11 13 11 12 13 16 13 10 6 10 14 16 27 29 29 31 33
15 10 4 1 7 12 17 21 21 22 25 28 28 27 26 25 21 16 15 19 20 19 24 20 17 16 10 13 14 16 14 15 16 14 14 14 13 10 4 4 2 12 11 12 20 26 31
17 11 5 5 9 14 20 22 22 23 25 27 28 28 26 28 25 20 16 18 18 20 25 28 22 19 14 14 13 12 13 16 20 19 21 18 16 7 5 8 18 18 15 15 14 19 18
18 12 8 8 13 18 21 22 22 23 24 26 29 30 27 28 29 28 23 22 21 19 19 20 17 21 19 15 15 12 10 9 7 8 18 20 16 17 8 4 5 3 5 6 9 19 13
18 12 10 12 16 17 20 22 23 25 27 26 30 34 29 29 29 30 25 20 21 20 22 14 14 18 21 21 20 18 16 15 9 10 11 20 22 21 21 10 13 12 9 5 6 4 5
18 13 11 14 15 18 23 26 26 27 28 29 34 34 31 32 26 30 26 26 27 25 23 17 18 21 19 23 25 15 14 19 18 13 12 16 14 17 18 11 12 8 12 13 6 6 4
16 13 13 15 17 20 24 28 30 32 34 35 35 30 33 33 38 36 11 21 17 18 24 24 28 18 10 13 15 16 15 15 21 10 18 14 18 16 14 8 7 4 10 6 9 4 4

GFSGBSN_700_spd_075.txt.gz
Wind_Speed
27 30 32 30 30 28 24 26 30 30 28 29 30 36 36 33 22 16 12 11 9 7 7 7 5 3 2 7 11 14 29 20 27 31 30 26 31 32 30 28 25 31 32 36 32 36 37
26 29 31 29 29 27 23 23 28 30 28 26 28 33 33 33 23 17 13 10 9 9 10 11 10 7 3 6 11 17 19 24 28 32 31 23 27 29 28 30 26 21 12 25 32 31 21
25 29 30 27 27 27 23 22 26 28 27 25 26 28 31 32 27 16 15 11 10 10 9 8 7 7 4 0 6 6 15 28 32 39 35 23 24 30 27 28 29 10 15 18 16 21 16
24 28 29 26 25 27 22 21 24 26 25 24 25 26 27 27 26 18 15 11 7 6 4 3 4 5 3 2 2 8 9 31 37 33 37 28 28 27 20 22 26 17 21 20 23 22 26
23 27 28 26 25 26 22 20 23 24 23 23 22 24 25 23 23 23 19 13 9 4 4 5 7 5 2 1 3 5 2 28 35 37 35 29 27 33 19 22 25 21 23 26 16 26 23
22 25 27 25 24 25 22 19 21 23 22 20 22 23 23 21 20 21 26 18 13 10 5 4 4 2 1 3 2 6 7 19 34 34 27 27 27 34 28 27 28 27 16 30 22 25 31
20 23 25 25 23 23 21 18 20 22 21 20 22 24 24 20 20 17 15 20 15 13 12 6 3 2 2 1 6 11 9 18 27 32 30 26 30 40 34 28 18 27 22 21 23 17 32
19 22 24 24 22 23 22 19 18 20 23 22 21 21 24 23 18 17 14 12 13 12 12 12 7 3 6 6 8 12 12 29 29 24 34 30 27 34 30 26 20 21 26 18 26 14 23
17 20 23 23 22 21 23 20 18 19 21 24 23 21 21 22 20 17 16 12 7 9 12 16 15 10 9 9 9 12 16 24 27 19 12 23 22 35 30 31 23 15 17 26 16 24 17
16 19 21 22 21 21 22 22 20 18 19 22 24 22 19 20 20 21 14 13 8 3 5 17 8 9 13 12 9 11 16 20 24 21 11 14 12 32 31 27 25 17 15 15 15 11 11
15 17 19 20 21 21 20 20 22 20 19 20 21 21 20 18 18 19 19 11 8 6 4 7 13 12 15 10 16 12 14 14 22 23 5 9 22 25 30 29 24 15 12 11 13 11 14
14 15 17 18 19 20 20 19 20 21 20 20 20 21 21 18 16 17 17 8 8 5 5 11 9 9 13 10 10 17 9 12 17 10 7 17 20 21 26 26 25 20 11 9 9 9 6
13 14 16 17 18 18 20 20 19 21 21 20 20 21 21 19 16 17 16 9 4 7 3 8 9 9 9 10 10 14 12 11 17 8 15 15 21 20 26 20 19 24 15 4 3 4 5
12 12 14 15 17 17 18 20 20 19 20 20 19 19 19 19 17 14 11 8 10 9 8 7 7 8 6 10 9 9 19 16 15 10 19 10 10 22 23 26 18 26 21 5 5 4 4
11 11 12 13 15 17 17 18 19 18 17 18 18 17 17 17 14 12 9 11 4 3 4 7 8 6 4 3 8 9 16 15 18 17 8 11 8 25 17 26 26 27 27 17 1 2 2
10 10 10 12 13 14 15 16 17 16 15 16 16 15 15 15 13 10 10 10 5 5 3 0 2 2 1 5 9 8 15 11 15 14 16 9 7 16 21 25 27 19 29 16 10 1 4
9 8 7 8 10 15 17 18 17 16 14 15 15 14 14 13 11 10 8 6 6 4 1 1 2 2 3 3 4 6 5 7 16 18 20 8 9 11 22 17 26 28 22 19 14 17 5
8 6 2 6 12 17 21 22 22 20 19 18 14 14 14 14 12 12 8 4 3 1 4 3 5 6 6 7 5 7 8 8 12 15 18 15 9 9 19 20 20 21 29 25 15 8 14
8 5 5 9 10 13 15 18 22 24 23 23 18 18 12 15 12 12 9 7 4 6 5 3 5 9 9 9 6 11 6 10 11 11 15 18 6 5 5 12 17 29 34 32 33 15 23
10 9 11 8 8 9 10 12 16 19 22 20 22 19 13 18 15 14 11 7 7 6 7 8 7 9 12 13 14 8 10 9 13 15 12 7 10 11 10 3 8 22 31 36 38 26 20
14 14 13 11 6 5 8 9 13 17 18 19 20 18 17 16 13 13 13 11 8 8 6 10 9 9 10 9 10 14 15 12 13 19 17 16 14 15 20 17 14 15 19 28 42 42 30
18 18 16 11 6 3 6 10 14 15 17 17 19 18 17 17 16 15 13 14 12 14 14 11 13 13 14 17 14 13 11 11 13 17 22 21 14 13 18 18 19 21 19 20 28 32 42
23 22 17 13 8 2 4 10 13 15 16 18 17 18 19 18 18 18 17 16 17 17 13 15 15 16 14 17 16 17 16 13 12 11 15 20 18 15 11 14 15 18 30 32 31 32 34
27 23 19 15 9 5 5 10 13 16 17 17 18 20 21 21 22 18 18 19 20 22 27 22 21 22 16 11 17 19 21 20 18 16 15 16 15 14 6 4 3 14 17 14 22 30 36
29 26 22 16 12 8 8 11 14 17 19 19 18 22 26 23 24 22 22 22 24 25 28 27 22 28 27 21 17 17 19 20 24 22 20 18 17 9 6 10 17 22 17 16 18 22 17
31 29 23 18 13 12 11 14 16 20 22 23 22 23 25 23 26 28 28 28 28 27 23 20 19 22 25 27 23 16 11 9 7 7 23 21 19 18 10 4 5 2 2 6 11 18 11
33 28 24 19 15 14 13 16 19 23 24 25 26 29 28 23 25 35 23 35 30 29 29 24 20 16 18 25 25 21 19 15 10 11 14 21 23 25 20 11 12 11 11 9 5 6 9
33 29 23 20 17 14 14 18 21 24 27 28 30 35 32 27 25 27 32 26 23 19 19 16 17 14 18 18 25 13 15 23 21 15 17 18 16 17 21 12 13 6 8 11 5 7 6
32 28 21 19 18 15 15 20 24 27 30 29 31 36 35 30 28 37 18 28 22 21 23 26 18 13 9 14 9 8 11 15 26 17 22 16 19 21 15 11 9 7 6 5 8 10 5

GFSGBSN_700_spd_078.txt.gz
Wind_Speed
22 25 27 27 27 26 21 20 23 24 22 24 26 28 27 32 28 21 18 15 11 9 9 8 8 4 2 6 9 9 13 19 28 32 30 25 28 29 24 24 26 26 24 35 40 34 36
22 24 26 27 26 27 22 20 23 23 21 23 26 26 26 28 29 21 17 13 10 8 8 9 9 9 4 3 9 11 9 26 27 29 31 21 27 25 24 23 19 24 15 21 26 29 38
21 24 26 27 25 26 21 19 22 21 21 21 24 25 26 24 26 24 17 13 9 5 4 7 8 7 7 3 1 12 11 26 29 29 29 19 23 27 27 22 18 14 17 16 24 27 25
20 23 25 26 25 26 22 20 21 21 20 20 24 25 24 22 21 23 20 15 10 7 7 7 8 8 5 3 5 6 15 24 30 33 30 20 24 28 18 21 25 17 15 16 16 16 20
19 22 24 25 25 24 23 20 21 22 21 20 21 23 23 21 19 19 20 17 16 10 8 7 8 5 4 4 3 2 10 27 27 31 31 22 23 28 20 22 24 23 19 21 15 19 17
18 20 23 24 24 23 23 21 21 21 23 21 19 20 23 21 19 17 16 18 16 17 12 6 7 3 5 4 3 3 2 19 27 27 31 25 27 26 23 25 24 24 15 20 14 24 25
17 19 22 23 23 23 23 22 21 21 21 24 23 20 20 22 21 18 16 13 16 17 15 10 7 6 4 4 5 6 1 11 28 29 31 24 27 37 29 22 16 21 17 14 22 6 31
16 18 20 22 21 22 22 22 22 22 22 22 23 22 20 21 21 21 16 13 10 14 17 18 12 7 6 6 7 8 6 24 21 25 23 13 28 33 27 18 15 23 19 10 12 15 14
14 16 18 20 21 20 21 21 22 23 23 21 21 22 22 20 22 21 17 12 6 4 15 16 16 13 7 10 10 12 9 24 16 19 23 7 20 28 28 23 17 17 22 17 4 14 13
13 15 16 18 20 20 20 19 21 22 23 22 20 22 23 22 20 21 18 12 6 2 5 14 15 12 8 12 11 13 12 22 18 14 14 11 14 24 26 22 18 12 12 13 18 7 11
11 14 15 16 18 19 19 19 20 21 22 22 20 20 22 21 19 21 19 10 7 4 4 10 12 15 9 10 13 11 15 18 18 13 6 7 17 26 26 25 19 12 10 8 8 9 12
10 12 14 15 16 18 19 19 21 21 20 20 20 19 20 20 19 20 18 10 7 3 3 8 13 9 11 9 11 16 12 16 11 9 3 12 16 18 27 22 17 10 10 8 5 6 6
9 11 13 13 15 16 18 20 21 21 19 19 19 18 19 19 19 18 15 10 3 7 1 7 7 8 6 7 9 9 15 15 10 7 5 15 17 17 22 23 20 19 12 3 1 4 5
9 10 11 12 13 14 15 19 20 20 18 17 17 16 18 17 16 16 11 6 6 8 8 5 6 6 4 4 5 2 11 13 13 9 12 10 8 16 18 22 24 25 22 5 5 4 4
10 9 8 10 11 10 12 14 17 17 19 16 15 15 16 17 14 13 11 6 4 4 5 6 5 4 3 2 3 7 10 17 19 11 7 8 7 20 16 26 22 22 26 20 1 3 2
12 8 6 6 5 6 8 11 13 15 16 15 14 15 16 15 12 11 10 7 4 3 2 2 2 2 1 2 5 4 11 11 14 19 16 5 3 17 19 22 26 16 22 14 13 2 4
12 8 4 2 3 6 7 11 13 16 16 17 14 13 17 14 13 13 9 5 4 2 2 3 3 3 2 3 3 5 5 9 15 17 17 10 10 7 19 21 23 23 19 17 13 12 4
14 8 6 9 8 8 10 13 14 15 17 16 16 13 16 16 15 14 10 8 6 6 5 5 5 6 6 6 7 7 9 9 10 19 20 19 8 8 17 18 17 25 26 26 11 7 11
15 11 11 14 11 7 6 9 10 12 14 13 15 10 16 16 16 16 13 11 8 7 8 7 7 9 9 10 7 11 12 9 10 13 15 20 11 5 3 13 23 23 30 31 27 24 21
17 13 15 17 13 9 5 5 7 11 11 11 13 12 12 15 17 19 18 13 11 10 10 12 12 11 13 17 15 8 9 9 12 13 15 12 17 10 13 4 6 17 32 33 32 27 28
18 17 20 20 15 9 5 1 6 8 10 13 14 12 14 14 15 18 19 16 15 13 13 13 14 15 15 14 15 18 17 15 11 15 19 16 10 13 16 17 19 18 17 20 36 43 35
22 22 25 22 17 11 6 2 4 7 11 13 13 15 16 15 14 17 17 18 18 15 18 16 19 19 19 19 16 7 9 10 13 15 21 21 13 14 19 17 19 23 23 22 25 29 40
24 24 27 24 20 14 7 4 4 7 10 11 13 14 15 19 18 19 18 18 20 24 20 17 21 25 22 19 17 19 18 16 14 12 15 24 23 18 18 21 21 19 31 31 33 33 32
28 27 29 26 22 16 10 7 6 8 10 12 13 15 17 22 21 23 21 21 23 24 33 28 24 31 24 26 13 16 19 20 20 18 17 14 18 17 7 7 4 14 17 16 21 24 27
30 29 31 27 24 19 12 10 9 11 12 13 14 17 19 24 27 24 27 25 29 29 31 28 23 26 27 34 30 19 20 20 24 25 24 20 18 11 7 10 18 21 19 19 19 21 17
33 30 32 29 26 20 14 12 12 13 15 17 19 19 22 29 27 27 29 33 28 40 29 28 19 14 15 21 21 15 11 13 8 8 28 24 21 23 14 6 5 4 5 4 9 17 7
33 31 32 30 27 21 16 12 14 17 19 22 23 23 25 29 30 30 29 29 35 24 29 29 12 8 14 15 20 20 17 14 12 12 12 28 26 28 23 13 14 17 14 11 7 4 8
36 32 33 30 28 21 16 13 16 19 22 25 27 29 26 28 27 28 29 26 30 31 23 22 15 10 7 13 10 18 21 20 18 15 18 20 18 19 26 15 13 16 13 15 9 7 7
34 31 33 31 26 20 14 14 17 20 23 27 29 32 33 30 28 23 25 31 31 27 23 26 19 17 9 8 8 4 8 6 16 15 21 19 23 15 16 13 16 9 7 7 5 7 8

GFSGBSN_700_spd_081.txt.gz
Wind_Speed
20 23 23 24 24 24 21 19 20 20 20 21 24 25 23 23 26 24 21 16 13 11 13 14 12 10 6 1 4 5 15 28 36 30 33 21 26 29 32 29 34 34 28 30 26 31 34
19 22 24 24 24 25 22 19 20 21 20 20 25 26 24 23 22 22 20 17 11 8 9 12 12 11 9 3 6 8 13 16 35 31 36 21 22 24 28 25 21 27 23 28 31 33 33
17 20 24 24 24 24 24 21 20 22 23 22 23 24 25 22 21 20 20 18 12 7 7 10 10 12 9 5 3 11 10 15 29 34 32 22 20 25 27 22 19 19 21 16 23 31 34
16 18 21 23 24 23 24 23 21 20 23 24 23 22 24 24 20 18 19 18 16 11 8 8 10 9 7 3 3 6 11 19 28 28 29 18 20 22 27 21 18 18 21 20 23 23 28
15 17 19 21 23 23 24 24 22 20 21 24 25 23 23 23 21 19 16 18 18 18 10 7 8 6 7 6 5 4 10 23 35 27 29 22 26 22 24 22 23 21 18 21 16 20 19
14 16 17 20 21 22 21 23 23 22 22 22 24 25 24 23 22 20 15 14 17 21 16 8 10 5 8 6 7 9 13 17 34 26 27 18 29 24 21 25 25 19 17 18 16 16 19
13 15 16 18 20 21 21 22 23 23 23 22 22 24 24 24 22 20 17 12 13 19 19 16 11 11 7 9 9 9 8 20 18 28 36 14 29 31 23 22 16 20 16 16 12 8 14
12 14 16 17 19 20 20 20 22 23 23 23 22 22 23 23 22 20 19 12 8 13 19 20 17 13 9 12 12 10 10 21 17 24 23 16 22 25 23 14 12 18 19 13 16 17 9
10 12 14 14 17 19 19 19 21 22 22 23 22 20 22 22 21 21 19 12 5 2 13 19 18 15 11 13 13 12 16 19 15 25 23 13 10 25 24 15 16 20 20 15 7 12 14
11 12 13 12 15 17 18 19 20 21 21 22 22 21 21 22 21 21 19 11 6 2 6 16 17 11 10 12 14 10 20 14 17 17 23 3 12 25 24 20 14 13 18 16 9 13 8
14 12 12 11 11 15 16 18 19 20 20 21 20 21 20 20 20 21 17 9 5 5 4 8 14 15 15 11 12 10 24 15 14 16 11 6 16 21 27 22 16 8 10 8 14 16 9
16 14 11 11 10 12 14 17 18 19 19 20 19 19 18 19 19 20 17 9 7 3 3 5 9 10 11 8 10 15 22 15 17 8 5 12 17 19 23 20 17 9 9 7 6 9 6
18 16 12 11 9 10 11 14 15 17 18 17 17 16 17 18 18 20 17 11 4 7 3 6 4 7 8 7 6 9 21 19 13 4 3 14 20 17 22 21 18 13 13 4 1 3 4
19 18 13 11 8 7 7 10 13 14 16 14 16 17 17 16 17 18 17 9 8 6 5 6 4 3 2 5 3 1 16 20 20 8 8 4 7 14 17 23 18 22 17 6 6 4 3
18 19 14 11 6 3 3 6 9 12 14 12 14 16 17 18 17 16 16 12 5 3 3 2 3 2 1 3 4 7 11 17 20 15 7 10 6 20 14 21 22 23 24 16 1 2 1
17 19 15 11 5 2 3 5 8 10 14 12 11 15 19 19 16 16 14 9 6 3 1 4 3 3 4 6 6 5 11 13 18 19 10 7 5 16 17 20 19 13 22 12 13 2 4
19 19 16 11 7 6 7 6 6 9 8 12 10 12 17 20 17 18 14 9 7 6 6 4 4 5 6 4 7 8 6 7 14 15 19 14 8 10 19 19 24 22 17 14 11 10 3
21 20 17 12 11 10 10 7 4 8 7 10 8 8 17 17 18 18 16 12 10 7 8 9 7 7 7 7 9 10 10 7 7 15 17 17 11 10 17 17 21 22 25 21 11 6 10
23 22 18 16 16 14 11 6 2 4 5 7 8 9 4 14 15 18 17 14 11 9 10 9 9 11 10 10 8 11 14 12 13 11 13 19 11 8 5 11 20 25 29 29 30 25 18
24 23 19 20 21 17 13 9 2 1 3 6 7 7 9 11 11 13 16 16 13 13 9 11 14 13 14 16 16 12 9 10 11 13 17 16 19 13 13 5 8 25 29 31 32 26 24
24 24 20 23 24 19 15 11 4 1 1 6 6 6 7 11 12 14 15 16 18 16 13 12 13 13 13 18 15 16 18 19 14 13 21 16 10 24 16 10 10 12 14 15 36 40 30
26 25 22 25 26 22 17 14 8 4 2 5 8 8 9 13 15 16 17 19 19 21 23 18 16 22 21 24 23 18 12 17 18 16 18 22 14 12 14 16 17 21 21 21 24 26 34
27 25 23 25 28 25 19 16 9 6 3 6 7 9 11 15 19 18 19 21 21 26 22 23 25 27 27 26 31 29 25 24 15 14 18 23 23 16 7 13 16 17 29 30 32 32 33
30 25 25 26 31 28 23 18 11 8 5 7 9 12 13 17 21 22 20 18 20 23 31 27 25 24 26 28 31 33 27 26 24 18 18 14 20 20 7 8 5 11 16 14 18 22 26
30 28 27 27 31 29 26 21 14 10 7 8 13 15 16 20 23 22 23 22 23 23 27 27 24 25 22 16 17 16 19 14 27 28 22 20 15 10 6 10 16 20 15 16 17 24 20
30 33 32 29 32 30 28 23 17 12 10 9 14 19 20 24 22 25 22 27 24 30 29 25 13 15 10 9 7 7 5 4 7 8 23 22 23 21 11 5 5 1 4 4 7 15 7
33 31 30 28 31 33 29 24 19 14 12 12 15 20 23 26 26 24 26 24 31 30 29 22 17 8 9 5 10 10 12 12 7 10 12 28 27 27 22 11 10 18 18 19 10 7 7
34 31 36 32 32 34 29 24 19 15 13 14 16 19 24 30 25 26 23 29 30 26 23 20 11 2 6 3 5 1 6 7 13 13 17 19 18 19 24 13 13 20 16 18 12 12 11
40 31 33 32 32 34 30 24 19 16 13 15 17 20 26 30 28 16 31 30 25 24 15 16 10 6 4 5 5 4 7 8 7 14 22 17 18 18 14 9 9 7 7 5 9 8 10

GFSGBSN_700_spd_084.txt.gz
Wind_Speed
13 16 19 21 22 22 24 22 20 20 21 22 22 24 26 26 25 24 24 21 18 12 13 13 14 15 12 2 4 4 15 24 33 31 38 27 23 26 28 29 33 29 29 24 22 23 29
14 15 18 21 21 22 23 23 21 21 21 22 23 24 25 26 24 24 21 21 19 14 12 13 12 12 11 4 4 6 4 21 34 29 33 27 24 22 24 24 27 31 20 29 25 24 27
14 14 16 20 21 21 22 23 22 22 21 21 23 24 25 25 24 22 20 20 21 18 12 12 11 10 7 5 2 5 6 9 35 29 30 27 22 24 24 23 23 21 22 20 26 30 24
17 14 15 18 20 20 21 22 23 22 22 22 23 24 25 25 23 22 18 18 21 21 13 8 9 6 5 3 2 2 8 11 36 30 36 12 29 21 24 22 18 17 22 19 20 28 31
20 16 14 16 17 19 20 21 22 22 21 20 21 22 24 24 22 21 17 14 19 20 14 10 10 8 9 7 5 5 10 21 26 27 31 12 27 23 23 21 18 18 18 25 17 25 27
21 21 15 14 15 17 18 19 20 21 21 21 20 21 23 24 22 19 16 11 15 21 19 12 15 7 9 11 7 9 13 21 27 30 27 18 22 21 23 22 22 17 16 22 19 25 25
20 22 18 14 14 15 16 17 18 20 21 20 20 20 21 22 21 19 16 9 10 22 21 19 17 14 11 12 16 10 16 24 24 25 26 17 24 19 22 19 13 14 15 16 14 14 15
21 21 20 16 14 13 15 16 17 19 20 19 19 20 21 22 22 20 16 8 7 12 21 21 19 15 12 13 15 14 18 26 29 20 24 14 19 17 23 20 13 15 14 13 12 14 13
19 20 20 17 14 13 13 15 15 17 18 18 19 20 20 21 22 20 16 10 6 7 18 18 18 15 13 14 15 17 17 18 30 18 26 14 16 21 21 22 15 15 18 14 7 12 16
20 19 18 18 15 13 13 14 15 15 17 17 18 19 19 20 20 20 17 10 7 7 7 17 11 10 12 13 13 17 17 17 24 22 22 6 15 24 20 17 17 15 20 13 11 12 9
22 18 16 17 16 12 12 13 14 14 15 15 17 18 18 19 19 20 16 10 8 6 3 6 10 10 10 8 14 16 14 14 13 21 16 6 16 27 20 18 16 12 19 18 12 10 5
22 19 16 16 14 11 10 11 12 12 12 13 15 17 18 17 17 18 16 8 8 4 4 4 8 6 8 5 7 21 14 13 16 18 18 8 17 23 20 21 18 10 13 11 10 11 12
22 19 16 15 13 9 7 8 9 10 9 11 13 16 17 16 17 16 14 6 4 6 3 4 4 6 4 4 4 22 15 15 10 8 13 10 20 19 24 21 17 15 15 6 6 7 7
24 20 18 13 11 8 5 4 5 7 9 8 12 15 18 16 16 15 12 6 7 5 6 5 5 5 1 2 2 4 16 13 15 9 16 11 11 23 25 23 15 19 19 6 6 5 4
24 21 19 14 10 8 6 2 1 3 8 7 9 14 18 18 17 14 11 10 4 3 4 3 2 2 3 3 4 5 18 16 21 15 6 7 5 23 21 29 22 20 18 11 0 2 3
26 22 19 15 11 11 10 6 4 2 5 6 6 10 15 16 18 15 12 9 5 3 2 3 2 1 2 6 6 6 10 18 24 22 15 7 5 21 16 24 26 15 19 10 10 4 5
29 23 20 16 13 15 14 11 6 2 2 4 3 7 13 14 14 15 14 9 6 4 4 3 5 6 6 7 7 7 7 10 23 19 22 11 8 11 19 21 20 28 17 16 11 10 3
32 22 21 18 17 19 18 15 9 4 3 3 3 5 9 12 12 15 14 11 9 8 7 6 6 7 9 10 11 12 15 10 10 17 19 22 9 8 19 21 21 21 21 21 12 7 12
34 27 23 20 20 24 22 18 11 7 5 1 1 4 2 9 11 13 14 13 12 10 9 10 8 12 13 13 10 15 19 16 15 13 13 20 13 7 6 15 23 27 28 27 22 18 15
41 31 23 23 24 27 25 20 14 9 7 3 2 1 4 5 8 11 14 13 16 15 10 11 15 16 15 19 17 13 14 11 14 15 19 16 20 16 13 5 11 24 26 26 28 24 23
40 41 25 27 27 31 28 22 16 12 9 5 2 2 2 6 10 11 13 15 16 18 16 15 17 16 13 17 18 19 20 21 17 16 20 20 18 24 24 12 11 8 12 22 33 36 28
50 36 35 29 29 34 31 26 20 15 11 8 4 3 4 8 11 13 14 17 18 19 20 22 17 16 20 25 23 24 20 18 21 20 24 19 11 12 12 25 16 18 19 21 22 25 31
41 33 34 29 30 35 32 28 23 18 14 9 5 3 8 11 13 15 16 18 19 20 19 21 22 27 25 22 24 29 31 30 17 16 23 25 20 12 6 10 13 14 24 26 28 31 30
44 36 33 29 28 35 34 30 26 20 15 10 6 5 8 13 14 16 17 19 20 21 24 22 25 24 25 22 21 19 22 31 30 24 21 23 24 17 6 6 6 11 18 20 21 24 26
38 35 29 33 29 34 36 30 27 22 17 11 7 7 9 13 16 15 19 21 18 22 25 23 19 12 13 10 9 8 5 7 19 23 23 18 12 8 8 13 12 12 14 14 14 20 18
37 35 28 35 31 34 36 33 28 24 17 11 9 9 10 13 14 19 21 19 21 23 19 14 9 10 8 7 4 3 3 5 2 8 27 26 21 19 10 6 6 7 6 4 2 12 7
37 35 28 37 35 32 34 34 30 24 19 14 11 10 10 13 19 22 22 22 23 22 17 10 9 5 4 4 2 3 4 5 4 5 14 23 23 23 16 10 9 14 15 16 8 7 10
35 36 29 28 33 36 35 34 30 26 21 16 12 10 11 16 21 24 21 26 23 20 12 10 6 7 4 2 0 1 3 3 4 7 4 13 11 13 16 9 13 15 18 19 11 12 11
40 45 38 28 37 35 34 33 32 27 23 16 12 10 13 19 24 26 21 26 21 16 9 4 5 5 3 3 4 4 5 6 6 4 13 11 15 8 10 9 10 5 4 6 6 10 9

GFSGBSN_700_spd_087.txt.gz
Wind_Speed
21 22 21 21 21 21 21 21 21 20 19 22 24 26 28 27 26 24 22 21 23 20 16 14 15 14 11 7 10 2 5 12 25 31 31 24 18 20 24 28 27 29 33 23 33 22 22
21 23 23 22 21 22 21 21 20 20 20 22 23 24 26 28 25 23 21 20 24 22 15 12 13 12 11 4 7 8 7 11 29 29 31 26 22 15 19 21 27 19 22 26 36 30 28
23 23 23 23 21 22 22 21 20 20 20 21 22 23 25 28 26 22 21 18 23 21 13 11 11 9 7 7 5 5 2 15 28 27 32 30 27 16 16 19 25 13 21 19 21 21 21
25 25 24 24 21 22 22 22 20 20 20 20 21 22 24 27 26 22 19 15 22 20 13 13 10 8 5 5 6 4 5 14 28 24 29 37 19 25 18 15 20 21 18 19 23 22 19
27 24 24 23 24 20 22 22 20 19 19 19 20 21 23 25 25 21 17 12 21 20 14 15 10 10 6 7 8 8 6 21 23 24 26 23 22 19 20 19 17 23 23 25 18 19 17
27 28 23 23 24 21 21 22 21 19 19 19 19 20 22 24 23 21 15 10 18 20 16 12 14 8 8 8 9 14 6 21 25 26 24 22 25 15 17 22 23 19 22 26 22 13 21
28 27 24 23 22 21 20 22 21 20 19 18 18 19 21 22 22 20 15 9 11 22 20 17 14 13 10 11 13 11 11 20 25 9 17 23 20 17 17 18 3 19 21 19 22 10 13
32 27 26 22 22 21 19 20 20 19 18 18 18 18 20 21 20 19 15 7 14 14 20 18 17 16 12 10 13 12 19 19 22 13 17 17 11 11 16 17 11 13 17 15 13 14 12
32 26 25 23 21 19 17 18 19 18 17 16 16 17 18 20 18 18 13 6 6 14 15 16 16 16 13 9 14 11 18 22 11 12 17 12 13 11 14 16 15 13 15 17 8 12 13
30 29 24 23 20 18 17 16 17 17 15 14 15 16 18 18 16 17 12 6 4 6 7 12 11 9 9 12 9 12 14 20 11 11 17 18 15 17 15 16 15 15 14 11 11 9 13
32 29 28 21 19 17 16 14 15 14 13 10 12 15 16 16 16 17 12 7 6 3 1 7 9 9 12 5 11 5 14 9 14 15 14 9 9 21 16 13 14 9 18 10 9 12 12
33 29 27 21 19 16 14 12 12 11 10 8 10 13 16 15 16 16 12 5 5 2 3 2 5 6 7 3 5 10 11 9 9 12 18 7 12 15 13 15 17 12 11 12 10 11 8
36 27 28 24 19 16 13 10 8 8 8 6 8 12 15 16 16 13 11 4 3 4 1 3 1 4 2 1 1 13 8 11 7 8 15 13 12 22 22 16 17 11 15 8 7 7 9
41 32 32 25 21 17 14 9 7 4 6 5 5 10 13 15 14 12 10 6 5 3 2 2 3 1 2 2 1 13 10 13 15 14 12 17 7 22 21 18 14 18 19 7 9 9 11
45 35 38 27 23 18 16 12 9 5 5 5 3 8 11 13 14 12 9 9 3 1 1 1 4 2 3 5 4 6 16 18 17 17 11 15 13 21 15 20 17 20 22 19 6 4 4
41 40 35 29 24 21 19 15 12 8 5 5 3 4 9 10 12 12 12 8 4 2 3 3 3 5 5 8 7 6 10 13 22 22 15 7 2 19 23 26 28 11 16 10 8 4 8
50 41 38 29 25 23 22 19 15 10 7 5 4 2 6 7 8 10 11 9 8 7 4 3 5 7 8 9 12 10 8 10 20 19 21 11 9 7 24 24 28 26 14 11 7 16 4
44 34 40 28 27 25 25 22 19 13 10 7 5 3 3 4 5 10 10 11 11 11 10 9 9 10 11 9 12 15 15 13 8 20 24 21 9 9 18 19 22 25 26 20 17 9 13
47 50 42 33 28 27 26 26 22 16 13 9 7 4 5 2 5 9 11 13 12 15 14 13 12 14 10 10 10 12 17 16 20 16 16 25 16 9 7 12 23 26 30 23 23 19 12
52 43 42 33 30 29 29 31 26 19 16 12 8 5 4 9 7 9 12 12 15 16 18 16 19 18 13 16 15 16 17 17 20 22 23 22 27 25 16 4 13 25 27 29 27 22 23
46 46 45 40 33 31 32 34 29 23 20 15 10 8 6 4 7 9 12 14 14 18 20 20 19 13 13 15 16 21 23 22 24 25 21 20 16 31 25 14 12 12 16 27 35 38 26
47 46 48 44 38 35 37 39 31 26 22 14 13 10 8 7 7 10 11 14 15 18 20 18 17 16 18 17 20 26 24 24 15 14 22 23 12 17 19 22 15 15 16 18 25 28 32
43 49 40 49 48 39 39 40 35 30 25 21 17 12 9 5 8 9 12 14 16 18 18 21 24 25 24 21 22 22 23 24 28 25 14 23 22 14 4 9 8 16 33 27 25 25 24
41 40 46 48 43 38 38 42 37 33 25 21 17 13 10 9 8 9 12 14 17 17 20 23 26 22 19 15 17 10 12 19 23 24 27 26 14 17 5 8 5 9 10 14 22 23 25
41 35 40 53 44 41 41 43 38 34 27 24 19 13 10 10 8 7 12 16 17 19 22 21 18 14 9 12 11 7 5 6 11 14 17 20 18 7 6 14 9 11 14 13 12 14 14
44 40 47 44 42 43 39 42 40 36 29 25 20 15 11 9 7 8 14 16 15 19 22 18 13 8 6 7 5 4 4 8 2 0 6 16 15 9 7 5 4 1 7 9 5 13 9
40 49 49 42 37 39 39 40 39 35 30 26 21 16 12 10 9 11 13 15 16 17 16 11 8 6 3 3 2 4 5 8 3 5 1 15 20 25 16 10 6 9 9 9 6 7 8
43 49 47 38 41 41 37 40 40 35 32 27 22 16 13 11 10 12 15 14 18 15 13 8 4 4 3 2 1 3 4 5 4 4 2 6 8 12 17 5 10 12 14 14 8 10 12
39 52 42 39 45 44 37 40 39 35 32 26 21 17 13 10 10 14 13 18 17 12 10 4 4 2 2 1 2 3 4 6 5 3 9 4 10 5 7 5 10 6 6 3 7 10 10

GFSGBSN_700_spd_090.txt.gz
Wind_Speed
23 23 25 25 26 27 26 26 27 28 26 25 25 25 26 27 28 27 26 22 27 25 17 13 13 12 11 11 13 10 7 9 16 22 18 15 13 23 19 20 41 28 34 29 21 11 21
24 24 27 27 26 27 27 26 27 28 27 26 25 25 25 26 27 26 24 20 25 20 16 14 12 10 10 10 12 10 7 6 20 24 22 19 12 20 17 17 25 34 25 26 30 19 27
28 28 28 28 25 26 27 27 25 27 26 26 25 23 24 25 26 25 22 19 23 18 17 14 12 10 11 9 9 11 8 8 22 24 24 19 22 18 17 14 18 21 36 27 28 21 19
28 33 31 29 28 25 27 27 25 25 26 25 24 23 23 24 25 24 20 16 22 17 17 12 12 12 11 9 11 15 12 18 22 21 23 21 23 18 23 16 16 33 15 20 23 20 29
29 33 32 28 29 24 25 26 25 24 25 24 23 22 21 22 23 22 18 14 21 17 13 15 16 12 10 11 10 13 18 16 20 21 21 19 19 20 20 16 14 20 11 18 12 20 26
34 33 33 32 27 26 24 24 24 22 23 23 22 21 20 20 21 20 17 12 18 17 14 15 16 11 11 10 14 11 14 18 14 15 20 22 16 18 17 17 19 21 23 17 19 18 25
36 31 34 34 27 29 23 22 22 22 21 21 21 19 18 18 18 18 14 10 13 20 20 19 15 14 9 13 14 14 16 12 12 10 16 15 23 19 18 15 7 10 19 16 20 19 17
32 38 32 35 29 31 24 20 19 21 19 19 18 17 17 17 16 16 13 6 14 15 21 18 17 13 11 9 14 12 14 13 9 4 9 21 14 11 8 15 14 14 19 22 9 14 15
35 38 35 35 29 29 24 19 17 19 18 16 16 15 16 16 15 15 12 6 2 8 16 14 12 12 9 9 10 11 11 14 7 2 6 20 12 16 12 15 12 10 19 16 9 10 9
41 35 38 38 29 31 26 18 15 16 15 13 12 13 14 15 14 14 10 7 1 3 5 11 11 6 7 9 6 7 12 15 12 5 10 4 8 15 12 12 14 10 7 13 12 4 6
47 42 31 41 31 29 26 19 14 14 13 10 9 11 13 15 14 12 10 7 4 4 2 6 7 5 4 2 6 6 11 13 8 13 9 7 4 15 12 10 13 9 15 6 8 9 11
36 48 36 33 35 28 25 20 15 11 9 7 6 8 11 14 13 11 10 5 5 3 1 4 4 4 7 5 4 5 12 10 13 9 16 8 5 15 14 11 15 11 11 9 6 4 4
36 50 43 28 39 25 24 21 16 10 7 6 4 6 9 12 12 11 9 4 3 4 2 3 3 5 1 5 6 7 8 12 8 11 16 17 8 15 20 15 15 12 13 4 1 4 5
45 34 48 34 36 37 27 22 17 11 7 5 4 3 6 10 11 12 9 3 5 2 2 3 3 3 4 5 4 7 10 13 14 12 6 16 8 16 21 23 12 19 19 6 4 4 5
52 38 45 39 44 36 28 22 18 14 8 6 7 1 3 6 8 10 6 10 3 2 3 2 5 3 4 7 6 6 13 18 18 18 12 12 13 15 16 25 17 17 22 17 8 9 4
52 47 42 42 38 35 29 23 20 17 11 8 9 5 1 3 5 6 6 7 6 6 5 4 1 5 6 8 8 5 9 6 19 20 21 10 7 16 20 23 25 15 23 13 9 2 3
51 44 43 45 35 32 29 25 23 21 15 11 9 8 3 0 1 1 4 5 7 8 7 6 4 9 9 11 15 13 9 12 12 19 22 15 12 8 22 28 25 28 24 13 8 10 2
62 45 41 46 37 38 30 27 26 24 17 15 10 9 7 4 2 3 4 6 8 10 10 11 12 12 12 11 16 17 17 15 20 12 25 29 7 12 18 23 25 22 25 21 8 5 13
61 39 38 46 48 41 35 28 30 27 20 15 11 9 8 6 3 5 7 8 8 11 13 13 13 14 10 14 11 11 10 14 17 14 11 18 17 3 6 13 21 29 34 26 24 12 12
40 45 44 42 55 39 34 31 33 27 24 18 14 9 10 9 9 8 10 11 11 12 14 14 16 15 17 13 15 18 19 14 14 17 21 20 14 22 23 7 11 22 29 34 30 22 22
39 44 52 38 44 44 35 34 36 29 28 22 18 12 10 6 8 8 9 11 12 14 15 17 16 8 11 14 15 19 22 23 24 21 18 20 20 24 30 26 22 14 15 31 35 35 25
40 45 46 48 42 39 37 37 41 36 33 27 19 12 12 9 8 8 7 10 11 13 16 15 16 19 22 20 16 27 27 23 22 19 17 10 10 18 24 28 25 23 27 19 26 36 41
40 46 43 49 41 48 41 40 44 40 35 29 24 16 15 11 9 8 7 8 13 14 15 18 22 22 20 17 14 14 19 20 23 21 20 17 7 13 4 16 20 11 26 33 28 28 32
40 49 48 49 42 48 44 42 46 41 35 29 24 14 19 13 10 8 7 9 13 16 15 20 24 20 15 11 12 10 8 10 11 19 15 15 16 14 6 14 4 9 10 7 27 27 27
49 43 44 48 34 46 43 43 45 44 36 32 25 21 16 14 10 9 8 13 14 15 17 18 18 13 10 8 11 5 6 7 9 6 13 8 11 7 6 11 3 6 7 10 13 18 20
44 43 49 41 35 50 56 47 47 45 37 31 27 20 20 15 13 8 10 14 15 16 19 17 12 9 7 6 7 5 4 8 6 4 4 10 10 10 5 2 1 3 4 7 7 9 7
38 36 45 42 38 46 54 49 46 44 37 34 24 25 21 16 13 11 11 13 13 16 17 16 9 5 4 4 4 3 3 8 3 6 2 8 10 16 14 8 5 7 5 2 2 3 2
31 40 42 35 46 44 47 51 50 47 38 35 26 25 22 16 12 11 10 13 15 16 15 12 7 4 3 2 1 1 2 3 4 3 3 4 5 7 10 6 4 7 8 5 4 6 8
29 42 39 40 49 52 50 50 43 40 36 34 27 26 21 16 10 10 12 13 15 15 12 11 8 5 3 2 1 1 3 3 3 3 5 5 9 4 8 8 4 2 6 4 9 8 10

GFSGBSN_700_spd_093.txt.gz
Wind_Speed
28 27 29 29 30 30 29 27 26 28 28 28 29 28 27 27 27 27 26 24 28 24 22 16 14 10 9 14 10 11 9 4 9 14 21 26 25 25 20 36 38 32 33 21 15 21 25
25 28 27 33 31 35 32 29 27 27 27 27 28 27 26 26 26 25 24 24 26 22 20 17 13 11 13 10 14 13 16 10 13 9 27 14 28 19 14 16 34 32 31 26 13 21 26
24 25 27 27 34 37 33 29 27 25 26 26 27 25 24 24 24 23 22 22 24 22 20 17 13 12 15 14 15 17 16 9 9 16 15 10 18 22 16 16 13 18 31 24 21 15 20
26 25 23 31 32 35 33 31 28 25 24 24 25 24 22 21 22 21 20 20 24 21 18 14 13 13 17 15 15 17 13 11 18 16 15 11 14 19 19 14 15 18 24 21 28 26 11
27 29 26 26 32 34 37 32 29 26 23 22 23 23 20 19 19 18 17 18 23 22 16 11 10 14 14 18 15 15 14 18 18 18 15 15 20 20 18 18 16 16 13 21 19 21 26
30 31 33 23 24 28 33 34 32 26 23 20 20 20 18 18 17 16 14 15 20 19 16 13 13 11 12 14 16 14 8 14 17 19 14 15 17 16 20 19 11 16 18 6 11 20 24
34 32 34 32 23 26 34 33 33 27 22 19 18 17 16 16 15 14 11 11 14 20 16 18 12 13 10 13 13 12 13 14 15 16 17 15 14 15 15 17 8 10 18 13 12 11 14
37 36 31 36 26 26 33 32 29 29 22 17 15 14 13 14 13 12 9 7 9 15 14 13 11 10 11 9 13 10 8 12 12 6 16 19 17 12 14 17 10 8 14 21 12 17 20
44 39 37 31 39 22 23 27 30 31 23 17 12 11 11 12 11 11 7 6 6 7 13 10 9 7 9 9 8 8 9 11 6 7 9 17 19 16 16 14 10 9 15 16 17 15 10
52 43 41 29 38 28 29 30 28 29 23 17 10 8 9 10 10 8 5 6 5 3 4 8 6 6 5 7 6 7 7 10 6 5 13 11 11 15 14 12 10 9 11 13 11 16 10
60 49 47 44 32 40 23 26 25 27 23 16 9 6 6 9 8 6 4 6 5 4 3 4 5 2 4 5 4 2 8 7 7 6 7 6 9 11 17 16 12 7 7 10 18 15 8
56 53 50 44 31 35 28 27 28 28 22 15 10 4 3 5 5 4 5 5 5 2 1 2 3 3 4 6 3 3 8 10 10 6 13 8 5 11 17 16 15 12 12 8 11 7 3
58 60 50 49 44 36 37 26 27 26 22 15 11 5 0 2 2 4 6 4 3 4 2 3 4 4 3 5 10 7 8 12 8 9 13 17 9 11 18 19 14 15 14 3 1 2 5
63 66 52 56 35 32 41 28 33 28 23 17 13 7 3 1 4 6 6 5 3 1 1 3 4 5 3 4 4 8 6 11 13 12 7 11 8 16 14 23 16 19 19 6 5 4 4
58 57 53 60 40 34 40 27 35 23 24 18 16 9 6 4 4 5 5 3 3 3 3 2 6 3 3 4 4 5 9 12 15 19 11 7 10 11 19 22 22 18 24 11 2 5 1
41 39 41 62 54 31 37 33 32 25 25 20 18 12 9 7 5 4 2 2 2 4 4 4 2 5 3 7 9 6 6 7 8 13 20 12 9 14 18 17 24 17 25 16 8 3 3
37 36 38 58 58 32 38 32 27 28 29 24 20 16 12 9 7 4 3 1 1 4 6 4 6 7 12 9 11 14 9 12 15 10 21 28 20 9 18 26 31 30 19 19 11 8 4
36 41 36 45 54 41 37 29 33 28 33 26 21 20 16 11 10 6 4 4 6 6 7 9 10 11 11 8 15 14 12 14 16 20 15 28 12 16 27 19 27 28 31 27 15 7 14
33 40 40 41 52 36 37 38 39 33 33 25 23 21 16 14 10 7 3 5 7 7 9 10 11 14 11 12 10 8 8 13 12 11 7 9 13 9 7 17 19 24 32 32 23 13 15
23 25 36 41 36 43 38 39 38 30 35 30 23 19 17 16 13 7 4 7 5 9 10 12 14 15 15 16 12 10 12 17 19 16 15 15 10 8 9 2 9 22 33 28 35 13 10
21 30 36 37 41 41 35 43 35 31 37 33 27 18 14 13 14 8 6 7 8 11 11 12 13 12 12 14 19 21 22 25 25 25 21 16 14 11 20 20 18 9 19 30 37 34 24
19 28 18 29 40 46 33 44 36 37 42 36 30 18 15 11 10 8 6 5 7 9 13 15 16 17 18 21 21 24 20 18 16 18 15 10 12 13 16 19 23 24 27 23 21 28 40
18 27 25 30 41 42 39 42 44 49 44 39 31 19 15 13 11 8 6 5 7 12 14 15 17 19 19 12 11 10 13 13 16 17 14 9 10 13 5 9 21 20 33 26 35 27 28
20 26 35 34 40 45 39 42 47 47 42 35 29 24 22 17 13 9 7 6 9 13 15 17 19 18 14 10 6 7 5 6 10 9 7 5 4 7 8 1 1 6 8 13 17 25 33
26 38 44 32 35 41 35 53 45 46 43 38 30 21 21 14 15 11 8 8 10 13 14 15 14 14 10 8 5 1 5 6 9 6 1 5 4 3 3 4 5 3 3 8 9 11 17
26 40 41 38 38 44 42 47 41 44 43 38 33 29 23 18 15 11 10 8 11 12 17 14 14 12 7 5 2 2 2 6 4 4 6 4 7 7 1 2 2 2 5 3 3 7 7
23 28 42 46 34 45 38 45 47 46 44 40 33 30 25 20 19 11 10 10 11 13 16 16 12 9 5 2 0 2 2 4 1 2 2 3 5 10 9 6 5 3 4 2 2 1 1
25 33 48 41 43 45 43 54 49 48 46 46 34 29 24 19 18 12 10 10 11 13 14 13 10 5 4 1 1 1 1 1 1 2 1 3 4 6 7 7 5 4 4 5 6 9 8
27 34 45 39 43 40 39 57 50 46 47 42 38 32 25 21 13 14 12 11 11 13 15 12 10 7 4 3 1 1 3 2 2 2 7 5 7 5 5 4 9 13 11 10 11 13 11

GFSGBSN_700_spd_096.txt.gz
Wind_Speed
25 24 25 23 21 25 29 31 30 29 29 28 26 26 24 23 23 24 24 26 27 26 24 19 15 11 9 11 9 13 10 9 4 5 5 23 19 15 13 20 15 25 15 21 28 34 32
25 26 26 28 21 24 26 30 31 32 29 29 26 25 23 21 21 21 21 24 25 24 20 16 13 12 10 11 17 16 16 13 4 3 15 18 20 10 9 13 34 16 19 25 28 31 30
26 27 27 30 30 27 23 24 29 33 30 29 27 24 21 20 19 19 18 21 24 20 15 14 13 11 12 13 17 16 17 7 2 2 12 7 17 12 9 9 20 31 4 14 26 30 29
28 29 30 31 33 33 20 19 26 33 33 30 26 24 20 18 16 16 14 18 22 16 12 14 13 11 14 11 19 13 15 14 12 7 5 13 17 15 14 7 14 29 26 17 16 15 16
35 29 31 30 32 37 31 21 20 30 32 30 26 23 18 16 14 13 11 15 20 14 11 12 9 8 12 11 14 14 12 18 14 16 16 11 19 17 13 19 15 13 18 15 12 12 9
44 39 34 32 32 32 35 31 21 23 31 29 26 22 17 14 11 10 7 9 16 11 9 12 12 9 9 10 12 11 13 16 16 15 16 18 15 15 17 16 10 15 18 20 20 12 19
47 49 41 37 36 29 36 35 27 23 26 27 25 22 15 13 9 7 4 5 8 9 7 11 6 9 10 8 8 8 11 14 17 14 18 18 17 18 16 15 9 7 12 16 13 11 7
49 52 50 42 37 40 31 34 31 21 24 26 24 21 14 12 8 5 2 2 5 5 4 5 8 10 10 8 8 8 6 10 8 10 13 15 16 17 18 16 13 12 16 17 16 7 11
49 49 49 42 43 40 39 31 35 20 23 26 21 20 14 12 7 4 1 2 3 5 3 3 6 7 8 7 4 5 9 10 6 5 12 17 13 15 17 18 13 9 12 13 12 12 13
45 46 36 39 40 41 49 33 32 25 24 21 20 18 13 12 7 3 3 3 4 4 2 3 1 2 3 6 2 2 5 3 3 1 10 10 12 14 18 14 9 8 11 13 15 17 15
50 47 48 44 36 41 50 38 35 32 17 24 21 17 13 11 7 4 4 5 5 6 2 3 1 4 2 3 1 2 3 5 5 3 7 7 12 15 15 13 11 8 7 10 14 17 13
48 47 49 52 46 38 49 43 29 33 20 24 21 16 13 11 8 6 6 7 7 3 3 1 2 4 3 5 4 4 6 8 7 7 11 8 9 11 17 16 15 8 11 10 16 18 5
44 43 47 52 53 40 43 46 29 29 21 25 18 16 14 12 10 7 8 9 4 3 3 2 1 2 3 3 3 2 5 11 9 7 11 13 15 11 18 20 13 14 19 5 3 5 4
42 41 43 49 54 46 41 41 30 28 34 26 18 18 15 13 10 10 10 8 4 4 4 3 2 2 2 1 2 6 8 7 10 11 6 4 7 16 16 25 23 20 22 4 5 3 4
45 45 43 50 55 51 46 41 27 28 26 33 21 20 18 14 12 12 12 6 4 4 3 2 2 3 2 2 5 4 6 10 6 13 11 6 8 11 16 18 25 22 23 16 1 1 1
46 43 45 44 44 45 47 38 41 25 29 29 20 21 21 16 14 14 12 6 6 4 3 1 2 2 2 3 6 5 5 6 4 3 9 11 10 12 16 18 25 21 21 12 10 5 4
42 42 37 34 34 31 38 37 49 30 39 21 23 24 23 18 16 15 12 7 7 5 2 2 3 5 6 8 9 12 7 7 10 13 12 15 21 8 15 22 30 28 23 18 11 9 4
37 37 34 35 32 35 33 35 52 35 40 29 27 29 24 20 19 17 12 9 6 5 4 5 5 6 6 7 9 8 12 8 11 11 12 15 12 19 31 18 25 27 33 30 16 8 12
34 36 36 31 30 36 32 36 37 37 41 35 32 32 27 22 20 16 11 9 6 5 4 5 6 9 8 8 6 7 6 10 11 12 8 8 8 9 7 14 23 31 35 33 32 20 21
28 25 24 25 31 31 35 39 25 39 40 35 32 33 25 24 23 18 12 7 4 2 5 7 8 11 10 11 12 9 10 12 13 16 18 18 14 14 7 9 4 23 25 37 34 22 20
21 21 15 17 27 21 21 55 29 42 35 35 35 29 22 23 27 18 11 6 3 2 5 8 9 9 11 10 14 15 18 21 22 21 20 18 16 15 17 17 16 17 18 25 40 34 21
21 14 8 16 16 17 33 34 35 40 40 37 38 30 23 16 23 18 12 7 4 2 7 10 10 12 14 15 14 20 14 10 8 10 9 7 10 12 21 21 20 17 17 21 21 31 36
11 11 14 20 17 27 33 48 34 43 50 42 38 26 24 20 20 18 11 8 5 4 7 10 11 13 14 10 8 7 7 6 9 11 8 7 6 3 6 11 8 14 20 26 25 24 23
11 13 15 25 14 42 51 28 44 43 37 37 39 24 24 20 16 12 10 9 4 6 10 11 11 12 10 6 4 3 0 2 7 8 4 5 5 5 5 3 3 7 5 5 17 16 22
16 16 18 24 17 40 49 30 50 48 37 40 38 30 30 17 14 12 9 8 6 6 10 13 12 11 6 3 2 3 1 1 5 8 2 7 5 3 2 3 8 3 4 4 6 8 8
16 17 17 29 25 33 38 34 40 45 43 37 37 31 30 15 15 13 9 8 7 8 11 12 11 9 4 1 2 3 2 1 2 3 2 7 3 2 1 3 3 1 8 4 5 4 7
15 14 19 27 29 30 30 40 39 41 39 35 39 34 29 26 13 12 11 9 7 8 11 13 11 8 3 3 2 4 3 2 3 1 2 2 4 9 7 5 3 6 4 4 2 2 2
16 15 20 28 34 30 23 24 44 44 40 40 40 37 29 24 18 15 12 9 9 9 10 14 11 5 4 5 4 3 4 4 4 6 4 3 3 4 4 5 7 8 10 10 6 5 6
19 17 21 31 32 31 24 30 44 42 44 41 41 38 34 30 19 15 12 9 10 10 12 14 10 8 4 6 5 4 4 4 4 3 9 5 9 4 6 4 7 11 14 15 12 11 10

GFSGBSN_700_spd_099.txt.gz
Wind_Speed
27 22 24 26 28 30 26 32 31 29 32 29 28 29 28 25 23 22 18 21 22 19 20 19 20 16 14 9 10 11 13 13 14 6 10 20 18 12 10 35 38 2 6 31 32 36 32
35 31 28 27 27 28 29 31 30 26 28 32 28 27 27 25 22 20 16 19 18 16 17 16 17 14 13 15 16 15 14 13 12 13 9 16 11 8 6 25 40 6 15 31 28 35 33
39 38 34 32 29 29 30 29 35 31 28 32 30 26 26 24 20 18 15 16 14 13 12 12 13 15 10 9 16 14 15 14 16 23 17 11 8 7 7 12 19 18 10 31 26 33 36
40 42 40 37 34 30 29 28 33 38 30 27 30 27 25 23 19 16 12 12 10 9 9 9 11 14 13 10 14 13 12 11 16 9 14 16 6 9 11 8 8 19 21 12 20 27 31
40 41 41 40 38 34 31 32 30 33 30 28 30 25 23 22 17 14 11 8 7 8 9 8 9 12 13 8 12 9 9 12 13 10 14 17 15 11 8 12 9 9 4 15 11 11 21
41 41 42 44 42 38 35 37 34 32 34 28 25 24 23 21 17 13 11 5 5 2 4 4 9 5 10 7 8 6 9 9 12 12 13 18 15 11 12 10 5 9 12 10 12 12 10
41 40 43 44 46 43 39 38 37 38 30 37 30 21 21 20 16 12 11 6 3 2 4 5 4 5 7 8 8 6 6 5 6 9 11 12 12 15 13 5 5 2 8 12 22 17 15
48 47 46 42 40 45 40 41 41 38 35 28 28 23 20 19 15 12 12 9 3 3 1 2 3 6 7 6 7 4 2 4 6 4 8 10 10 10 11 7 6 7 7 12 11 10 9
51 50 49 47 38 38 37 37 45 43 35 32 32 28 18 16 15 12 13 11 7 3 4 2 2 3 4 4 3 4 3 3 4 7 8 10 9 12 12 11 8 7 10 11 7 13 12
48 47 46 43 39 37 39 31 40 47 36 26 25 20 14 14 16 12 13 13 10 7 5 4 4 3 2 2 2 2 5 4 3 4 8 11 14 13 13 11 14 7 6 10 11 12 7
47 45 44 45 42 41 39 36 36 43 37 26 32 25 16 13 15 12 12 12 11 7 3 5 5 4 3 2 1 1 3 5 6 4 7 7 13 16 15 14 13 9 4 9 10 16 10
43 42 44 46 44 45 43 41 37 35 34 30 28 25 16 14 16 12 11 13 10 5 5 5 4 3 3 4 3 4 5 7 7 8 10 10 12 13 16 18 14 9 9 8 13 15 6
43 42 42 43 45 46 44 42 35 33 35 41 27 27 15 17 16 11 12 14 7 7 4 5 4 3 3 3 1 1 3 7 9 6 11 13 15 16 14 18 16 14 12 2 2 4 4
44 43 44 42 42 43 43 40 30 29 28 44 25 26 15 19 16 12 14 17 8 6 7 6 6 4 4 3 3 2 4 6 6 11 9 5 7 20 18 22 19 22 20 7 6 3 2
45 47 47 44 41 42 44 40 30 19 25 38 30 29 17 21 18 14 19 18 4 6 7 7 6 6 5 4 4 4 6 8 5 4 6 6 6 7 17 18 24 18 22 21 4 2 1
45 48 47 41 35 35 46 39 35 20 22 35 32 27 19 23 18 17 22 17 8 9 7 6 3 4 3 3 3 3 4 5 5 2 4 5 8 12 10 15 24 21 19 9 7 4 4
45 48 45 39 30 31 41 31 25 25 17 31 30 32 28 23 19 21 25 15 11 11 8 6 5 4 4 4 5 7 5 6 8 12 10 13 16 7 10 17 25 26 21 13 7 6 4
44 46 34 30 30 30 26 24 24 34 16 24 29 26 26 24 22 27 25 15 12 11 9 7 6 6 5 5 6 8 11 11 5 8 10 10 12 9 17 17 21 29 26 25 9 6 11
41 35 31 24 29 31 24 24 33 30 21 25 29 28 23 27 25 24 17 15 10 9 9 7 5 5 5 5 4 6 10 11 11 10 6 5 6 5 8 10 23 16 30 29 29 15 18
30 25 23 23 22 21 25 26 37 17 26 39 34 28 25 29 30 23 20 14 11 10 9 7 6 7 7 7 8 7 9 9 9 11 13 18 20 18 12 15 17 12 24 26 31 18 23
21 20 18 18 18 14 23 35 33 11 29 33 42 25 29 31 31 21 19 13 13 7 5 3 4 4 6 6 9 12 13 17 18 19 18 17 16 18 23 16 17 20 15 13 31 37 21
15 19 19 17 8 11 29 17 28 17 38 39 45 19 30 24 28 21 21 14 11 6 1 3 4 6 8 10 10 14 13 9 7 8 10 13 8 8 18 18 20 23 19 17 18 29 38
14 18 17 11 10 17 12 14 41 28 31 49 38 31 26 25 24 25 19 13 11 5 1 3 5 8 9 9 8 7 6 6 7 10 14 6 4 4 3 2 7 9 10 13 20 25 22
13 14 14 15 12 4 9 17 18 36 38 41 39 34 20 22 19 25 18 14 11 4 2 6 8 8 8 7 4 4 3 3 4 8 5 3 4 5 5 2 2 3 5 9 5 13 20
16 13 12 12 19 5 14 19 30 33 42 40 37 29 22 21 22 23 16 15 11 3 3 7 9 8 7 4 4 4 3 3 3 5 1 6 3 1 3 6 8 4 6 4 7 6 3
17 13 10 10 15 8 11 26 40 29 33 42 39 27 21 25 22 17 14 13 8 3 4 8 9 8 7 4 5 5 4 3 2 1 1 5 5 1 1 3 2 3 3 1 4 3 2
21 14 9 10 14 16 12 23 40 31 40 42 41 28 22 23 23 17 14 11 7 4 5 8 11 8 5 6 7 5 4 4 3 4 3 6 6 7 7 5 7 9 6 2 4 2 2
25 17 10 10 13 15 18 20 20 44 42 38 41 33 25 21 20 16 13 11 8 5 6 9 11 5 6 6 5 4 5 6 5 6 3 3 3 5 4 5 7 6 8 7 5 6 6
31 21 13 12 13 19 23 24 31 32 42 43 41 39 26 22 22 16 12 11 9 6 6 9 11 9 4 5 6 5 6 5 7 4 10 5 8 4 6 5 10 11 13 14 13 15 16

GFSGBSN_700_spd_102.txt.gz
Wind_Speed
39 38 37 35 33 30 30 31 29 29 31 29 31 31 33 32 27 24 21 18 18 11 11 14 16 15 17 12 7 12 12 12 17 8 2 11 17 12 11 23 32 35 11 9 14 28 38
38 39 39 39 38 35 31 31 30 28 33 32 33 30 31 32 26 23 22 16 16 9 7 10 13 16 13 11 9 8 11 13 20 26 19 17 9 5 5 18 26 43 18 13 18 22 40
40 40 41 40 40 38 36 31 32 31 25 32 35 29 31 29 25 21 20 14 14 8 5 8 10 15 13 10 7 12 16 17 22 15 10 9 7 3 4 12 33 37 24 11 12 30 34
43 43 44 43 41 40 37 34 34 35 33 27 31 34 30 25 24 19 19 14 13 8 4 7 11 10 9 13 10 10 11 12 10 12 17 15 11 7 3 10 13 19 23 28 8 24 32
43 43 44 42 44 45 42 36 36 37 33 33 32 31 34 29 22 17 18 14 11 8 5 6 9 10 7 8 11 7 8 8 10 17 16 13 11 8 7 8 5 12 12 21 19 8 27
47 47 48 47 44 40 44 45 35 39 40 34 31 27 29 36 20 16 14 15 12 11 12 8 8 5 9 7 7 4 5 9 9 9 14 10 10 10 9 7 5 11 12 15 19 16 25
52 53 52 53 54 47 41 39 37 33 42 39 30 31 32 31 19 15 13 15 13 14 9 3 7 5 5 4 6 5 5 4 5 9 10 9 6 9 7 4 5 5 9 9 15 12 8
52 53 54 55 55 56 48 39 39 30 32 42 36 28 31 23 27 15 12 14 12 13 11 6 6 4 3 2 4 4 2 3 0 5 8 9 9 6 7 2 2 6 9 14 15 9 4
51 51 50 50 51 52 47 39 37 34 33 30 34 31 29 30 21 16 12 12 12 13 12 10 8 4 2 3 3 4 2 1 2 3 4 7 6 6 6 6 2 4 6 5 2 12 8
47 47 47 50 50 48 44 38 37 35 34 30 24 45 27 32 13 14 9 10 10 12 10 8 10 8 4 3 1 1 1 2 4 4 3 5 10 9 11 10 7 5 3 6 4 3 1
42 43 46 48 48 47 44 44 39 37 32 25 22 30 30 21 12 14 8 7 8 9 3 6 11 7 7 5 2 3 3 5 7 6 6 4 6 12 11 11 8 7 2 3 5 8 5
43 40 41 39 39 40 40 41 36 37 29 22 23 24 35 25 12 14 8 5 7 5 7 7 7 6 7 7 6 5 6 7 8 10 12 13 11 8 11 11 11 9 5 2 7 9 4
44 43 42 38 36 37 38 40 31 31 23 21 25 16 29 24 11 14 9 9 6 8 5 7 7 7 6 6 5 2 3 4 6 6 10 13 16 13 11 12 14 15 10 2 2 3 3
46 44 43 41 37 37 37 37 32 25 19 22 22 16 25 25 13 15 12 16 9 6 7 8 8 7 5 5 4 5 5 6 5 7 9 6 5 14 15 16 11 18 19 6 5 3 3
48 46 40 37 36 38 35 37 30 18 16 10 11 20 23 23 16 15 17 16 6 5 8 7 8 7 7 7 4 6 6 6 3 1 2 3 4 6 14 13 17 14 19 17 2 3 2
50 41 38 37 36 39 33 32 27 17 12 11 17 19 17 21 19 17 21 19 12 8 7 7 6 6 6 5 5 3 3 2 2 2 3 5 8 8 12 14 16 17 13 8 10 3 4
41 39 40 40 37 34 29 28 22 17 14 18 17 21 22 22 19 20 25 24 18 11 9 7 7 4 5 4 6 5 3 4 5 6 9 12 10 10 7 9 17 18 18 11 8 6 4
38 40 38 32 29 22 22 21 21 16 18 19 16 19 18 26 24 24 27 16 15 11 12 8 6 7 6 4 5 5 6 7 4 5 8 10 9 12 21 18 15 15 19 18 9 5 5
37 35 28 23 20 11 12 16 18 18 26 19 21 15 12 28 26 23 24 19 13 10 12 8 6 6 6 5 4 6 7 9 10 10 5 5 5 6 8 7 4 8 11 22 17 13 11
31 28 23 20 17 14 14 19 23 26 30 18 25 16 16 26 30 26 18 15 16 13 11 11 7 6 6 6 7 6 7 6 7 9 11 14 16 14 12 17 19 17 15 12 24 9 12
27 21 20 22 17 19 16 18 28 29 33 20 30 20 25 28 31 18 19 15 15 9 10 8 5 6 5 4 7 9 10 11 13 14 15 12 14 15 19 22 20 17 15 16 14 19 15
23 20 19 17 15 23 1 11 24 35 28 29 37 20 24 18 25 22 25 20 15 12 7 4 4 4 6 7 8 10 9 8 6 6 9 14 7 9 15 10 16 18 19 18 18 18 28
22 17 19 18 14 18 9 16 30 30 20 35 36 31 26 21 17 26 24 19 14 12 5 2 2 4 6 7 7 6 5 5 5 7 12 4 1 3 5 6 2 7 5 6 12 18 18
22 14 20 17 18 16 20 10 12 26 27 40 39 26 22 17 22 25 21 14 14 11 4 2 3 4 5 6 3 3 3 2 4 7 8 1 1 2 4 3 1 2 4 3 7 8 7
20 15 17 16 16 24 14 6 16 23 32 41 32 34 14 14 16 25 19 17 16 10 4 2 4 4 5 3 2 2 2 2 3 4 3 2 1 2 3 4 6 1 5 2 3 8 3
21 16 16 15 10 19 12 8 9 22 23 26 31 35 17 19 24 25 22 21 16 9 4 2 3 5 4 3 4 3 1 2 2 2 2 3 4 2 1 2 2 2 5 5 4 4 2
21 17 17 12 5 11 7 21 17 20 19 30 33 30 23 17 20 25 21 19 16 11 5 3 5 6 2 3 5 4 3 4 2 2 3 7 7 7 5 5 4 4 6 3 3 2 3
20 20 19 11 8 8 9 24 20 16 23 35 39 29 24 26 23 24 16 15 14 11 5 3 6 5 5 3 3 4 4 6 5 5 3 3 3 5 4 4 4 2 4 3 6 8 6
20 22 23 14 11 10 20 27 25 17 31 40 39 32 24 14 21 21 20 16 15 11 5 4 6 8 4 4 5 5 5 5 6 3 7 5 6 3 5 5 11 15 18 17 16 14 13

GFSGBSN_700_spd_105.txt.gz
Wind_Speed
36 35 37 38 39 39 39 38 34 32 32 28 28 26 34 33 29 31 29 23 19 15 14 12 13 14 10 12 8 7 8 8 6 4 9 11 12 8 6 14 18 22 27 19 26 3 21
39 40 41 42 43 42 39 38 37 36 33 32 24 26 30 27 32 29 27 24 18 15 15 12 12 13 11 11 13 8 10 11 13 12 12 12 9 4 1 8 17 28 25 4 19 6 18
42 42 43 43 43 43 44 40 35 35 36 36 31 29 25 36 30 33 29 26 17 14 14 14 15 13 8 11 11 1 11 9 11 14 12 9 7 5 4 6 19 22 35 7 6 11 12
42 45 45 45 44 43 42 40 39 36 34 36 37 26 30 27 35 32 34 30 18 12 12 14 14 12 8 10 10 6 4 5 5 6 9 7 6 8 4 8 13 24 22 20 24 25 12
43 45 47 49 48 48 46 45 39 36 33 33 35 37 30 29 27 27 21 27 20 13 14 14 17 15 7 7 7 7 7 5 12 9 4 7 5 7 10 8 7 10 17 22 31 34 14
44 46 48 50 52 53 53 47 43 36 31 32 34 33 36 28 26 30 21 20 23 13 14 16 15 9 8 6 5 5 7 8 7 8 6 6 4 5 11 2 6 14 15 19 23 27 13
46 46 47 49 52 52 51 50 44 40 33 32 31 31 33 33 30 28 23 17 22 15 13 13 13 8 5 3 4 2 5 8 7 8 5 4 5 7 5 5 5 8 18 10 10 12 12
47 49 50 50 49 48 47 48 46 38 35 31 30 32 28 26 25 29 24 22 20 15 15 12 15 10 4 3 3 2 1 4 7 8 6 5 6 2 4 7 5 3 5 4 6 6 6
48 48 48 48 48 46 46 45 46 32 33 30 29 30 25 26 31 22 21 19 17 14 14 16 15 13 6 2 1 1 1 3 3 6 7 7 6 4 3 2 5 4 4 4 3 8 2
47 46 46 44 43 40 39 37 36 27 28 27 25 26 20 19 25 27 14 9 17 11 10 8 9 12 9 5 3 0 2 3 1 2 6 6 7 6 4 4 3 3 2 3 1 7 2
45 44 42 41 40 38 33 32 33 25 25 24 19 22 22 19 15 17 10 8 14 6 3 4 12 9 8 6 3 1 4 6 7 5 3 3 3 9 9 8 7 6 4 3 6 8 2
42 43 42 41 39 37 31 31 33 26 23 19 13 19 21 16 15 20 9 9 9 4 6 5 7 8 8 6 5 3 4 5 7 9 9 8 7 7 11 10 11 7 6 4 7 7 2
43 43 43 43 41 35 32 30 31 26 22 13 16 19 18 12 13 17 11 12 7 7 3 4 7 8 7 5 3 2 4 6 5 5 4 9 7 8 7 12 12 13 10 2 3 3 3
44 45 46 43 35 32 30 27 27 24 18 13 14 12 16 9 11 18 13 17 9 4 6 3 6 8 6 5 2 3 6 7 6 6 7 6 3 6 4 12 11 18 18 5 5 4 3
44 45 42 36 35 33 31 28 26 16 10 10 4 7 10 14 10 12 17 14 5 1 4 4 6 6 6 7 2 2 4 4 3 3 4 5 1 8 6 5 13 11 19 17 3 3 2
44 43 37 38 38 36 31 26 21 14 8 9 7 13 11 8 11 17 20 14 9 2 4 4 6 5 4 4 3 2 3 1 1 2 3 3 7 5 8 5 11 15 9 7 8 4 3
44 38 35 35 32 32 27 13 14 9 9 11 12 13 6 4 16 18 20 18 13 8 6 4 6 4 4 3 4 2 1 2 3 3 6 9 8 8 12 4 7 9 12 11 5 6 3
42 34 31 29 29 28 19 5 8 11 13 11 13 12 8 16 23 18 21 17 17 8 8 7 5 6 4 4 3 3 3 3 2 4 7 9 7 13 17 14 14 13 9 6 9 6 8
40 30 27 23 26 22 13 3 6 12 14 10 11 11 9 28 21 17 21 16 18 6 7 7 6 5 4 4 3 4 4 4 6 8 4 7 4 5 6 3 2 3 9 14 7 8 12
38 29 24 21 19 19 16 10 14 13 14 14 11 9 18 29 26 16 15 17 20 9 10 11 7 6 6 5 5 4 5 4 5 7 10 10 11 13 11 14 20 19 14 10 10 5 5
37 28 21 19 21 20 25 11 17 20 19 22 12 11 23 30 25 19 21 17 18 15 11 8 7 9 6 4 5 7 6 6 8 10 12 8 11 14 17 17 18 22 19 12 14 10 5
36 28 21 16 16 16 23 4 6 18 18 23 7 10 21 7 20 23 18 22 13 12 8 7 8 4 5 6 6 7 6 4 4 5 7 11 5 7 7 7 7 11 10 12 16 16 13
32 30 20 17 13 14 14 5 3 14 20 22 12 10 19 14 7 21 21 22 13 11 7 5 5 5 5 5 7 5 3 3 4 5 8 3 2 4 4 7 4 2 3 4 5 7 10
31 30 19 17 16 15 12 5 8 9 20 19 13 22 17 6 10 16 21 20 11 12 7 7 4 5 4 4 3 2 2 1 2 4 4 3 2 3 3 3 3 4 6 4 6 7 8
31 28 18 11 13 12 10 13 14 13 27 24 20 22 20 14 13 20 26 17 12 13 11 6 4 3 3 3 2 2 2 1 1 2 2 1 0 2 3 3 4 1 2 2 5 3 2
32 26 17 9 11 15 17 14 5 21 20 23 31 28 17 13 23 19 23 16 12 13 10 6 4 3 3 2 3 2 2 2 1 2 2 2 2 1 1 1 1 3 3 5 6 6 4
32 24 14 10 9 12 15 6 16 16 20 21 26 28 15 14 17 17 19 18 18 14 9 6 4 3 1 3 3 3 3 3 2 2 1 4 4 5 5 4 4 3 3 6 2 3 6
35 23 13 15 11 11 7 14 15 12 18 23 27 29 19 17 17 19 23 22 20 15 11 6 4 4 4 3 2 3 4 5 4 5 3 3 2 2 2 4 3 2 1 3 8 11 12
37 22 14 22 15 15 10 24 22 18 21 25 27 32 19 14 12 18 21 15 17 13 11 6 4 4 2 3 3 4 6 5 6 3 7 4 5 3 4 4 9 11 12 12 13 13 15

GFSGBSN_700_spd_108.txt.gz
Wind_Speed
39 39 39 38 38 38 37 36 35 34 33 31 32 33 29 26 21 26 24 28 29 25 24 20 13 14 17 15 11 9 8 8 5 5 10 9 8 6 7 8 11 21 20 22 16 25 17
39 39 40 40 40 39 39 39 38 35 31 28 29 30 30 29 29 30 26 33 28 26 22 22 15 16 15 15 10 7 3 9 9 11 7 10 9 6 7 11 14 19 17 14 18 28 29
38 40 41 42 41 40 40 40 37 35 32 29 30 30 26 30 28 28 20 24 28 21 14 22 17 14 13 11 9 3 1 4 6 3 4 2 3 5 7 13 17 14 18 13 14 11 7
39 40 41 42 43 43 41 42 41 35 31 29 27 30 28 28 27 26 26 26 29 22 15 17 19 16 15 12 8 3 5 0 3 5 2 1 3 2 6 6 17 16 18 22 15 8 28
41 41 41 41 41 43 44 45 43 40 35 30 28 28 28 28 26 28 23 25 28 21 13 18 19 19 13 9 6 1 1 3 3 6 5 3 2 2 6 6 6 17 8 28 23 15 32
41 42 42 44 45 45 47 47 47 43 38 35 32 30 26 28 26 22 26 28 22 21 14 14 20 8 8 8 3 2 3 6 4 2 1 0 3 3 4 3 2 7 15 21 24 19 18
41 41 42 42 44 45 48 49 50 43 38 34 31 28 25 23 22 21 27 22 21 19 14 15 16 11 9 9 2 2 4 4 7 5 1 2 2 5 1 4 2 4 8 15 16 15 13
41 42 43 43 43 43 44 45 48 41 34 30 25 23 21 19 17 19 22 21 23 19 17 18 17 12 9 9 6 2 6 5 7 9 5 5 5 5 1 4 4 3 5 4 7 7 4
43 45 45 45 44 44 43 43 41 35 25 28 20 19 17 14 14 20 18 27 20 15 12 22 21 12 9 8 9 2 4 6 6 7 10 8 7 4 4 1 2 3 3 3 1 1 4
43 44 44 44 44 44 44 41 36 28 22 23 19 16 12 13 13 12 19 18 15 9 6 11 10 10 13 10 8 4 3 3 3 5 9 8 10 8 6 5 3 1 3 1 3 5 2
43 43 43 43 43 43 43 38 32 27 20 21 16 15 12 15 13 10 10 3 9 9 1 4 9 7 9 9 4 3 4 3 4 5 5 4 5 10 10 9 6 4 3 2 4 3 4
42 41 41 42 43 41 36 30 27 25 18 18 14 17 17 17 10 14 8 4 11 6 2 3 7 8 9 9 7 4 3 3 4 4 5 9 9 8 9 10 10 5 5 4 5 4 5
42 43 43 43 41 35 35 35 31 23 16 13 15 18 20 14 9 10 11 7 6 3 1 3 5 7 7 7 6 4 1 3 3 3 3 5 2 8 8 7 10 10 8 4 4 4 3
42 43 42 41 36 34 34 34 28 24 16 11 13 12 11 13 10 12 16 17 4 7 3 3 5 7 6 5 4 3 2 4 3 4 4 4 1 4 2 8 6 13 11 5 5 4 2
42 41 40 37 31 31 35 30 23 15 12 10 9 0 12 17 7 12 16 14 7 6 1 1 4 6 6 7 2 2 1 1 1 3 3 4 1 8 3 3 9 7 17 11 0 1 3
41 39 38 33 29 33 33 27 14 5 6 9 9 9 8 17 11 16 21 10 13 2 3 2 3 5 3 4 4 2 0 1 0 2 3 4 5 2 4 5 7 10 9 6 11 5 5
40 37 35 30 27 28 26 19 13 3 8 5 7 5 8 17 15 20 20 12 14 10 4 1 2 1 2 2 5 2 2 0 1 2 4 5 4 3 9 2 4 5 5 6 3 2 2
39 36 33 27 24 23 21 15 8 4 6 4 6 2 5 19 23 20 17 15 12 10 5 4 2 2 3 2 3 2 2 1 1 2 5 6 4 6 7 9 6 5 7 8 5 3 3
37 35 32 23 21 20 17 19 10 8 8 5 4 6 1 20 21 15 11 13 12 14 5 3 3 1 2 3 2 3 2 3 3 3 2 6 3 5 2 2 3 5 8 10 10 3 7
35 34 32 20 18 20 16 24 12 11 7 8 7 4 3 20 20 13 7 16 13 12 7 5 5 3 3 5 5 3 4 3 4 5 7 9 6 7 7 9 12 12 9 5 4 3 8
34 34 32 21 15 18 17 14 8 12 11 8 8 2 6 21 21 11 9 16 13 6 8 4 2 6 4 3 5 5 5 5 5 5 7 5 5 7 8 9 13 16 12 9 8 5 4
33 33 32 24 11 15 12 15 7 11 12 13 8 6 8 1 23 12 12 15 12 10 6 2 5 4 4 5 5 6 5 4 2 4 6 5 3 5 5 11 3 2 3 4 8 10 12
31 32 31 25 10 12 7 11 7 2 9 15 12 9 7 7 14 13 14 12 11 6 4 3 3 5 5 6 7 6 3 3 2 3 5 2 3 5 3 8 7 6 3 1 3 3 6
29 30 30 23 11 12 9 9 6 6 13 15 10 9 7 4 2 13 17 15 9 6 6 3 4 5 5 6 5 3 2 3 2 1 1 1 3 4 2 4 1 1 2 2 3 4 2
28 27 28 20 7 5 7 10 5 1 13 17 11 7 6 5 1 17 13 10 9 7 7 5 4 5 6 5 3 2 2 3 3 3 2 3 0 1 2 2 2 1 2 3 3 5 3
28 25 24 20 8 4 4 10 13 13 22 21 16 13 10 8 6 15 12 15 13 9 7 5 5 5 6 5 3 2 2 3 3 3 4 4 3 1 1 1 1 4 3 4 6 6 5
27 24 22 19 10 5 1 6 10 15 16 19 17 17 14 13 12 13 11 13 14 6 6 6 6 6 4 5 4 3 3 4 3 3 3 3 4 5 4 4 4 5 5 3 2 3 7
28 24 21 18 12 10 6 9 11 15 16 22 17 24 15 17 16 12 12 14 14 15 9 5 5 5 6 4 3 3 4 5 5 7 4 4 3 3 3 3 2 4 4 4 9 14 15
29 24 20 15 15 16 9 15 17 19 22 20 22 20 21 18 16 18 14 14 17 15 10 8 7 6 4 4 5 5 8 7 7 4 8 5 7 3 5 4 7 9 11 13 14 18 20

GFSGBSN_700_spd_111.txt.gz
Wind_Speed
39 39 38 37 36 35 35 35 34 35 33 32 30 28 26 25 24 26 27 26 26 27 25 23 18 14 16 18 16 17 17 11 4 5 3 3 6 8 10 10 13 18 14 15 19 22 27
39 37 37 37 37 37 35 35 35 33 32 29 28 27 26 23 23 25 27 25 25 23 22 19 20 15 11 17 15 15 15 8 2 6 2 4 10 11 10 8 11 7 18 17 17 28 27
39 40 41 40 38 37 37 34 35 35 33 30 28 26 25 25 23 23 20 22 27 29 24 17 20 15 10 16 16 14 14 8 4 1 3 4 10 14 8 11 14 11 8 13 14 17 26
41 42 41 40 41 41 40 41 38 38 35 31 29 27 25 24 24 21 20 23 26 23 22 17 16 16 11 17 14 11 12 11 8 7 6 6 9 6 6 6 8 9 11 13 16 13 19
41 41 40 39 40 41 42 42 43 39 40 36 29 26 26 23 23 20 19 23 27 21 19 17 17 18 12 6 12 8 10 5 3 4 8 9 5 4 1 4 5 12 10 21 13 20 15
40 40 38 38 39 39 40 41 40 38 38 38 30 26 26 23 21 18 19 22 25 22 20 15 16 10 4 7 9 5 7 4 2 3 8 7 8 6 2 4 5 8 19 15 21 17 24
41 39 38 40 41 41 41 41 40 34 33 32 31 27 22 20 17 14 19 20 16 16 15 13 13 12 12 8 7 6 7 5 5 4 6 8 11 7 6 8 13 11 10 15 9 20 19
41 41 41 42 42 42 42 42 42 38 34 29 29 25 18 15 12 14 17 19 15 16 15 17 14 11 11 9 5 7 7 7 6 8 9 8 12 7 11 10 9 7 8 8 8 15 16
42 43 43 44 44 43 44 45 44 38 30 24 25 24 18 14 13 12 15 9 13 17 14 17 16 13 10 9 7 6 6 7 8 9 10 12 9 12 9 9 8 6 8 6 8 8 9
43 43 44 44 43 44 44 43 37 34 30 26 23 23 19 16 14 8 5 12 11 12 7 7 8 7 12 9 7 6 7 6 6 7 10 10 13 14 10 10 9 13 4 6 7 5 4
43 43 44 43 43 42 42 36 35 33 27 23 21 21 19 18 13 9 4 6 10 11 3 4 5 5 8 11 3 4 5 5 6 8 8 7 10 7 11 10 10 8 7 8 9 9 11
42 43 42 42 42 42 36 34 37 33 26 22 21 18 18 17 7 9 9 6 13 6 3 3 4 6 9 8 6 4 3 4 6 6 8 12 15 13 10 13 12 11 7 7 6 6 5
41 41 42 42 42 37 32 37 38 27 22 18 16 15 16 11 11 14 12 9 5 3 3 3 4 5 8 5 4 4 1 3 3 6 5 7 4 10 10 9 9 10 10 3 3 3 2
40 41 42 41 40 35 33 34 33 19 14 12 9 9 8 9 21 14 16 16 4 5 4 3 5 6 5 4 3 1 0 2 5 3 7 6 2 5 6 5 7 9 11 7 4 2 1
43 42 42 40 36 33 31 28 27 15 13 5 6 3 5 17 18 13 25 5 3 4 1 5 7 5 2 3 2 2 1 1 3 4 5 7 3 10 5 7 7 6 6 8 7 5 3
45 42 41 39 32 29 26 25 22 17 11 7 8 5 12 8 8 23 17 5 9 8 5 8 5 4 2 2 2 3 2 2 3 4 4 6 7 7 5 7 5 6 10 3 4 3 4
43 42 41 37 29 25 22 22 19 16 9 10 7 12 9 9 15 18 10 4 10 5 9 7 5 4 2 2 2 1 0 4 3 5 5 6 4 4 7 4 8 7 4 5 6 4 3
42 41 40 35 27 22 22 20 26 14 10 9 5 9 6 13 14 14 7 9 9 7 7 5 4 2 2 2 2 1 0 4 4 3 4 5 4 8 10 7 4 4 7 8 4 6 3
41 38 39 35 26 19 20 19 22 8 7 7 5 9 7 16 10 11 8 7 7 9 9 6 2 3 3 1 2 0 3 5 3 2 2 5 4 6 3 2 6 5 7 7 6 4 3
41 38 37 34 22 17 18 18 15 4 4 5 5 7 7 13 6 7 4 7 5 3 4 5 2 4 4 4 2 3 6 4 4 4 5 6 3 3 6 8 9 10 7 7 5 3 8
39 36 34 32 21 16 17 15 13 2 4 3 6 6 7 8 6 6 5 5 6 5 6 4 5 3 2 3 5 3 6 5 4 4 5 3 3 5 4 5 6 9 8 6 7 2 3
34 32 31 29 18 14 11 12 16 7 5 5 6 4 5 8 9 3 3 4 5 5 5 6 3 5 3 2 4 6 7 3 2 4 5 3 3 5 8 6 2 2 2 3 5 8 11
30 28 27 25 17 18 15 16 16 9 6 9 8 3 5 6 5 7 9 5 4 4 3 3 6 4 6 6 7 8 5 4 3 3 3 3 4 3 3 5 5 6 2 1 3 4 7
27 25 24 21 9 11 11 18 16 9 14 7 6 6 5 6 6 9 7 7 5 4 0 6 6 7 8 7 7 6 5 4 3 3 1 1 3 3 2 3 1 3 1 1 3 4 4
27 24 21 20 6 4 7 13 9 14 16 9 8 4 3 3 3 12 9 5 5 3 5 5 8 9 9 7 7 5 7 4 3 4 2 2 1 2 2 3 2 5 6 2 3 9 7
27 24 20 17 12 5 6 5 13 13 14 11 7 5 6 4 7 11 10 5 3 3 3 4 8 10 9 7 5 3 2 3 4 4 4 4 3 0 2 2 2 2 4 6 8 9 5
24 24 20 15 9 8 9 8 10 17 18 17 9 9 10 8 11 11 8 7 6 4 2 5 8 9 8 8 4 2 2 4 2 3 3 4 4 4 4 4 5 8 4 4 2 5 8
22 24 20 18 10 13 13 12 9 15 18 15 15 14 12 13 13 12 13 8 7 8 3 5 8 8 8 6 3 3 2 5 6 8 6 4 3 3 4 4 4 5 6 4 9 15 17
22 23 20 17 15 11 17 14 14 17 20 20 20 18 20 18 14 19 14 9 9 13 10 8 7 8 6 6 7 6 11 11 9 5 7 5 9 4 7 6 9 10 9 12 14 17 19

GFSGBSN_700_spd_114.txt.gz
Wind_Speed
37 36 37 36 36 34 32 32 33 31 30 28 25 23 22 21 21 21 22 16 24 22 21 18 17 14 12 11 14 15 16 16 10 10 7 2 3 8 13 13 13 23 16 17 20 19 20
38 36 38 38 38 38 37 34 34 33 30 28 26 22 21 21 20 20 20 30 21 22 22 22 20 17 13 11 15 16 14 14 9 9 7 6 6 10 15 16 12 12 14 20 20 15 19
37 37 38 39 39 39 40 40 37 37 36 31 27 23 20 21 20 19 20 22 24 17 22 18 17 17 11 11 15 12 13 11 10 12 6 7 7 10 17 14 11 17 12 16 22 18 18
37 38 38 40 40 40 41 40 40 39 36 35 34 24 20 20 20 21 22 18 24 24 20 16 16 16 10 11 13 8 11 10 13 12 9 9 9 9 12 8 12 12 15 18 16 17 20
37 39 40 40 40 40 39 39 39 38 36 28 29 30 21 19 21 22 22 20 22 24 20 18 17 14 11 4 8 8 7 8 9 7 3 7 6 8 6 6 8 9 12 17 14 18 21
38 39 41 41 40 39 38 38 38 39 37 31 27 27 23 19 18 18 19 20 21 14 20 19 17 11 4 6 9 6 5 6 6 4 7 6 9 9 6 9 7 12 19 18 21 16 19
39 40 41 42 41 41 41 41 41 40 37 33 24 21 26 23 16 13 14 17 14 15 14 13 11 6 8 5 6 7 4 6 6 3 8 9 13 14 13 8 16 20 19 20 18 18 20
40 41 43 44 44 44 44 43 41 36 33 30 26 20 23 23 16 9 13 13 10 10 11 13 13 11 9 6 5 7 5 5 5 5 8 9 16 13 10 13 16 17 21 18 8 12 16
41 43 43 44 44 44 45 40 38 35 30 29 27 24 23 19 15 13 5 9 15 16 14 13 13 12 11 8 7 6 5 6 8 8 6 14 15 17 13 11 15 16 15 13 10 12 16
43 45 44 43 44 44 43 42 36 37 36 30 27 22 20 15 11 7 8 16 12 12 6 5 6 9 10 9 6 6 4 5 5 7 10 9 8 13 13 10 14 14 13 13 11 13 7
43 43 44 43 44 43 43 37 37 36 34 23 21 18 15 9 4 10 9 11 14 10 3 4 6 5 9 12 4 3 4 5 7 9 9 5 15 16 12 9 11 14 14 12 12 11 13
43 42 46 45 43 42 37 35 37 31 24 19 14 9 6 1 5 12 4 13 14 6 1 3 5 7 10 9 3 2 2 4 6 8 6 11 14 14 13 15 14 14 14 13 11 7 2
42 44 48 46 42 39 33 33 31 26 25 20 14 6 3 4 9 15 9 15 7 3 6 5 5 10 8 4 2 3 5 8 8 7 10 13 7 8 12 13 5 5 11 4 1 1 3
43 47 51 48 40 36 30 32 28 32 24 19 13 8 5 8 15 9 13 10 1 7 7 8 9 13 6 8 2 5 8 6 10 9 14 8 4 12 14 10 11 12 8 5 2 3 2
42 47 50 48 39 33 26 26 28 27 24 20 16 10 7 8 13 14 15 2 7 5 10 8 12 7 5 6 5 7 3 2 7 8 7 9 3 12 12 16 11 10 8 10 6 4 4
40 45 50 47 39 29 24 26 26 22 20 19 15 9 14 19 9 14 10 15 11 11 14 10 4 7 7 4 5 4 3 5 5 8 6 7 7 8 14 10 15 11 11 7 4 5 3
38 41 47 45 39 25 24 26 28 16 16 17 16 13 10 13 19 19 15 13 13 14 10 10 11 8 8 4 7 4 4 6 7 8 10 8 4 11 9 9 11 12 14 6 4 4 3
35 39 45 42 35 23 22 25 25 16 17 17 19 19 11 13 16 13 11 12 12 14 14 11 11 8 7 8 6 4 1 6 9 8 7 10 5 8 7 8 10 11 14 13 5 5 5
30 36 40 38 33 23 18 21 21 14 16 14 22 21 12 11 11 13 7 11 10 15 15 12 9 9 8 6 3 4 7 9 7 8 8 10 7 7 3 3 9 9 10 10 6 5 9
29 32 35 34 31 20 14 20 15 14 14 15 18 17 15 15 15 12 10 9 8 11 12 11 7 10 10 8 6 5 9 8 8 7 7 5 6 3 1 7 10 9 5 6 8 5 8
27 26 30 28 29 19 15 11 13 17 12 11 15 17 7 9 13 11 10 8 10 9 12 10 10 8 7 5 7 7 10 7 5 7 7 6 6 8 3 5 5 5 1 2 4 2 3
25 24 26 24 23 24 16 17 13 16 16 9 11 11 11 13 11 13 10 7 7 10 9 10 8 8 8 6 5 7 9 5 5 6 7 5 4 7 12 10 7 4 4 2 4 6 6
23 21 22 21 12 18 11 10 6 12 17 17 12 10 9 12 11 9 8 5 6 8 9 9 10 9 10 8 8 7 5 4 4 5 5 4 5 2 2 6 4 5 1 0 2 4 5
21 18 18 18 5 9 10 3 7 7 12 14 12 11 8 11 13 11 9 6 6 8 6 9 10 11 10 9 8 6 5 4 3 3 3 2 4 4 3 6 3 5 4 4 6 7 6
21 16 14 16 9 1 2 2 11 9 9 14 12 10 6 7 8 13 13 6 2 4 5 7 10 11 10 9 8 7 9 6 6 4 2 2 3 2 3 4 4 7 5 5 8 10 7
22 15 11 13 13 4 3 7 15 9 8 10 11 7 7 5 8 13 15 10 5 3 4 7 9 10 10 9 6 5 3 6 5 6 4 4 3 2 1 1 1 6 7 7 9 7 5
21 17 10 10 12 7 8 7 15 17 16 12 8 8 7 7 8 11 12 8 7 2 2 4 9 9 9 9 7 3 2 7 3 5 4 5 5 5 1 5 5 10 7 6 1 5 10
21 20 11 10 10 11 14 14 12 14 20 22 17 11 11 11 11 14 14 12 8 7 4 2 5 8 7 8 5 4 2 6 6 10 9 5 3 3 4 5 6 3 6 5 8 14 15
23 22 17 11 13 10 13 17 17 15 17 20 21 20 17 17 12 16 17 16 12 13 12 7 6 7 4 5 6 5 11 8 9 5 8 5 7 4 7 6 8 10 12 10 12 16 18

GFSGBSN_700_spd_117.txt.gz
Wind_Speed
36 35 33 34 34 34 35 34 34 36 34 31 27 23 21 21 20 20 20 14 22 17 20 20 16 15 14 10 13 11 12 10 9 8 9 7 4 7 11 11 14 23 23 22 20 19 23
36 35 34 35 36 36 37 37 36 36 37 35 32 25 20 20 20 19 20 21 23 21 22 15 15 15 15 11 13 9 11 10 6 6 9 5 4 10 13 15 17 21 20 20 19 22 25
37 36 36 36 38 38 39 39 39 39 37 36 33 30 22 18 18 20 19 22 21 23 19 12 15 15 10 9 11 10 10 10 4 8 9 5 7 10 13 15 14 15 20 22 24 21 26
39 37 37 38 40 40 39 39 39 39 38 34 31 24 22 20 17 19 21 22 22 14 22 15 12 10 4 6 12 6 8 8 4 8 8 7 9 8 9 14 13 14 15 18 10 13 19
40 39 40 41 42 41 39 38 39 39 38 34 27 22 19 20 16 18 20 21 20 20 19 15 14 9 5 6 4 3 4 4 4 5 2 6 8 9 9 9 11 10 14 21 22 15 21
42 41 41 42 43 42 39 39 40 37 34 30 26 20 17 18 17 17 14 17 22 20 20 13 13 9 7 6 3 2 2 2 3 3 2 6 8 6 10 11 6 16 22 26 28 31 26
44 42 42 43 43 41 40 41 37 38 37 30 25 20 17 16 16 14 6 13 17 17 15 10 4 8 6 3 3 1 2 2 3 4 4 9 13 11 16 11 12 15 24 24 27 13 12
45 43 43 44 44 42 42 38 40 38 36 31 26 24 18 17 14 11 8 9 14 13 9 8 9 9 6 7 3 3 1 3 2 2 4 12 15 10 14 15 13 17 20 22 11 15 16
45 45 45 50 52 43 37 39 38 38 35 31 23 18 14 15 10 7 6 12 9 12 5 6 5 7 10 8 6 2 0 3 3 6 4 12 14 17 15 16 14 17 16 16 18 16 14
41 48 50 52 53 40 37 36 36 37 32 31 19 12 8 9 4 6 8 14 11 9 6 2 4 7 10 7 5 4 2 2 2 4 10 6 6 10 14 11 11 17 9 15 17 14 12
43 46 49 52 51 37 37 35 34 33 28 24 18 12 8 4 10 14 11 14 14 9 4 4 4 4 10 9 5 3 1 3 6 9 12 7 15 19 17 13 14 19 18 18 15 10 15
38 44 49 52 51 41 34 32 32 31 26 23 20 14 10 9 11 13 8 12 15 4 4 3 5 7 13 8 7 5 4 7 2 5 7 12 11 9 13 16 8 12 12 10 10 8 2
37 42 49 53 54 44 30 31 32 28 28 19 17 13 9 11 12 9 15 18 8 7 7 6 9 14 11 6 7 8 11 10 11 8 13 12 4 13 15 20 1 12 10 5 3 2 4
36 40 47 51 49 36 31 31 31 25 28 26 17 13 13 14 14 13 20 13 10 11 14 11 16 13 7 8 10 12 9 5 10 9 8 10 6 18 19 18 14 12 8 6 4 1 3
44 39 43 49 41 33 30 32 25 25 27 22 19 14 15 17 16 13 17 21 9 9 12 15 11 9 6 8 6 8 8 8 11 13 9 11 3 11 16 15 19 10 11 3 5 4 5
43 39 41 44 37 28 26 28 25 26 25 26 24 23 26 21 23 26 30 26 17 16 14 11 7 6 7 9 7 4 7 8 7 10 6 7 5 10 11 9 13 14 9 5 5 4 4
39 38 39 38 33 22 24 22 22 23 26 20 20 24 20 24 23 28 29 23 21 14 11 11 14 10 9 8 6 5 6 5 11 8 7 9 2 7 13 14 17 18 21 7 6 6 4
34 35 38 34 28 18 20 19 19 19 23 16 19 32 25 20 20 27 25 24 21 16 16 15 10 10 10 5 7 5 7 8 10 11 10 11 6 7 10 7 8 13 18 14 4 4 5
30 31 34 32 25 13 13 17 14 14 16 23 24 24 21 17 18 21 19 18 21 17 15 18 11 13 9 7 3 9 9 9 10 10 8 9 7 3 2 3 9 10 14 14 9 5 12
26 27 27 28 21 14 12 16 11 11 13 16 25 18 21 20 17 17 18 17 17 16 17 15 11 9 9 10 9 9 10 8 9 10 9 6 12 8 5 2 8 4 6 10 9 7 9
21 22 21 20 18 12 11 13 11 9 9 11 17 13 11 17 17 16 14 14 13 14 13 11 12 10 7 5 7 11 10 7 7 9 10 8 10 11 8 6 5 5 4 6 8 6 3
16 18 17 12 12 9 11 9 7 5 5 4 13 17 16 18 17 12 16 13 12 13 13 13 11 10 9 7 8 8 7 7 6 8 8 9 5 9 12 11 8 6 4 4 4 4 2
12 14 14 10 7 6 4 5 5 4 2 3 2 12 10 16 15 17 15 11 9 10 12 12 11 10 9 8 7 7 5 5 4 5 6 6 6 3 4 5 1 2 2 2 3 4 5
11 9 11 9 3 3 5 5 6 7 6 3 5 1 8 11 16 15 13 10 9 8 9 10 11 9 8 8 6 5 5 4 4 4 4 4 6 3 1 3 3 4 2 3 4 2 3
15 7 8 9 5 6 5 6 9 6 5 6 4 4 6 10 9 13 13 10 7 6 6 7 8 8 8 7 4 3 5 3 5 5 3 3 4 2 2 1 3 2 2 3 4 3 2
19 10 6 8 7 6 8 7 9 10 9 8 5 6 5 8 8 13 13 10 6 4 4 5 6 7 7 6 4 3 3 5 3 6 5 4 5 3 2 1 4 1 3 5 6 2 2
21 17 10 8 9 6 10 10 11 12 11 11 11 9 9 9 12 15 14 11 9 5 3 2 3 6 6 4 5 3 1 5 4 6 4 8 6 6 5 4 5 5 5 3 1 2 6
22 22 16 10 11 10 9 15 15 15 17 16 19 16 13 13 11 15 19 13 11 9 7 5 3 2 3 5 3 4 3 5 5 11 7 4 4 3 3 6 5 4 4 6 7 8 7
25 24 22 16 13 13 12 13 19 22 22 20 24 26 23 18 13 16 20 17 16 14 15 12 7 5 3 4 5 4 9 7 10 6 6 5 4 7 7 6 11 13 10 11 12 12 12